Wetterdaten: Dienstag, 12.11.2024
Datum Zeit Temp. I. Temp. A. Feuchte I. Feuchte A. Luftdruck Regen Wind Richtung Richtung Sonnenschein Solar Taupunkt Windchill Windböen
12.11.2024 00:00 21,2 °C 6,6 °C 59 % 94 % 1026,9 hPa 0,0 l/m² 0,0 km/h (0 Bft) SW 234 ° 0 min 0 W/m² 5,7 °C 6,6 °C 0,0 km/h (0 Bft)
12.11.2024 00:02 21,2 °C 6,6 °C 59 % 94 % 1026,9 hPa 0,0 l/m² 0,0 km/h (0 Bft) SW 234 ° 0 min 0 W/m² 5,7 °C 6,6 °C 0,0 km/h (0 Bft)
12.11.2024 00:04 21,2 °C 6,6 °C 59 % 94 % 1026,8 hPa 0,0 l/m² 0,0 km/h (0 Bft) SW 234 ° 0 min 0 W/m² 5,7 °C 6,6 °C 0,0 km/h (0 Bft)
12.11.2024 00:06 21,2 °C 6,5 °C 59 % 94 % 1026,8 hPa 0,0 l/m² 0,0 km/h (0 Bft) SW 234 ° 0 min 0 W/m² 5,6 °C 6,5 °C 0,0 km/h (0 Bft)
12.11.2024 00:08 21,2 °C 6,5 °C 59 % 94 % 1026,9 hPa 0,0 l/m² 0,0 km/h (0 Bft) SW 234 ° 0 min 0 W/m² 5,6 °C 6,5 °C 0,0 km/h (0 Bft)
12.11.2024 00:10 21,1 °C 6,6 °C 59 % 94 % 1026,9 hPa 0,0 l/m² 0,0 km/h (0 Bft) SW 234 ° 0 min 0 W/m² 5,7 °C 6,6 °C 0,0 km/h (0 Bft)
12.11.2024 00:11 21,2 °C 6,6 °C 59 % 94 % 1026,9 hPa 0,0 l/m² 0,0 km/h (0 Bft) SW 234 ° 0 min 0 W/m² 5,7 °C 6,6 °C 0,0 km/h (0 Bft)
12.11.2024 00:12 21,2 °C 6,6 °C 59 % 94 % 1026,9 hPa 0,0 l/m² 0,0 km/h (0 Bft) SW 234 ° 0 min 0 W/m² 5,7 °C 6,6 °C 0,0 km/h (0 Bft)
12.11.2024 00:13 21,2 °C 6,6 °C 59 % 94 % 1026,9 hPa 0,0 l/m² 0,0 km/h (0 Bft) SW 234 ° 0 min 0 W/m² 5,7 °C 6,6 °C 0,0 km/h (0 Bft)
12.11.2024 00:15 21,2 °C 6,6 °C 59 % 94 % 1027,0 hPa 0,0 l/m² 0,0 km/h (0 Bft) SW 234 ° 0 min 0 W/m² 5,7 °C 6,6 °C 0,0 km/h (0 Bft)
12.11.2024 00:17 21,2 °C 6,5 °C 59 % 94 % 1026,9 hPa 0,0 l/m² 0,0 km/h (0 Bft) SW 234 ° 0 min 0 W/m² 5,6 °C 6,5 °C 0,0 km/h (0 Bft)
12.11.2024 00:19 21,2 °C 6,6 °C 59 % 94 % 1027,0 hPa 0,0 l/m² 0,0 km/h (0 Bft) SW 234 ° 0 min 0 W/m² 5,7 °C 6,6 °C 0,0 km/h (0 Bft)
12.11.2024 00:22 21,2 °C 6,6 °C 59 % 94 % 1026,9 hPa 0,0 l/m² 0,0 km/h (0 Bft) SW 234 ° 0 min 0 W/m² 5,7 °C 6,6 °C 0,0 km/h (0 Bft)
12.11.2024 00:23 21,2 °C 6,6 °C 59 % 94 % 1027,0 hPa 0,0 l/m² 0,0 km/h (0 Bft) SW 234 ° 0 min 0 W/m² 5,7 °C 6,6 °C 0,0 km/h (0 Bft)
12.11.2024 00:24 21,2 °C 6,6 °C 59 % 94 % 1026,9 hPa 0,0 l/m² 0,0 km/h (0 Bft) SW 234 ° 0 min 0 W/m² 5,7 °C 6,6 °C 0,0 km/h (0 Bft)
12.11.2024 00:25 21,2 °C 6,5 °C 59 % 94 % 1026,9 hPa 0,0 l/m² 0,0 km/h (0 Bft) SW 234 ° 0 min 0 W/m² 5,6 °C 6,5 °C 0,0 km/h (0 Bft)
12.11.2024 00:27 21,2 °C 6,6 °C 59 % 94 % 1026,9 hPa 0,0 l/m² 0,0 km/h (0 Bft) SW 234 ° 0 min 0 W/m² 5,7 °C 6,6 °C 0,0 km/h (0 Bft)
12.11.2024 00:29 21,2 °C 6,5 °C 59 % 94 % 1027,0 hPa 0,0 l/m² 0,1 km/h (0 Bft) SW 234 ° 0 min 0 W/m² 5,6 °C 6,5 °C 1,6 km/h (1 Bft)
12.11.2024 00:31 21,2 °C 6,6 °C 59 % 95 % 1027,0 hPa 0,0 l/m² 0,2 km/h (0 Bft) SW 234 ° 0 min 0 W/m² 5,9 °C 6,6 °C 3,2 km/h (1 Bft)
12.11.2024 00:32 21,2 °C 6,5 °C 59 % 95 % 1026,9 hPa 0,0 l/m² 0,0 km/h (0 Bft) SW 234 ° 0 min 0 W/m² 5,8 °C 6,5 °C 0,0 km/h (0 Bft)
12.11.2024 00:33 21,2 °C 6,5 °C 59 % 95 % 1027,0 hPa 0,0 l/m² 0,6 km/h (0 Bft) SW 234 ° 0 min 0 W/m² 5,8 °C 6,5 °C 1,6 km/h (1 Bft)
12.11.2024 00:34 21,2 °C 6,5 °C 59 % 95 % 1026,9 hPa 0,0 l/m² 0,0 km/h (0 Bft) SW 234 ° 0 min 0 W/m² 5,8 °C 6,5 °C 0,0 km/h (0 Bft)
12.11.2024 00:36 21,2 °C 6,6 °C 59 % 95 % 1026,9 hPa 0,0 l/m² 0,3 km/h (0 Bft) SW 234 ° 0 min 0 W/m² 5,9 °C 6,6 °C 3,2 km/h (1 Bft)
12.11.2024 00:38 21,2 °C 6,6 °C 59 % 95 % 1027,0 hPa 0,0 l/m² 2,8 km/h (1 Bft) SW 234 ° 0 min 0 W/m² 5,9 °C 6,6 °C 4,8 km/h (1 Bft)
12.11.2024 00:40 21,2 °C 6,6 °C 59 % 95 % 1027,0 hPa 0,0 l/m² 2,6 km/h (1 Bft) SW 234 ° 0 min 0 W/m² 5,9 °C 6,6 °C 6,4 km/h (2 Bft)
12.11.2024 00:41 21,2 °C 6,7 °C 59 % 95 % 1027,0 hPa 0,0 l/m² 2,0 km/h (1 Bft) SW 234 ° 0 min 0 W/m² 6,0 °C 6,7 °C 4,8 km/h (1 Bft)
12.11.2024 00:43 21,2 °C 6,7 °C 59 % 95 % 1027,0 hPa 0,0 l/m² 4,7 km/h (1 Bft) SW 234 ° 0 min 0 W/m² 6,0 °C 6,7 °C 11,3 km/h (2 Bft)
12.11.2024 00:45 21,2 °C 6,8 °C 59 % 95 % 1026,9 hPa 0,0 l/m² 5,9 km/h (2 Bft) O-NO 72 ° 0 min 0 W/m² 6,1 °C 6,8 °C 9,7 km/h (2 Bft)
12.11.2024 00:46 21,2 °C 6,8 °C 59 % 95 % 1027,0 hPa 0,0 l/m² 2,4 km/h (1 Bft) O-NO 67 ° 0 min 0 W/m² 6,1 °C 6,8 °C 6,4 km/h (2 Bft)
12.11.2024 00:47 21,2 °C 6,8 °C 59 % 95 % 1026,9 hPa 0,0 l/m² 6,7 km/h (2 Bft) N 5 ° 0 min 0 W/m² 6,1 °C 6,6 °C 9,7 km/h (2 Bft)
12.11.2024 00:49 21,2 °C 6,8 °C 59 % 95 % 1026,9 hPa 0,0 l/m² 8,0 km/h (2 Bft) O 88 ° 0 min 0 W/m² 6,1 °C 5,5 °C 14,5 km/h (3 Bft)
12.11.2024 00:50 21,2 °C 6,9 °C 59 % 95 % 1027,0 hPa 0,0 l/m² 4,5 km/h (1 Bft) N-NO 29 ° 0 min 0 W/m² 6,2 °C 6,9 °C 8,0 km/h (2 Bft)
12.11.2024 00:52 21,2 °C 6,9 °C 59 % 95 % 1027,0 hPa 0,0 l/m² 5,8 km/h (2 Bft) O-NO 71 ° 0 min 0 W/m² 6,2 °C 6,9 °C 12,9 km/h (3 Bft)
12.11.2024 00:54 21,1 °C 6,9 °C 59 % 95 % 1027,3 hPa 0,0 l/m² 7,0 km/h (2 Bft) NO 54 ° 0 min 0 W/m² 6,2 °C 6,4 °C 12,9 km/h (3 Bft)
12.11.2024 00:56 21,2 °C 7,0 °C 59 % 95 % 1027,1 hPa 0,0 l/m² 5,7 km/h (2 Bft) O-NO 71 ° 0 min 0 W/m² 6,3 °C 7,0 °C 9,7 km/h (2 Bft)
12.11.2024 00:58 21,2 °C 7,0 °C 59 % 95 % 1027,1 hPa 0,0 l/m² 6,4 km/h (2 Bft) O-NO 77 ° 0 min 0 W/m² 6,3 °C 7,0 °C 11,3 km/h (2 Bft)
12.11.2024 01:00 21,2 °C 7,0 °C 59 % 95 % 1027,1 hPa 0,0 l/m² 4,5 km/h (1 Bft) O-NO 71 ° 0 min 0 W/m² 6,3 °C 7,0 °C 8,0 km/h (2 Bft)
12.11.2024 01:01 21,2 °C 7,1 °C 59 % 95 % 1027,1 hPa 0,0 l/m² 5,6 km/h (2 Bft) NO 55 ° 0 min 0 W/m² 6,4 °C 7,1 °C 8,0 km/h (2 Bft)
12.11.2024 01:02 21,2 °C 7,1 °C 59 % 95 % 1027,1 hPa 0,0 l/m² 7,0 km/h (2 Bft) NO 40 ° 0 min 0 W/m² 6,4 °C 6,6 °C 14,5 km/h (3 Bft)
12.11.2024 01:03 21,2 °C 7,1 °C 59 % 95 % 1027,1 hPa 0,0 l/m² 6,9 km/h (2 Bft) O-NO 71 ° 0 min 0 W/m² 6,4 °C 6,7 °C 11,3 km/h (2 Bft)
12.11.2024 01:05 21,2 °C 7,1 °C 59 % 95 % 1027,2 hPa 0,0 l/m² 6,9 km/h (2 Bft) N-NO 12 ° 0 min 0 W/m² 6,4 °C 6,7 °C 12,9 km/h (3 Bft)
12.11.2024 01:07 21,2 °C 7,1 °C 59 % 95 % 1027,3 hPa 0,0 l/m² 6,1 km/h (2 Bft) O-NO 57 ° 0 min 0 W/m² 6,4 °C 7,1 °C 11,3 km/h (2 Bft)
12.11.2024 01:09 21,2 °C 7,1 °C 59 % 95 % 1027,3 hPa 0,0 l/m² 4,3 km/h (1 Bft) N 5 ° 0 min 0 W/m² 6,4 °C 7,1 °C 9,7 km/h (2 Bft)
12.11.2024 01:10 21,2 °C 7,1 °C 59 % 95 % 1027,3 hPa 0,0 l/m² 1,1 km/h (1 Bft) N 5 ° 0 min 0 W/m² 6,4 °C 7,1 °C 3,2 km/h (1 Bft)
12.11.2024 01:12 21,2 °C 7,1 °C 59 % 95 % 1027,4 hPa 0,0 l/m² 5,5 km/h (2 Bft) O-NO 63 ° 0 min 0 W/m² 6,4 °C 7,1 °C 9,7 km/h (2 Bft)
12.11.2024 01:14 21,2 °C 7,1 °C 59 % 95 % 1027,3 hPa 0,0 l/m² 4,4 km/h (1 Bft) NO 55 ° 0 min 0 W/m² 6,4 °C 7,1 °C 8,0 km/h (2 Bft)
12.11.2024 01:16 21,2 °C 7,1 °C 59 % 95 % 1027,4 hPa 0,0 l/m² 5,8 km/h (2 Bft) NO 43 ° 0 min 0 W/m² 6,4 °C 7,1 °C 11,3 km/h (2 Bft)
12.11.2024 01:18 21,2 °C 7,1 °C 59 % 95 % 1027,3 hPa 0,0 l/m² 4,3 km/h (1 Bft) O-NO 65 ° 0 min 0 W/m² 6,4 °C 7,1 °C 8,0 km/h (2 Bft)
12.11.2024 01:20 21,2 °C 7,1 °C 59 % 95 % 1027,3 hPa 0,0 l/m² 3,5 km/h (1 Bft) NO 45 ° 0 min 0 W/m² 6,4 °C 7,1 °C 8,0 km/h (2 Bft)
12.11.2024 01:21 21,2 °C 7,1 °C 59 % 95 % 1027,4 hPa 0,0 l/m² 0,9 km/h (0 Bft) NO 42 ° 0 min 0 W/m² 6,4 °C 7,1 °C 4,8 km/h (1 Bft)
12.11.2024 01:23 21,2 °C 7,1 °C 59 % 95 % 1027,4 hPa 0,0 l/m² 1,8 km/h (1 Bft) NO 48 ° 0 min 0 W/m² 6,4 °C 7,1 °C 4,8 km/h (1 Bft)
12.11.2024 01:25 21,2 °C 7,1 °C 59 % 95 % 1027,5 hPa 0,0 l/m² 3,4 km/h (1 Bft) NO 38 ° 0 min 0 W/m² 6,4 °C 7,1 °C 6,4 km/h (2 Bft)
12.11.2024 01:26 21,2 °C 7,1 °C 59 % 95 % 1027,5 hPa 0,0 l/m² 2,4 km/h (1 Bft) NO 42 ° 0 min 0 W/m² 6,4 °C 7,1 °C 8,0 km/h (2 Bft)
12.11.2024 01:27 21,1 °C 7,1 °C 59 % 95 % 1027,4 hPa 0,0 l/m² 4,5 km/h (1 Bft) NO 56 ° 0 min 0 W/m² 6,4 °C 7,1 °C 8,0 km/h (2 Bft)
12.11.2024 01:29 21,1 °C 7,0 °C 59 % 95 % 1027,5 hPa 0,0 l/m² 4,9 km/h (1 Bft) O-NO 62 ° 0 min 0 W/m² 6,3 °C 7,0 °C 8,0 km/h (2 Bft)
12.11.2024 01:30 21,2 °C 7,1 °C 59 % 95 % 1027,4 hPa 0,0 l/m² 4,3 km/h (1 Bft) NO 51 ° 0 min 0 W/m² 6,4 °C 7,1 °C 8,0 km/h (2 Bft)
12.11.2024 01:31 21,1 °C 7,1 °C 59 % 95 % 1027,5 hPa 0,0 l/m² 5,7 km/h (2 Bft) O-NO 72 ° 0 min 0 W/m² 6,4 °C 7,1 °C 8,0 km/h (2 Bft)
12.11.2024 01:32 21,2 °C 7,1 °C 59 % 95 % 1027,5 hPa 0,0 l/m² 3,7 km/h (1 Bft) NO 51 ° 0 min 0 W/m² 6,4 °C 7,1 °C 6,4 km/h (2 Bft)
12.11.2024 01:33 21,2 °C 7,0 °C 59 % 95 % 1027,3 hPa 0,0 l/m² 3,2 km/h (1 Bft) NO 38 ° 0 min 0 W/m² 6,3 °C 7,0 °C 6,4 km/h (2 Bft)
12.11.2024 01:35 21,1 °C 7,1 °C 59 % 95 % 1027,5 hPa 0,0 l/m² 4,3 km/h (1 Bft) NO 36 ° 0 min 0 W/m² 6,4 °C 7,1 °C 6,4 km/h (2 Bft)
12.11.2024 01:37 21,2 °C 7,0 °C 59 % 95 % 1027,4 hPa 0,0 l/m² 2,3 km/h (1 Bft) N 350 ° 0 min 0 W/m² 6,3 °C 7,0 °C 8,0 km/h (2 Bft)
12.11.2024 01:39 21,2 °C 7,1 °C 59 % 95 % 1027,4 hPa 0,0 l/m² 5,0 km/h (1 Bft) NO 46 ° 0 min 0 W/m² 6,4 °C 7,1 °C 9,7 km/h (2 Bft)
12.11.2024 01:40 21,2 °C 7,0 °C 59 % 95 % 1027,4 hPa 0,0 l/m² 5,6 km/h (2 Bft) NO 42 ° 0 min 0 W/m² 6,3 °C 7,0 °C 8,0 km/h (2 Bft)
12.11.2024 01:42 21,1 °C 7,0 °C 59 % 95 % 1027,4 hPa 0,0 l/m² 4,1 km/h (1 Bft) NO 44 ° 0 min 0 W/m² 6,3 °C 7,0 °C 8,0 km/h (2 Bft)
12.11.2024 01:44 21,2 °C 7,0 °C 59 % 95 % 1027,4 hPa 0,0 l/m² 4,3 km/h (1 Bft) NO 40 ° 0 min 0 W/m² 6,3 °C 7,0 °C 8,0 km/h (2 Bft)
12.11.2024 01:46 21,1 °C 7,0 °C 59 % 95 % 1027,5 hPa 0,0 l/m² 2,9 km/h (1 Bft) NO 39 ° 0 min 0 W/m² 6,3 °C 7,0 °C 8,0 km/h (2 Bft)
12.11.2024 01:48 21,2 °C 7,0 °C 59 % 95 % 1027,5 hPa 0,0 l/m² 3,7 km/h (1 Bft) NO 40 ° 0 min 0 W/m² 6,3 °C 7,0 °C 8,0 km/h (2 Bft)
12.11.2024 01:50 21,1 °C 7,0 °C 59 % 95 % 1027,5 hPa 0,0 l/m² 2,4 km/h (1 Bft) NO 40 ° 0 min 0 W/m² 6,3 °C 7,0 °C 6,4 km/h (2 Bft)
12.11.2024 01:51 21,1 °C 6,9 °C 59 % 95 % 1027,5 hPa 0,0 l/m² 0,3 km/h (0 Bft) NO 40 ° 0 min 0 W/m² 6,2 °C 6,9 °C 1,6 km/h (1 Bft)
12.11.2024 01:52 21,1 °C 6,9 °C 59 % 95 % 1027,6 hPa 0,0 l/m² 2,8 km/h (1 Bft) NO 39 ° 0 min 0 W/m² 6,2 °C 6,9 °C 4,8 km/h (1 Bft)
12.11.2024 01:53 21,1 °C 6,9 °C 59 % 95 % 1027,5 hPa 0,0 l/m² 1,8 km/h (1 Bft) NO 39 ° 0 min 0 W/m² 6,2 °C 6,9 °C 4,8 km/h (1 Bft)
12.11.2024 01:55 21,1 °C 6,9 °C 59 % 95 % 1027,5 hPa 0,0 l/m² 3,2 km/h (1 Bft) NO 39 ° 0 min 0 W/m² 6,2 °C 6,9 °C 6,4 km/h (2 Bft)
12.11.2024 01:57 21,1 °C 6,9 °C 59 % 95 % 1027,5 hPa 0,0 l/m² 2,4 km/h (1 Bft) O-NO 59 ° 0 min 0 W/m² 6,2 °C 6,9 °C 6,4 km/h (2 Bft)
12.11.2024 01:59 21,2 °C 6,9 °C 59 % 95 % 1027,6 hPa 0,0 l/m² 3,2 km/h (1 Bft) NO 50 ° 0 min 0 W/m² 6,2 °C 6,9 °C 6,4 km/h (2 Bft)
12.11.2024 02:00 21,1 °C 6,9 °C 59 % 95 % 1027,6 hPa 0,0 l/m² 2,8 km/h (1 Bft) NO 49 ° 0 min 0 W/m² 6,2 °C 6,9 °C 4,8 km/h (1 Bft)
12.11.2024 02:01 21,1 °C 6,9 °C 59 % 95 % 1027,6 hPa 0,0 l/m² 0,6 km/h (0 Bft) NO 49 ° 0 min 0 W/m² 6,2 °C 6,9 °C 3,2 km/h (1 Bft)
12.11.2024 02:02 21,1 °C 6,9 °C 59 % 95 % 1027,6 hPa 0,0 l/m² 1,3 km/h (1 Bft) NO 49 ° 0 min 0 W/m² 6,2 °C 6,9 °C 3,2 km/h (1 Bft)
12.11.2024 02:04 21,1 °C 6,9 °C 59 % 95 % 1027,5 hPa 0,0 l/m² 2,0 km/h (1 Bft) NO 49 ° 0 min 0 W/m² 6,2 °C 6,9 °C 4,8 km/h (1 Bft)
12.11.2024 02:06 21,1 °C 6,9 °C 59 % 95 % 1027,6 hPa 0,0 l/m² 2,9 km/h (1 Bft) NO 51 ° 0 min 0 W/m² 6,2 °C 6,9 °C 8,0 km/h (2 Bft)
12.11.2024 02:08 21,1 °C 6,9 °C 59 % 95 % 1027,6 hPa 0,0 l/m² 6,7 km/h (2 Bft) NO 49 ° 0 min 0 W/m² 6,2 °C 6,7 °C 11,3 km/h (2 Bft)
12.11.2024 02:10 21,1 °C 6,9 °C 59 % 95 % 1027,6 hPa 0,0 l/m² 7,1 km/h (2 Bft) N-NO 31 ° 0 min 0 W/m² 6,2 °C 6,3 °C 14,5 km/h (3 Bft)
12.11.2024 02:11 21,1 °C 6,9 °C 59 % 95 % 1027,6 hPa 0,0 l/m² 3,0 km/h (1 Bft) O-NO 60 ° 0 min 0 W/m² 6,2 °C 6,9 °C 8,0 km/h (2 Bft)
12.11.2024 02:13 21,1 °C 6,8 °C 59 % 95 % 1027,7 hPa 0,0 l/m² 4,0 km/h (1 Bft) O-NO 61 ° 0 min 0 W/m² 6,1 °C 6,8 °C 9,7 km/h (2 Bft)
12.11.2024 02:15 21,1 °C 6,8 °C 59 % 95 % 1027,8 hPa 0,0 l/m² 2,2 km/h (1 Bft) O-NO 61 ° 0 min 0 W/m² 6,1 °C 6,8 °C 4,8 km/h (1 Bft)
12.11.2024 02:17 21,1 °C 6,8 °C 59 % 95 % 1027,7 hPa 0,0 l/m² 2,3 km/h (1 Bft) O-NO 57 ° 0 min 0 W/m² 6,1 °C 6,8 °C 6,4 km/h (2 Bft)
12.11.2024 02:19 21,1 °C 6,8 °C 59 % 95 % 1027,7 hPa 0,0 l/m² 3,0 km/h (1 Bft) NO 54 ° 0 min 0 W/m² 6,1 °C 6,8 °C 8,0 km/h (2 Bft)
12.11.2024 02:21 21,1 °C 6,8 °C 59 % 95 % 1027,8 hPa 0,0 l/m² 3,0 km/h (1 Bft) NO 55 ° 0 min 0 W/m² 6,1 °C 6,8 °C 6,4 km/h (2 Bft)
12.11.2024 02:23 21,1 °C 6,8 °C 59 % 95 % 1027,8 hPa 0,0 l/m² 5,7 km/h (2 Bft) NO 51 ° 0 min 0 W/m² 6,1 °C 6,8 °C 9,7 km/h (2 Bft)
12.11.2024 02:24 21,1 °C 6,8 °C 59 % 95 % 1027,8 hPa 0,0 l/m² 7,2 km/h (2 Bft) NO 44 ° 0 min 0 W/m² 6,1 °C 6,1 °C 9,7 km/h (2 Bft)
12.11.2024 02:25 21,1 °C 6,8 °C 59 % 95 % 1027,7 hPa 0,0 l/m² 5,2 km/h (1 Bft) NO 36 ° 0 min 0 W/m² 6,1 °C 6,8 °C 8,0 km/h (2 Bft)
12.11.2024 02:26 21,1 °C 6,8 °C 59 % 95 % 1027,8 hPa 0,0 l/m² 3,1 km/h (1 Bft) NO 36 ° 0 min 0 W/m² 6,1 °C 6,8 °C 6,4 km/h (2 Bft)
12.11.2024 02:28 21,1 °C 6,8 °C 59 % 95 % 1027,9 hPa 0,0 l/m² 8,1 km/h (2 Bft) NO 50 ° 0 min 0 W/m² 6,1 °C 5,4 °C 12,9 km/h (3 Bft)
12.11.2024 02:30 21,1 °C 6,8 °C 59 % 95 % 1027,8 hPa 0,0 l/m² 5,9 km/h (2 Bft) NO 37 ° 0 min 0 W/m² 6,1 °C 6,8 °C 9,7 km/h (2 Bft)
12.11.2024 02:32 21,1 °C 6,7 °C 59 % 95 % 1027,9 hPa 0,0 l/m² 7,3 km/h (2 Bft) NO 56 ° 0 min 0 W/m² 6,0 °C 6,0 °C 11,3 km/h (2 Bft)
12.11.2024 02:34 21,1 °C 6,7 °C 59 % 95 % 1027,8 hPa 0,0 l/m² 4,2 km/h (1 Bft) NO 38 ° 0 min 0 W/m² 6,0 °C 6,7 °C 9,7 km/h (2 Bft)
12.11.2024 02:36 21,1 °C 6,7 °C 59 % 95 % 1027,9 hPa 0,0 l/m² 7,5 km/h (2 Bft) O-NO 57 ° 0 min 0 W/m² 6,0 °C 5,8 °C 14,5 km/h (3 Bft)
12.11.2024 02:38 21,1 °C 6,7 °C 59 % 95 % 1027,9 hPa 0,0 l/m² 6,0 km/h (2 Bft) NO 38 ° 0 min 0 W/m² 6,0 °C 6,7 °C 11,3 km/h (2 Bft)
12.11.2024 02:40 21,1 °C 6,7 °C 59 % 95 % 1027,8 hPa 0,0 l/m² 6,2 km/h (2 Bft) NO 46 ° 0 min 0 W/m² 6,0 °C 6,7 °C 14,5 km/h (3 Bft)
12.11.2024 02:42 21,1 °C 6,7 °C 59 % 95 % 1027,9 hPa 0,0 l/m² 7,0 km/h (2 Bft) NO 53 ° 0 min 0 W/m² 6,0 °C 6,2 °C 12,9 km/h (3 Bft)
12.11.2024 02:44 21,1 °C 6,7 °C 59 % 95 % 1027,9 hPa 0,0 l/m² 4,2 km/h (1 Bft) NO 41 ° 0 min 0 W/m² 6,0 °C 6,7 °C 8,0 km/h (2 Bft)
12.11.2024 02:46 21,1 °C 6,7 °C 59 % 95 % 1027,8 hPa 0,0 l/m² 6,3 km/h (2 Bft) NO 37 ° 0 min 0 W/m² 6,0 °C 6,7 °C 11,3 km/h (2 Bft)
12.11.2024 02:48 21,1 °C 6,7 °C 59 % 95 % 1028,0 hPa 0,0 l/m² 6,9 km/h (2 Bft) NO 46 ° 0 min 0 W/m² 6,0 °C 6,3 °C 11,3 km/h (2 Bft)
12.11.2024 02:50 21,1 °C 6,7 °C 59 % 95 % 1028,0 hPa 0,0 l/m² 7,1 km/h (2 Bft) NO 43 ° 0 min 0 W/m² 6,0 °C 6,1 °C 11,3 km/h (2 Bft)
12.11.2024 02:52 21,1 °C 6,7 °C 59 % 95 % 1027,9 hPa 0,0 l/m² 5,8 km/h (2 Bft) NO 38 ° 0 min 0 W/m² 6,0 °C 6,7 °C 9,7 km/h (2 Bft)
12.11.2024 02:54 21,1 °C 6,7 °C 59 % 95 % 1028,0 hPa 0,0 l/m² 6,6 km/h (2 Bft) NO 44 ° 0 min 0 W/m² 6,0 °C 6,6 °C 16,1 km/h (3 Bft)
12.11.2024 02:56 21,1 °C 6,7 °C 59 % 95 % 1028,0 hPa 0,0 l/m² 8,5 km/h (2 Bft) N-NO 19 ° 0 min 0 W/m² 6,0 °C 5,0 °C 16,1 km/h (3 Bft)
12.11.2024 02:58 21,1 °C 6,7 °C 59 % 95 % 1027,9 hPa 0,0 l/m² 7,1 km/h (2 Bft) NO 38 ° 0 min 0 W/m² 6,0 °C 6,1 °C 14,5 km/h (3 Bft)
12.11.2024 03:00 21,1 °C 6,6 °C 59 % 95 % 1027,9 hPa 0,0 l/m² 6,2 km/h (2 Bft) O-NO 60 ° 0 min 0 W/m² 5,9 °C 6,6 °C 11,3 km/h (2 Bft)
12.11.2024 03:01 21,1 °C 6,6 °C 59 % 95 % 1027,9 hPa 0,0 l/m² 4,8 km/h (1 Bft) O-NO 67 ° 0 min 0 W/m² 5,9 °C 6,6 °C 11,3 km/h (2 Bft)
12.11.2024 03:07 21,1 °C 6,6 °C 59 % 95 % 1028,0 hPa 0,0 l/m² 4,6 km/h (1 Bft) N-NO 26 ° 0 min 0 W/m² 5,9 °C 6,6 °C 8,0 km/h (2 Bft)
12.11.2024 03:09 21,1 °C 6,6 °C 59 % 95 % 1028,0 hPa 0,0 l/m² 7,8 km/h (2 Bft) N-NO 22 ° 0 min 0 W/m² 5,9 °C 5,4 °C 14,5 km/h (3 Bft)
12.11.2024 03:10 21,1 °C 6,6 °C 59 % 95 % 1028,0 hPa 0,0 l/m² 8,6 km/h (2 Bft) NO 51 ° 0 min 0 W/m² 5,9 °C 4,8 °C 12,9 km/h (3 Bft)
12.11.2024 03:12 21,1 °C 6,6 °C 59 % 95 % 1028,1 hPa 0,0 l/m² 5,7 km/h (2 Bft) NO 40 ° 0 min 0 W/m² 5,9 °C 6,6 °C 12,9 km/h (3 Bft)
12.11.2024 03:13 21,1 °C 6,6 °C 59 % 95 % 1028,0 hPa 0,0 l/m² 8,0 km/h (2 Bft) NO 44 ° 0 min 0 W/m² 5,9 °C 5,3 °C 11,3 km/h (2 Bft)
12.11.2024 03:15 21,1 °C 6,6 °C 59 % 95 % 1028,0 hPa 0,0 l/m² 7,0 km/h (2 Bft) NO 51 ° 0 min 0 W/m² 5,9 °C 6,1 °C 12,9 km/h (3 Bft)
12.11.2024 03:17 21,1 °C 6,6 °C 59 % 95 % 1028,0 hPa 0,0 l/m² 9,4 km/h (2 Bft) NO 55 ° 0 min 0 W/m² 5,9 °C 4,2 °C 17,7 km/h (3 Bft)
12.11.2024 03:19 21,1 °C 6,6 °C 59 % 95 % 1028,0 hPa 0,0 l/m² 8,2 km/h (2 Bft) O-NO 73 ° 0 min 0 W/m² 5,9 °C 5,1 °C 14,5 km/h (3 Bft)
12.11.2024 03:20 21,1 °C 6,6 °C 59 % 95 % 1028,1 hPa 0,0 l/m² 5,9 km/h (2 Bft) NO 55 ° 0 min 0 W/m² 5,9 °C 6,6 °C 9,7 km/h (2 Bft)
12.11.2024 03:22 21,1 °C 6,6 °C 59 % 95 % 1028,1 hPa 0,0 l/m² 7,2 km/h (2 Bft) O-NO 59 ° 0 min 0 W/m² 5,9 °C 5,9 °C 17,7 km/h (3 Bft)
12.11.2024 03:24 21,2 °C 6,6 °C 59 % 95 % 1028,0 hPa 0,0 l/m² 7,7 km/h (2 Bft) O-NO 67 ° 0 min 0 W/m² 5,9 °C 5,5 °C 14,5 km/h (3 Bft)
12.11.2024 03:26 21,1 °C 6,5 °C 59 % 95 % 1028,1 hPa 0,0 l/m² 8,1 km/h (2 Bft) N-NO 25 ° 0 min 0 W/m² 5,8 °C 5,1 °C 16,1 km/h (3 Bft)
12.11.2024 03:28 21,2 °C 6,6 °C 59 % 95 % 1028,0 hPa 0,0 l/m² 5,4 km/h (2 Bft) NO 38 ° 0 min 0 W/m² 5,9 °C 6,6 °C 9,7 km/h (2 Bft)
12.11.2024 03:30 21,2 °C 6,5 °C 59 % 95 % 1028,0 hPa 0,0 l/m² 5,0 km/h (1 Bft) NO 45 ° 0 min 0 W/m² 5,8 °C 6,5 °C 9,7 km/h (2 Bft)
12.11.2024 03:31 21,1 °C 6,6 °C 59 % 95 % 1028,1 hPa 0,0 l/m² 7,5 km/h (2 Bft) O-NO 61 ° 0 min 0 W/m² 5,9 °C 5,7 °C 12,9 km/h (3 Bft)
12.11.2024 03:33 21,1 °C 6,5 °C 59 % 95 % 1028,1 hPa 0,0 l/m² 7,3 km/h (2 Bft) O-NO 71 ° 0 min 0 W/m² 5,8 °C 5,7 °C 9,7 km/h (2 Bft)
12.11.2024 03:35 21,2 °C 6,5 °C 59 % 95 % 1028,1 hPa 0,0 l/m² 5,1 km/h (1 Bft) NO 45 ° 0 min 0 W/m² 5,8 °C 6,5 °C 11,3 km/h (2 Bft)
12.11.2024 03:37 21,2 °C 6,5 °C 59 % 95 % 1028,1 hPa 0,0 l/m² 5,0 km/h (1 Bft) NO 55 ° 0 min 0 W/m² 5,8 °C 6,5 °C 9,7 km/h (2 Bft)
12.11.2024 03:39 21,2 °C 6,5 °C 59 % 95 % 1028,1 hPa 0,0 l/m² 6,6 km/h (2 Bft) O-NO 67 ° 0 min 0 W/m² 5,8 °C 6,4 °C 16,1 km/h (3 Bft)
12.11.2024 03:40 21,2 °C 6,5 °C 59 % 95 % 1028,2 hPa 0,0 l/m² 7,0 km/h (2 Bft) N-NO 24 ° 0 min 0 W/m² 5,8 °C 6,0 °C 11,3 km/h (2 Bft)
12.11.2024 03:42 21,2 °C 6,5 °C 59 % 95 % 1028,1 hPa 0,0 l/m² 5,6 km/h (2 Bft) NO 50 ° 0 min 0 W/m² 5,8 °C 6,5 °C 14,5 km/h (3 Bft)
12.11.2024 03:44 21,2 °C 6,4 °C 59 % 95 % 1028,2 hPa 0,0 l/m² 5,4 km/h (2 Bft) O-NO 75 ° 0 min 0 W/m² 5,7 °C 6,4 °C 11,3 km/h (2 Bft)
12.11.2024 03:46 21,2 °C 6,5 °C 59 % 95 % 1028,1 hPa 0,0 l/m² 6,7 km/h (2 Bft) NO 46 ° 0 min 0 W/m² 5,8 °C 6,3 °C 11,3 km/h (2 Bft)
12.11.2024 03:47 21,2 °C 6,5 °C 59 % 95 % 1028,1 hPa 0,0 l/m² 6,7 km/h (2 Bft) O-NO 78 ° 0 min 0 W/m² 5,8 °C 6,3 °C 9,7 km/h (2 Bft)
12.11.2024 03:49 21,2 °C 6,4 °C 59 % 95 % 1028,2 hPa 0,0 l/m² 6,5 km/h (2 Bft) NO 52 ° 0 min 0 W/m² 5,7 °C 6,3 °C 12,9 km/h (3 Bft)
12.11.2024 03:50 21,2 °C 6,4 °C 59 % 95 % 1028,1 hPa 0,0 l/m² 4,0 km/h (1 Bft) NO 56 ° 0 min 0 W/m² 5,7 °C 6,4 °C 11,3 km/h (2 Bft)
12.11.2024 03:51 21,2 °C 6,4 °C 59 % 95 % 1028,1 hPa 0,0 l/m² 5,0 km/h (1 Bft) O-NO 65 ° 0 min 0 W/m² 5,7 °C 6,4 °C 6,4 km/h (2 Bft)
12.11.2024 03:52 21,2 °C 6,4 °C 59 % 95 % 1028,2 hPa 0,0 l/m² 5,9 km/h (2 Bft) NO 43 ° 0 min 0 W/m² 5,7 °C 6,4 °C 14,5 km/h (3 Bft)
12.11.2024 03:54 21,2 °C 6,4 °C 59 % 95 % 1028,2 hPa 0,0 l/m² 7,3 km/h (2 Bft) O-NO 68 ° 0 min 0 W/m² 5,7 °C 5,6 °C 12,9 km/h (3 Bft)
12.11.2024 03:56 21,2 °C 6,4 °C 59 % 95 % 1028,2 hPa 0,0 l/m² 9,4 km/h (2 Bft) O-NO 63 ° 0 min 0 W/m² 5,7 °C 4,0 °C 16,1 km/h (3 Bft)
12.11.2024 03:58 21,2 °C 6,4 °C 59 % 95 % 1028,2 hPa 0,0 l/m² 13,4 km/h (3 Bft) N-NO 24 ° 0 min 0 W/m² 5,7 °C 1,6 °C 19,3 km/h (3 Bft)
12.11.2024 04:00 21,2 °C 6,4 °C 59 % 95 % 1028,2 hPa 0,0 l/m² 10,8 km/h (2 Bft) NO 53 ° 0 min 0 W/m² 5,7 °C 3,1 °C 19,3 km/h (3 Bft)
12.11.2024 04:01 21,2 °C 6,4 °C 59 % 95 % 1028,2 hPa 0,0 l/m² 12,4 km/h (2 Bft) O-NO 71 ° 0 min 0 W/m² 5,7 °C 2,1 °C 16,1 km/h (3 Bft)
12.11.2024 04:02 21,2 °C 6,4 °C 59 % 95 % 1028,2 hPa 0,0 l/m² 10,0 km/h (2 Bft) O-NO 74 ° 0 min 0 W/m² 5,7 °C 3,6 °C 14,5 km/h (3 Bft)
12.11.2024 04:03 21,2 °C 6,4 °C 59 % 95 % 1028,2 hPa 0,0 l/m² 6,6 km/h (2 Bft) NO 56 ° 0 min 0 W/m² 5,7 °C 6,3 °C 11,3 km/h (2 Bft)
12.11.2024 04:05 21,2 °C 6,4 °C 59 % 95 % 1028,2 hPa 0,0 l/m² 9,3 km/h (2 Bft) O-NO 67 ° 0 min 0 W/m² 5,7 °C 4,1 °C 16,1 km/h (3 Bft)
12.11.2024 04:06 21,2 °C 6,4 °C 59 % 95 % 1028,3 hPa 0,0 l/m² 6,8 km/h (2 Bft) O-NO 71 ° 0 min 0 W/m² 5,7 °C 6,1 °C 12,9 km/h (3 Bft)
12.11.2024 04:07 21,2 °C 6,4 °C 59 % 95 % 1028,2 hPa 0,0 l/m² 9,0 km/h (2 Bft) O 80 ° 0 min 0 W/m² 5,7 °C 4,3 °C 16,1 km/h (3 Bft)
12.11.2024 04:09 21,2 °C 6,4 °C 59 % 95 % 1028,2 hPa 0,0 l/m² 8,2 km/h (2 Bft) O-NO 64 ° 0 min 0 W/m² 5,7 °C 4,9 °C 16,1 km/h (3 Bft)
12.11.2024 04:10 21,2 °C 6,4 °C 59 % 95 % 1028,2 hPa 0,0 l/m² 10,2 km/h (2 Bft) O-NO 65 ° 0 min 0 W/m² 5,7 °C 3,5 °C 16,1 km/h (3 Bft)
12.11.2024 04:12 21,2 °C 6,4 °C 59 % 95 % 1028,3 hPa 0,0 l/m² 7,7 km/h (2 Bft) NO 34 ° 0 min 0 W/m² 5,7 °C 5,3 °C 12,9 km/h (3 Bft)
12.11.2024 04:14 21,2 °C 6,4 °C 59 % 95 % 1028,4 hPa 0,0 l/m² 7,7 km/h (2 Bft) NO 36 ° 0 min 0 W/m² 5,7 °C 5,3 °C 12,9 km/h (3 Bft)
12.11.2024 04:16 21,2 °C 6,4 °C 59 % 95 % 1028,4 hPa 0,2 l/m² 11,6 km/h (2 Bft) NO 54 ° 0 min 0 W/m² 5,7 °C 2,6 °C 17,7 km/h (3 Bft)
12.11.2024 04:18 21,2 °C 6,4 °C 59 % 95 % 1028,4 hPa 0,0 l/m² 7,8 km/h (2 Bft) NO 50 ° 0 min 0 W/m² 5,7 °C 5,2 °C 12,9 km/h (3 Bft)
12.11.2024 04:20 21,2 °C 6,4 °C 59 % 95 % 1028,4 hPa 0,0 l/m² 6,2 km/h (2 Bft) O-NO 59 ° 0 min 0 W/m² 5,7 °C 6,4 °C 14,5 km/h (3 Bft)
12.11.2024 04:21 21,2 °C 6,4 °C 59 % 95 % 1028,4 hPa 0,0 l/m² 7,3 km/h (2 Bft) O-NO 57 ° 0 min 0 W/m² 5,7 °C 5,6 °C 12,9 km/h (3 Bft)
12.11.2024 04:22 21,2 °C 6,3 °C 59 % 95 % 1028,4 hPa 0,0 l/m² 5,0 km/h (1 Bft) O-NO 64 ° 0 min 0 W/m² 5,6 °C 6,3 °C 9,7 km/h (2 Bft)
12.11.2024 04:23 21,2 °C 6,3 °C 59 % 95 % 1028,4 hPa 0,0 l/m² 9,6 km/h (2 Bft) O-NO 71 ° 0 min 0 W/m² 5,6 °C 3,8 °C 14,5 km/h (3 Bft)
12.11.2024 04:25 21,2 °C 6,3 °C 59 % 95 % 1028,4 hPa 0,0 l/m² 7,6 km/h (2 Bft) NO 54 ° 0 min 0 W/m² 5,6 °C 5,3 °C 12,9 km/h (3 Bft)
12.11.2024 04:27 21,2 °C 6,4 °C 59 % 95 % 1028,5 hPa 0,0 l/m² 6,2 km/h (2 Bft) O-NO 62 ° 0 min 0 W/m² 5,7 °C 6,4 °C 11,3 km/h (2 Bft)
12.11.2024 04:29 21,2 °C 6,3 °C 59 % 95 % 1028,4 hPa 0,0 l/m² 5,6 km/h (2 Bft) O 80 ° 0 min 0 W/m² 5,6 °C 6,3 °C 12,9 km/h (3 Bft)
12.11.2024 04:30 21,2 °C 6,4 °C 59 % 95 % 1028,5 hPa 0,0 l/m² 7,9 km/h (2 Bft) NO 48 ° 0 min 0 W/m² 5,7 °C 5,2 °C 12,9 km/h (3 Bft)
12.11.2024 04:32 21,2 °C 6,3 °C 59 % 95 % 1028,6 hPa 0,0 l/m² 8,8 km/h (2 Bft) NO 44 ° 0 min 0 W/m² 5,6 °C 4,4 °C 16,1 km/h (3 Bft)
12.11.2024 04:34 21,2 °C 6,4 °C 59 % 95 % 1028,6 hPa 0,0 l/m² 5,8 km/h (2 Bft) NO 39 ° 0 min 0 W/m² 5,7 °C 6,4 °C 11,3 km/h (2 Bft)
12.11.2024 04:36 21,2 °C 6,3 °C 59 % 95 % 1028,6 hPa 0,0 l/m² 6,1 km/h (2 Bft) O-NO 76 ° 0 min 0 W/m² 5,6 °C 6,3 °C 11,3 km/h (2 Bft)
12.11.2024 04:38 21,2 °C 6,3 °C 59 % 95 % 1028,6 hPa 0,0 l/m² 4,7 km/h (1 Bft) NO 49 ° 0 min 0 W/m² 5,6 °C 6,3 °C 11,3 km/h (2 Bft)
12.11.2024 04:40 21,2 °C 6,3 °C 59 % 95 % 1028,6 hPa 0,0 l/m² 3,5 km/h (1 Bft) O-NO 59 ° 0 min 0 W/m² 5,6 °C 6,3 °C 12,9 km/h (3 Bft)
12.11.2024 04:41 21,2 °C 6,3 °C 59 % 95 % 1028,7 hPa 0,0 l/m² 2,8 km/h (1 Bft) O-NO 69 ° 0 min 0 W/m² 5,6 °C 6,3 °C 6,4 km/h (2 Bft)
12.11.2024 04:42 21,2 °C 6,3 °C 59 % 95 % 1028,5 hPa 0,0 l/m² 5,4 km/h (2 Bft) NO 54 ° 0 min 0 W/m² 5,6 °C 6,3 °C 9,7 km/h (2 Bft)
12.11.2024 04:43 21,2 °C 6,3 °C 59 % 95 % 1028,6 hPa 0,0 l/m² 8,6 km/h (2 Bft) O-NO 59 ° 0 min 0 W/m² 5,6 °C 4,5 °C 14,5 km/h (3 Bft)
12.11.2024 04:45 21,2 °C 6,3 °C 59 % 95 % 1028,6 hPa 0,0 l/m² 7,9 km/h (2 Bft) NO 47 ° 0 min 0 W/m² 5,6 °C 5,0 °C 14,5 km/h (3 Bft)
12.11.2024 04:47 21,2 °C 6,3 °C 59 % 95 % 1028,7 hPa 0,0 l/m² 8,8 km/h (2 Bft) NO 55 ° 0 min 0 W/m² 5,6 °C 4,4 °C 16,1 km/h (3 Bft)
12.11.2024 04:49 21,2 °C 6,3 °C 59 % 95 % 1028,6 hPa 0,0 l/m² 6,7 km/h (2 Bft) O 86 ° 0 min 0 W/m² 5,6 °C 6,1 °C 16,1 km/h (3 Bft)
12.11.2024 04:50 21,2 °C 6,3 °C 59 % 95 % 1028,6 hPa 0,0 l/m² 6,3 km/h (2 Bft) O-NO 67 ° 0 min 0 W/m² 5,6 °C 6,3 °C 11,3 km/h (2 Bft)
12.11.2024 04:52 21,1 °C 6,3 °C 59 % 95 % 1028,6 hPa 0,0 l/m² 8,1 km/h (2 Bft) NO 38 ° 0 min 0 W/m² 5,6 °C 4,9 °C 14,5 km/h (3 Bft)
12.11.2024 04:54 21,2 °C 6,3 °C 59 % 95 % 1028,7 hPa 0,0 l/m² 5,4 km/h (2 Bft) O-NO 65 ° 0 min 0 W/m² 5,6 °C 6,3 °C 14,5 km/h (3 Bft)
12.11.2024 04:56 21,2 °C 6,3 °C 59 % 95 % 1028,8 hPa 0,0 l/m² 7,5 km/h (2 Bft) NO 36 ° 0 min 0 W/m² 5,6 °C 5,4 °C 16,1 km/h (3 Bft)
12.11.2024 04:58 21,2 °C 6,3 °C 59 % 95 % 1028,7 hPa 0,0 l/m² 9,3 km/h (2 Bft) O-NO 60 ° 0 min 0 W/m² 5,6 °C 4,0 °C 16,1 km/h (3 Bft)
12.11.2024 05:00 21,2 °C 6,3 °C 59 % 95 % 1028,7 hPa 0,0 l/m² 7,2 km/h (2 Bft) O 83 ° 0 min 0 W/m² 5,6 °C 5,6 °C 14,5 km/h (3 Bft)
12.11.2024 05:01 21,2 °C 6,3 °C 59 % 95 % 1028,8 hPa 0,0 l/m² 11,0 km/h (2 Bft) NO 42 ° 0 min 0 W/m² 5,6 °C 2,9 °C 17,7 km/h (3 Bft)
12.11.2024 05:02 21,2 °C 6,3 °C 59 % 95 % 1028,8 hPa 0,0 l/m² 7,4 km/h (2 Bft) NO 55 ° 0 min 0 W/m² 5,6 °C 5,5 °C 9,7 km/h (2 Bft)
12.11.2024 05:03 21,2 °C 6,3 °C 59 % 95 % 1028,8 hPa 0,0 l/m² 5,1 km/h (1 Bft) N-NO 30 ° 0 min 0 W/m² 5,6 °C 6,3 °C 8,0 km/h (2 Bft)
12.11.2024 05:05 21,2 °C 6,3 °C 59 % 95 % 1028,8 hPa 0,0 l/m² 6,9 km/h (2 Bft) NO 40 ° 0 min 0 W/m² 5,6 °C 5,9 °C 12,9 km/h (3 Bft)
12.11.2024 05:07 21,2 °C 6,3 °C 59 % 95 % 1028,9 hPa 0,0 l/m² 6,9 km/h (2 Bft) NO 55 ° 0 min 0 W/m² 5,6 °C 5,9 °C 14,5 km/h (3 Bft)
12.11.2024 05:09 21,2 °C 6,3 °C 59 % 95 % 1029,0 hPa 0,0 l/m² 7,2 km/h (2 Bft) O-NO 61 ° 0 min 0 W/m² 5,6 °C 5,6 °C 14,5 km/h (3 Bft)
12.11.2024 05:10 21,2 °C 6,3 °C 59 % 95 % 1028,9 hPa 0,0 l/m² 3,7 km/h (1 Bft) NO 36 ° 0 min 0 W/m² 5,6 °C 6,3 °C 8,0 km/h (2 Bft)
12.11.2024 05:12 21,2 °C 6,3 °C 59 % 95 % 1028,9 hPa 0,0 l/m² 6,3 km/h (2 Bft) O-NO 65 ° 0 min 0 W/m² 5,6 °C 6,3 °C 12,9 km/h (3 Bft)
12.11.2024 05:14 21,2 °C 6,3 °C 59 % 95 % 1029,0 hPa 0,0 l/m² 4,7 km/h (1 Bft) O-NO 77 ° 0 min 0 W/m² 5,6 °C 6,3 °C 8,0 km/h (2 Bft)
12.11.2024 05:16 21,2 °C 6,3 °C 59 % 95 % 1029,0 hPa 0,0 l/m² 7,1 km/h (2 Bft) NO 55 ° 0 min 0 W/m² 5,6 °C 5,7 °C 11,3 km/h (2 Bft)
12.11.2024 05:18 21,2 °C 6,3 °C 59 % 95 % 1029,0 hPa 0,0 l/m² 5,2 km/h (1 Bft) O-NO 63 ° 0 min 0 W/m² 5,6 °C 6,3 °C 8,0 km/h (2 Bft)
12.11.2024 05:20 21,2 °C 6,3 °C 59 % 95 % 1029,0 hPa 0,2 l/m² 4,6 km/h (1 Bft) O-NO 65 ° 0 min 0 W/m² 5,6 °C 6,3 °C 11,3 km/h (2 Bft)
12.11.2024 05:21 21,2 °C 6,3 °C 59 % 95 % 1029,1 hPa 0,0 l/m² 7,2 km/h (2 Bft) NO 55 ° 0 min 0 W/m² 5,6 °C 5,6 °C 9,7 km/h (2 Bft)
12.11.2024 05:22 21,2 °C 6,3 °C 59 % 95 % 1029,1 hPa 0,0 l/m² 4,8 km/h (1 Bft) O-NO 64 ° 0 min 0 W/m² 5,6 °C 6,3 °C 8,0 km/h (2 Bft)
12.11.2024 05:23 21,2 °C 6,3 °C 59 % 95 % 1029,1 hPa 0,0 l/m² 6,9 km/h (2 Bft) O-NO 75 ° 0 min 0 W/m² 5,6 °C 5,9 °C 9,7 km/h (2 Bft)
12.11.2024 05:25 21,2 °C 6,3 °C 59 % 95 % 1029,1 hPa 0,0 l/m² 5,7 km/h (2 Bft) O-NO 76 ° 0 min 0 W/m² 5,6 °C 6,3 °C 11,3 km/h (2 Bft)
12.11.2024 05:27 21,2 °C 6,3 °C 59 % 95 % 1029,1 hPa 0,0 l/m² 5,1 km/h (1 Bft) O 90 ° 0 min 0 W/m² 5,6 °C 6,3 °C 11,3 km/h (2 Bft)
12.11.2024 05:29 21,2 °C 6,3 °C 59 % 95 % 1029,1 hPa 0,0 l/m² 9,8 km/h (2 Bft) O-NO 72 ° 0 min 0 W/m² 5,6 °C 3,6 °C 16,1 km/h (3 Bft)
12.11.2024 05:30 21,2 °C 6,3 °C 59 % 95 % 1029,2 hPa 0,0 l/m² 6,9 km/h (2 Bft) O-NO 74 ° 0 min 0 W/m² 5,6 °C 5,9 °C 12,9 km/h (3 Bft)
12.11.2024 05:31 21,2 °C 6,3 °C 59 % 95 % 1029,2 hPa 0,0 l/m² 4,6 km/h (1 Bft) O-NO 59 ° 0 min 0 W/m² 5,6 °C 6,3 °C 8,0 km/h (2 Bft)
12.11.2024 05:32 21,2 °C 6,3 °C 59 % 95 % 1029,2 hPa 0,0 l/m² 2,9 km/h (1 Bft) O 83 ° 0 min 0 W/m² 5,6 °C 6,3 °C 4,8 km/h (1 Bft)
12.11.2024 05:34 21,2 °C 6,3 °C 59 % 95 % 1029,2 hPa 0,0 l/m² 5,2 km/h (1 Bft) O 82 ° 0 min 0 W/m² 5,6 °C 6,3 °C 11,3 km/h (2 Bft)
12.11.2024 05:36 21,2 °C 6,3 °C 59 % 95 % 1029,2 hPa 0,0 l/m² 4,0 km/h (1 Bft) O-NO 63 ° 0 min 0 W/m² 5,6 °C 6,3 °C 8,0 km/h (2 Bft)
12.11.2024 05:38 21,2 °C 6,2 °C 59 % 95 % 1029,2 hPa 0,0 l/m² 5,5 km/h (2 Bft) O-NO 65 ° 0 min 0 W/m² 5,5 °C 6,2 °C 9,7 km/h (2 Bft)
12.11.2024 05:40 21,2 °C 6,3 °C 59 % 95 % 1029,2 hPa 0,0 l/m² 3,6 km/h (1 Bft) O-NO 68 ° 0 min 0 W/m² 5,6 °C 6,3 °C 6,4 km/h (2 Bft)
12.11.2024 05:41 21,2 °C 6,2 °C 59 % 95 % 1029,3 hPa 0,0 l/m² 6,1 km/h (2 Bft) O-NO 69 ° 0 min 0 W/m² 5,5 °C 6,2 °C 9,7 km/h (2 Bft)
12.11.2024 05:42 21,2 °C 6,3 °C 59 % 95 % 1029,3 hPa 0,0 l/m² 5,7 km/h (2 Bft) O 81 ° 0 min 0 W/m² 5,6 °C 6,3 °C 9,7 km/h (2 Bft)
12.11.2024 05:43 21,2 °C 6,2 °C 59 % 95 % 1029,3 hPa 0,0 l/m² 3,3 km/h (1 Bft) O-NO 78 ° 0 min 0 W/m² 5,5 °C 6,2 °C 4,8 km/h (1 Bft)
12.11.2024 05:45 21,2 °C 6,2 °C 59 % 95 % 1029,2 hPa 0,0 l/m² 5,4 km/h (2 Bft) O-NO 71 ° 0 min 0 W/m² 5,5 °C 6,2 °C 11,3 km/h (2 Bft)
12.11.2024 05:47 21,2 °C 6,2 °C 59 % 95 % 1029,3 hPa 0,0 l/m² 3,5 km/h (1 Bft) O-NO 71 ° 0 min 0 W/m² 5,5 °C 6,2 °C 8,0 km/h (2 Bft)
12.11.2024 05:49 21,2 °C 6,2 °C 59 % 95 % 1029,3 hPa 0,0 l/m² 2,6 km/h (1 Bft) O-NO 71 ° 0 min 0 W/m² 5,5 °C 6,2 °C 4,8 km/h (1 Bft)
12.11.2024 05:51 21,2 °C 6,2 °C 59 % 95 % 1029,3 hPa 0,0 l/m² 3,4 km/h (1 Bft) O-NO 67 ° 0 min 0 W/m² 5,5 °C 6,2 °C 6,4 km/h (2 Bft)
12.11.2024 05:52 21,2 °C 6,2 °C 59 % 95 % 1029,3 hPa 0,0 l/m² 1,0 km/h (0 Bft) O-NO 67 ° 0 min 0 W/m² 5,5 °C 6,2 °C 3,2 km/h (1 Bft)
12.11.2024 05:53 21,2 °C 6,2 °C 59 % 95 % 1029,3 hPa 0,0 l/m² 2,3 km/h (1 Bft) O-NO 63 ° 0 min 0 W/m² 5,5 °C 6,2 °C 6,4 km/h (2 Bft)
12.11.2024 05:54 21,2 °C 6,2 °C 59 % 95 % 1029,3 hPa 0,0 l/m² 3,6 km/h (1 Bft) O-NO 65 ° 0 min 0 W/m² 5,5 °C 6,2 °C 6,4 km/h (2 Bft)
12.11.2024 05:56 21,2 °C 6,2 °C 59 % 95 % 1029,5 hPa 0,2 l/m² 2,0 km/h (1 Bft) NO 54 ° 0 min 0 W/m² 5,5 °C 6,2 °C 4,8 km/h (1 Bft)
12.11.2024 05:58 21,2 °C 6,2 °C 59 % 95 % 1029,5 hPa 0,0 l/m² 0,5 km/h (0 Bft) NO 54 ° 0 min 0 W/m² 5,5 °C 6,2 °C 1,6 km/h (1 Bft)
12.11.2024 06:00 21,2 °C 6,2 °C 59 % 95 % 1029,5 hPa 0,0 l/m² 0,3 km/h (0 Bft) NO 54 ° 0 min 0 W/m² 5,5 °C 6,2 °C 1,6 km/h (1 Bft)
12.11.2024 06:01 21,2 °C 6,2 °C 59 % 95 % 1029,5 hPa 0,0 l/m² 1,6 km/h (1 Bft) NO 53 ° 0 min 0 W/m² 5,5 °C 6,2 °C 4,8 km/h (1 Bft)
12.11.2024 06:02 21,1 °C 6,2 °C 59 % 95 % 1029,5 hPa 0,0 l/m² 0,0 km/h (0 Bft) NO 53 ° 0 min 0 W/m² 5,5 °C 6,2 °C 0,0 km/h (0 Bft)
12.11.2024 06:03 21,1 °C 6,2 °C 59 % 95 % 1029,5 hPa 0,0 l/m² 1,0 km/h (0 Bft) NO 53 ° 0 min 0 W/m² 5,5 °C 6,2 °C 3,2 km/h (1 Bft)
12.11.2024 06:05 21,2 °C 6,2 °C 59 % 95 % 1029,5 hPa 0,0 l/m² 1,6 km/h (1 Bft) NO 53 ° 0 min 0 W/m² 5,5 °C 6,2 °C 4,8 km/h (1 Bft)
12.11.2024 06:07 21,1 °C 6,2 °C 59 % 95 % 1029,5 hPa 0,0 l/m² 0,5 km/h (0 Bft) NO 53 ° 0 min 0 W/m² 5,5 °C 6,2 °C 3,2 km/h (1 Bft)
12.11.2024 06:09 21,2 °C 6,2 °C 59 % 95 % 1029,6 hPa 0,0 l/m² 2,0 km/h (1 Bft) O-NO 57 ° 0 min 0 W/m² 5,5 °C 6,2 °C 4,8 km/h (1 Bft)
12.11.2024 06:10 21,2 °C 6,2 °C 59 % 95 % 1029,6 hPa 0,0 l/m² 4,1 km/h (1 Bft) NO 49 ° 0 min 0 W/m² 5,5 °C 6,2 °C 6,4 km/h (2 Bft)
12.11.2024 06:11 21,2 °C 6,2 °C 59 % 95 % 1029,6 hPa 0,0 l/m² 0,1 km/h (0 Bft) NO 49 ° 0 min 0 W/m² 5,5 °C 6,2 °C 1,6 km/h (1 Bft)
12.11.2024 06:12 21,2 °C 6,2 °C 59 % 95 % 1029,6 hPa 0,0 l/m² 0,5 km/h (0 Bft) NO 49 ° 0 min 0 W/m² 5,5 °C 6,2 °C 1,6 km/h (1 Bft)
12.11.2024 06:14 21,2 °C 6,2 °C 59 % 95 % 1029,6 hPa 0,0 l/m² 2,8 km/h (1 Bft) O-NO 65 ° 0 min 0 W/m² 5,5 °C 6,2 °C 6,4 km/h (2 Bft)
12.11.2024 06:16 21,2 °C 6,2 °C 59 % 95 % 1029,7 hPa 0,0 l/m² 1,8 km/h (1 Bft) O 80 ° 0 min 0 W/m² 5,5 °C 6,2 °C 6,4 km/h (2 Bft)
12.11.2024 06:18 21,2 °C 6,2 °C 59 % 95 % 1029,7 hPa 0,0 l/m² 2,5 km/h (1 Bft) NO 37 ° 0 min 0 W/m² 5,5 °C 6,2 °C 6,4 km/h (2 Bft)
12.11.2024 06:20 21,2 °C 6,2 °C 59 % 95 % 1029,7 hPa 0,0 l/m² 5,2 km/h (1 Bft) O-NO 57 ° 0 min 0 W/m² 5,5 °C 6,2 °C 8,0 km/h (2 Bft)
12.11.2024 06:21 21,2 °C 6,2 °C 59 % 95 % 1029,7 hPa 0,0 l/m² 2,0 km/h (1 Bft) NO 56 ° 0 min 0 W/m² 5,5 °C 6,2 °C 3,2 km/h (1 Bft)
12.11.2024 06:23 21,1 °C 6,2 °C 59 % 95 % 1029,8 hPa 0,0 l/m² 1,4 km/h (1 Bft) NO 53 ° 0 min 0 W/m² 5,5 °C 6,2 °C 4,8 km/h (1 Bft)
12.11.2024 06:25 21,2 °C 6,2 °C 59 % 95 % 1029,8 hPa 0,0 l/m² 1,2 km/h (1 Bft) NO 51 ° 0 min 0 W/m² 5,5 °C 6,2 °C 3,2 km/h (1 Bft)
12.11.2024 06:27 21,2 °C 6,2 °C 59 % 95 % 1029,8 hPa 0,0 l/m² 1,6 km/h (1 Bft) NO 53 ° 0 min 0 W/m² 5,5 °C 6,2 °C 8,0 km/h (2 Bft)
12.11.2024 06:29 21,2 °C 6,2 °C 59 % 95 % 1029,8 hPa 0,0 l/m² 3,4 km/h (1 Bft) N-NO 17 ° 0 min 0 W/m² 5,5 °C 6,2 °C 8,0 km/h (2 Bft)
12.11.2024 06:31 21,2 °C 6,2 °C 59 % 95 % 1029,8 hPa 0,0 l/m² 2,6 km/h (1 Bft) NO 53 ° 0 min 0 W/m² 5,5 °C 6,2 °C 6,4 km/h (2 Bft)
12.11.2024 06:33 21,1 °C 6,2 °C 59 % 95 % 1029,9 hPa 0,0 l/m² 2,1 km/h (1 Bft) NO 34 ° 0 min 0 W/m² 5,5 °C 6,2 °C 6,4 km/h (2 Bft)
12.11.2024 06:35 21,2 °C 6,2 °C 59 % 95 % 1029,9 hPa 0,0 l/m² 5,1 km/h (1 Bft) N-NO 26 ° 0 min 0 W/m² 5,5 °C 6,2 °C 9,7 km/h (2 Bft)
12.11.2024 06:37 21,2 °C 6,2 °C 59 % 95 % 1029,8 hPa 0,0 l/m² 4,0 km/h (1 Bft) N-NO 21 ° 0 min 0 W/m² 5,5 °C 6,2 °C 8,0 km/h (2 Bft)
12.11.2024 06:39 21,2 °C 6,2 °C 59 % 95 % 1029,9 hPa 0,0 l/m² 4,2 km/h (1 Bft) N-NO 18 ° 0 min 0 W/m² 5,5 °C 6,2 °C 8,0 km/h (2 Bft)
12.11.2024 06:41 21,2 °C 6,2 °C 59 % 95 % 1030,0 hPa 0,0 l/m² 2,1 km/h (1 Bft) N-NO 23 ° 0 min 0 W/m² 5,5 °C 6,2 °C 6,4 km/h (2 Bft)
12.11.2024 06:43 21,2 °C 6,2 °C 59 % 95 % 1030,0 hPa 0,0 l/m² 2,8 km/h (1 Bft) NO 35 ° 0 min 0 W/m² 5,5 °C 6,2 °C 6,4 km/h (2 Bft)
12.11.2024 06:45 21,1 °C 6,2 °C 59 % 95 % 1030,0 hPa 0,0 l/m² 0,9 km/h (0 Bft) N-NO 32 ° 0 min 0 W/m² 5,5 °C 6,2 °C 3,2 km/h (1 Bft)
12.11.2024 06:46 21,2 °C 6,2 °C 59 % 95 % 1030,0 hPa 0,0 l/m² 3,2 km/h (1 Bft) N-NO 32 ° 0 min 0 W/m² 5,5 °C 6,2 °C 3,2 km/h (1 Bft)
12.11.2024 06:47 21,2 °C 6,2 °C 59 % 95 % 1030,1 hPa 0,0 l/m² 2,0 km/h (1 Bft) N-NO 33 ° 0 min 0 W/m² 5,5 °C 6,2 °C 4,8 km/h (1 Bft)
12.11.2024 06:48 21,2 °C 6,2 °C 59 % 95 % 1030,1 hPa 0,0 l/m² 4,9 km/h (1 Bft) NO 38 ° 0 min 0 W/m² 5,5 °C 6,2 °C 8,0 km/h (2 Bft)
12.11.2024 06:50 21,2 °C 6,2 °C 59 % 95 % 1030,0 hPa 0,0 l/m² 3,9 km/h (1 Bft) N-NO 32 ° 0 min 0 W/m² 5,5 °C 6,2 °C 8,0 km/h (2 Bft)
12.11.2024 06:52 21,2 °C 6,2 °C 59 % 95 % 1030,1 hPa 0,0 l/m² 2,7 km/h (1 Bft) NO 40 ° 0 min 0 W/m² 5,5 °C 6,2 °C 8,0 km/h (2 Bft)
12.11.2024 06:54 21,2 °C 6,2 °C 59 % 95 % 1030,1 hPa 0,0 l/m² 2,8 km/h (1 Bft) N-NO 26 ° 0 min 0 W/m² 5,5 °C 6,2 °C 6,4 km/h (2 Bft)
12.11.2024 06:56 21,2 °C 6,2 °C 59 % 95 % 1030,0 hPa 0,0 l/m² 3,0 km/h (1 Bft) N-NO 31 ° 0 min 0 W/m² 5,5 °C 6,2 °C 6,4 km/h (2 Bft)
12.11.2024 06:58 21,2 °C 6,2 °C 59 % 95 % 1030,1 hPa 0,0 l/m² 4,4 km/h (1 Bft) N-NO 25 ° 0 min 0 W/m² 5,5 °C 6,2 °C 6,4 km/h (2 Bft)
12.11.2024 07:00 21,2 °C 6,2 °C 59 % 95 % 1030,1 hPa 0,0 l/m² 2,4 km/h (1 Bft) NO 40 ° 0 min 0 W/m² 5,5 °C 6,2 °C 6,4 km/h (2 Bft)
12.11.2024 07:02 21,2 °C 6,1 °C 59 % 95 % 1030,2 hPa 0,0 l/m² 2,8 km/h (1 Bft) N 5 ° 0 min 0 W/m² 5,4 °C 6,1 °C 6,4 km/h (2 Bft)
12.11.2024 07:04 21,2 °C 6,2 °C 58 % 95 % 1030,1 hPa 0,0 l/m² 1,3 km/h (1 Bft) NO 39 ° 0 min 0 W/m² 5,5 °C 6,2 °C 4,8 km/h (1 Bft)
12.11.2024 07:06 21,2 °C 6,2 °C 58 % 95 % 1030,2 hPa 0,0 l/m² 3,0 km/h (1 Bft) NO 46 ° 0 min 0 W/m² 5,5 °C 6,2 °C 9,7 km/h (2 Bft)
12.11.2024 07:08 21,2 °C 6,1 °C 58 % 95 % 1030,2 hPa 0,0 l/m² 2,8 km/h (1 Bft) N-NW 346 ° 0 min 0 W/m² 5,4 °C 6,1 °C 6,4 km/h (2 Bft)
12.11.2024 07:10 21,2 °C 6,1 °C 58 % 95 % 1030,2 hPa 0,0 l/m² 4,8 km/h (1 Bft) N-NO 26 ° 0 min 0 W/m² 5,4 °C 6,1 °C 9,7 km/h (2 Bft)
12.11.2024 07:12 21,2 °C 6,1 °C 58 % 95 % 1030,3 hPa 0,0 l/m² 3,8 km/h (1 Bft) N-NO 19 ° 0 min 0 W/m² 5,4 °C 6,1 °C 8,0 km/h (2 Bft)
12.11.2024 07:14 21,2 °C 6,1 °C 58 % 95 % 1030,3 hPa 0,0 l/m² 1,7 km/h (1 Bft) NO 48 ° 0 min 0 W/m² 5,4 °C 6,1 °C 4,8 km/h (1 Bft)
12.11.2024 07:16 21,1 °C 6,2 °C 58 % 95 % 1030,2 hPa 0,0 l/m² 1,5 km/h (1 Bft) NO 39 ° 0 min 0 W/m² 5,5 °C 6,2 °C 4,8 km/h (1 Bft)
12.11.2024 07:17 21,2 °C 6,1 °C 58 % 95 % 1030,3 hPa 0,0 l/m² 0,0 km/h (0 Bft) NO 39 ° 0 min 0 W/m² 5,4 °C 6,1 °C 0,0 km/h (0 Bft)
12.11.2024 07:18 21,2 °C 6,1 °C 58 % 95 % 1030,4 hPa 0,0 l/m² 2,2 km/h (1 Bft) NO 51 ° 0 min 0 W/m² 5,4 °C 6,1 °C 4,8 km/h (1 Bft)
12.11.2024 07:20 21,2 °C 6,1 °C 58 % 95 % 1030,4 hPa 0,0 l/m² 5,7 km/h (2 Bft) N-NO 32 ° 0 min 0 W/m² 5,4 °C 6,1 °C 14,5 km/h (3 Bft)
12.11.2024 07:22 21,2 °C 6,1 °C 58 % 95 % 1030,3 hPa 0,0 l/m² 5,3 km/h (1 Bft) NO 48 ° 0 min 0 W/m² 5,4 °C 6,1 °C 9,7 km/h (2 Bft)
12.11.2024 07:24 21,2 °C 6,1 °C 58 % 95 % 1030,4 hPa 0,0 l/m² 1,8 km/h (1 Bft) NO 55 ° 0 min 0 W/m² 5,4 °C 6,1 °C 8,0 km/h (2 Bft)
12.11.2024 07:26 21,1 °C 6,1 °C 57 % 95 % 1030,4 hPa 0,0 l/m² 6,3 km/h (2 Bft) O-NO 59 ° 0 min 0 W/m² 5,4 °C 6,1 °C 11,3 km/h (2 Bft)
12.11.2024 07:28 21,2 °C 6,1 °C 58 % 95 % 1030,4 hPa 0,0 l/m² 6,1 km/h (2 Bft) O-NO 58 ° 0 min 0 W/m² 5,4 °C 6,1 °C 11,3 km/h (2 Bft)
12.11.2024 07:30 21,2 °C 6,1 °C 58 % 95 % 1030,5 hPa 0,0 l/m² 1,7 km/h (1 Bft) NO 55 ° 0 min 0 W/m² 5,4 °C 6,1 °C 6,4 km/h (2 Bft)
12.11.2024 07:32 21,2 °C 6,1 °C 58 % 95 % 1030,6 hPa 0,0 l/m² 5,5 km/h (2 Bft) NO 38 ° 0 min 0 W/m² 5,4 °C 6,1 °C 12,9 km/h (3 Bft)
12.11.2024 07:34 21,2 °C 6,0 °C 58 % 95 % 1030,5 hPa 0,0 l/m² 7,6 km/h (2 Bft) N-NO 32 ° 0 min 0 W/m² 5,3 °C 5,0 °C 14,5 km/h (3 Bft)
12.11.2024 07:36 21,2 °C 6,0 °C 58 % 95 % 1030,6 hPa 0,0 l/m² 7,4 km/h (2 Bft) O-NO 61 ° 0 min 0 W/m² 5,3 °C 5,1 °C 14,5 km/h (3 Bft)
12.11.2024 07:38 21,2 °C 6,0 °C 58 % 95 % 1030,6 hPa 0,0 l/m² 7,9 km/h (2 Bft) NO 44 ° 0 min 0 W/m² 5,3 °C 4,7 °C 16,1 km/h (3 Bft)
12.11.2024 07:40 21,2 °C 5,9 °C 58 % 95 % 1030,6 hPa 0,0 l/m² 5,1 km/h (1 Bft) NO 34 ° 0 min 0 W/m² 5,2 °C 5,9 °C 14,5 km/h (3 Bft)
12.11.2024 07:42 21,2 °C 5,9 °C 58 % 95 % 1030,6 hPa 0,2 l/m² 5,7 km/h (2 Bft) N-NO 28 ° 0 min 0 W/m² 5,2 °C 5,9 °C 9,7 km/h (2 Bft)
12.11.2024 07:44 21,2 °C 5,9 °C 58 % 95 % 1030,7 hPa 0,0 l/m² 6,5 km/h (2 Bft) NO 43 ° 0 min 0 W/m² 5,2 °C 5,8 °C 16,1 km/h (3 Bft)
12.11.2024 07:46 21,2 °C 5,9 °C 58 % 95 % 1030,7 hPa 0,0 l/m² 8,1 km/h (2 Bft) N-NO 15 ° 0 min 0 W/m² 5,2 °C 4,5 °C 16,1 km/h (3 Bft)
12.11.2024 07:48 21,2 °C 5,9 °C 58 % 95 % 1030,7 hPa 0,0 l/m² 4,7 km/h (1 Bft) NO 39 ° 0 min 0 W/m² 5,2 °C 5,9 °C 12,9 km/h (3 Bft)
12.11.2024 07:50 21,2 °C 5,9 °C 58 % 95 % 1030,8 hPa 0,0 l/m² 2,0 km/h (1 Bft) N-NO 16 ° 0 min 0 W/m² 5,2 °C 5,9 °C 6,4 km/h (2 Bft)
12.11.2024 07:52 21,2 °C 5,9 °C 58 % 95 % 1030,8 hPa 0,0 l/m² 3,5 km/h (1 Bft) N-NO 23 ° 0 min 0 W/m² 5,2 °C 5,9 °C 6,4 km/h (2 Bft)
12.11.2024 07:54 21,2 °C 5,9 °C 58 % 95 % 1030,9 hPa 0,0 l/m² 2,2 km/h (1 Bft) N-NO 26 ° 0 min 0 W/m² 5,2 °C 5,9 °C 6,4 km/h (2 Bft)
12.11.2024 07:56 21,2 °C 5,9 °C 58 % 95 % 1030,9 hPa 0,0 l/m² 1,6 km/h (1 Bft) N-NO 26 ° 0 min 5 W/m² 5,2 °C 5,9 °C 4,8 km/h (1 Bft)
12.11.2024 07:58 21,2 °C 5,9 °C 58 % 95 % 1030,9 hPa 0,0 l/m² 5,5 km/h (2 Bft) NO 42 ° 0 min 5 W/m² 5,2 °C 5,9 °C 11,3 km/h (2 Bft)
12.11.2024 08:00 21,2 °C 5,9 °C 58 % 95 % 1030,8 hPa 0,0 l/m² 7,0 km/h (2 Bft) NO 34 ° 0 min 5 W/m² 5,2 °C 5,4 °C 14,5 km/h (3 Bft)
12.11.2024 08:02 21,2 °C 5,9 °C 58 % 95 % 1030,9 hPa 0,0 l/m² 4,4 km/h (1 Bft) N-NO 25 ° 0 min 5 W/m² 5,2 °C 5,9 °C 9,7 km/h (2 Bft)
12.11.2024 08:04 21,2 °C 5,9 °C 58 % 95 % 1030,9 hPa 0,0 l/m² 3,3 km/h (1 Bft) NO 55 ° 0 min 5 W/m² 5,2 °C 5,9 °C 6,4 km/h (2 Bft)
12.11.2024 08:06 21,2 °C 5,9 °C 58 % 95 % 1031,0 hPa 0,0 l/m² 0,6 km/h (0 Bft) NO 55 ° 0 min 5 W/m² 5,2 °C 5,9 °C 3,2 km/h (1 Bft)
12.11.2024 08:08 21,2 °C 5,9 °C 58 % 95 % 1030,9 hPa 0,0 l/m² 2,6 km/h (1 Bft) O-NO 57 ° 0 min 0 W/m² 5,2 °C 5,9 °C 6,4 km/h (2 Bft)
12.11.2024 08:10 21,2 °C 5,9 °C 58 % 95 % 1031,0 hPa 0,0 l/m² 3,4 km/h (1 Bft) N-NO 23 ° 0 min 5 W/m² 5,2 °C 5,9 °C 8,0 km/h (2 Bft)
12.11.2024 08:12 21,2 °C 5,9 °C 58 % 95 % 1031,0 hPa 0,0 l/m² 4,8 km/h (1 Bft) N-NO 19 ° 0 min 5 W/m² 5,2 °C 5,9 °C 9,7 km/h (2 Bft)
12.11.2024 08:14 21,2 °C 5,9 °C 58 % 95 % 1031,1 hPa 0,0 l/m² 3,3 km/h (1 Bft) N-NO 22 ° 0 min 5 W/m² 5,2 °C 5,9 °C 6,4 km/h (2 Bft)
12.11.2024 08:16 21,2 °C 5,9 °C 58 % 95 % 1031,1 hPa 0,0 l/m² 3,4 km/h (1 Bft) O-NO 57 ° 0 min 7 W/m² 5,2 °C 5,9 °C 9,7 km/h (2 Bft)
12.11.2024 08:18 21,2 °C 5,8 °C 58 % 95 % 1031,1 hPa 0,0 l/m² 5,2 km/h (1 Bft) NO 46 ° 0 min 7 W/m² 5,1 °C 5,8 °C 8,0 km/h (2 Bft)
12.11.2024 08:20 21,2 °C 5,9 °C 58 % 95 % 1031,1 hPa 0,0 l/m² 3,6 km/h (1 Bft) NO 50 ° 0 min 7 W/m² 5,2 °C 5,9 °C 9,7 km/h (2 Bft)
12.11.2024 08:22 21,2 °C 5,9 °C 58 % 95 % 1031,2 hPa 0,0 l/m² 2,8 km/h (1 Bft) NO 46 ° 0 min 7 W/m² 5,2 °C 5,9 °C 4,8 km/h (1 Bft)
12.11.2024 08:24 21,2 °C 5,9 °C 58 % 95 % 1031,2 hPa 0,0 l/m² 0,8 km/h (0 Bft) NO 45 ° 0 min 7 W/m² 5,2 °C 5,9 °C 3,2 km/h (1 Bft)
12.11.2024 08:26 21,2 °C 5,9 °C 58 % 95 % 1031,1 hPa 0,0 l/m² 2,5 km/h (1 Bft) NO 51 ° 0 min 9 W/m² 5,2 °C 5,9 °C 4,8 km/h (1 Bft)
12.11.2024 08:28 21,2 °C 5,8 °C 58 % 95 % 1031,1 hPa 0,0 l/m² 7,2 km/h (2 Bft) O-NO 69 ° 0 min 9 W/m² 5,1 °C 5,1 °C 16,1 km/h (3 Bft)
12.11.2024 08:30 21,2 °C 5,8 °C 58 % 95 % 1031,2 hPa 0,0 l/m² 5,7 km/h (2 Bft) NO 54 ° 0 min 11 W/m² 5,1 °C 5,8 °C 11,3 km/h (2 Bft)
12.11.2024 08:32 21,2 °C 5,8 °C 58 % 95 % 1031,2 hPa 0,0 l/m² 5,0 km/h (1 Bft) O-NO 75 ° 0 min 11 W/m² 5,1 °C 5,8 °C 11,3 km/h (2 Bft)
12.11.2024 08:34 21,2 °C 5,8 °C 58 % 95 % 1031,2 hPa 0,0 l/m² 6,5 km/h (2 Bft) O-NO 65 ° 0 min 11 W/m² 5,1 °C 5,7 °C 12,9 km/h (3 Bft)
12.11.2024 08:36 21,2 °C 5,8 °C 58 % 95 % 1031,2 hPa 0,0 l/m² 6,8 km/h (2 Bft) O-NO 57 ° 0 min 12 W/m² 5,1 °C 5,5 °C 14,5 km/h (3 Bft)
12.11.2024 08:38 21,2 °C 5,8 °C 58 % 95 % 1031,2 hPa 0,0 l/m² 5,9 km/h (2 Bft) NO 44 ° 0 min 14 W/m² 5,1 °C 5,8 °C 11,3 km/h (2 Bft)
12.11.2024 08:40 21,2 °C 5,8 °C 58 % 95 % 1031,2 hPa 0,0 l/m² 9,2 km/h (2 Bft) O-NO 78 ° 0 min 16 W/m² 5,1 °C 3,5 °C 14,5 km/h (3 Bft)
12.11.2024 08:42 21,2 °C 5,8 °C 58 % 95 % 1031,3 hPa 0,0 l/m² 5,4 km/h (2 Bft) O-NO 57 ° 0 min 18 W/m² 5,1 °C 5,8 °C 8,0 km/h (2 Bft)
12.11.2024 08:44 21,2 °C 5,7 °C 58 % 95 % 1031,3 hPa 0,0 l/m² 5,9 km/h (2 Bft) N-NO 19 ° 0 min 19 W/m² 5,0 °C 5,7 °C 9,7 km/h (2 Bft)
12.11.2024 08:46 21,2 °C 5,7 °C 58 % 95 % 1031,3 hPa 0,0 l/m² 3,1 km/h (1 Bft) NO 44 ° 0 min 19 W/m² 5,0 °C 5,7 °C 8,0 km/h (2 Bft)
12.11.2024 08:48 21,2 °C 5,7 °C 58 % 95 % 1031,3 hPa 0,0 l/m² 5,5 km/h (2 Bft) O 80 ° 0 min 19 W/m² 5,0 °C 5,7 °C 9,7 km/h (2 Bft)
12.11.2024 08:50 21,2 °C 5,7 °C 58 % 95 % 1031,4 hPa 0,0 l/m² 4,1 km/h (1 Bft) NO 53 ° 0 min 18 W/m² 5,0 °C 5,7 °C 8,0 km/h (2 Bft)
12.11.2024 08:52 21,2 °C 5,7 °C 58 % 95 % 1031,4 hPa 0,0 l/m² 7,4 km/h (2 Bft) O-NO 68 ° 0 min 16 W/m² 5,0 °C 4,8 °C 14,5 km/h (3 Bft)
12.11.2024 08:54 21,2 °C 5,7 °C 58 % 95 % 1031,4 hPa 0,0 l/m² 8,3 km/h (2 Bft) O-NO 65 ° 0 min 18 W/m² 5,0 °C 4,1 °C 14,5 km/h (3 Bft)
12.11.2024 08:56 21,2 °C 5,7 °C 58 % 95 % 1031,4 hPa 0,0 l/m² 3,4 km/h (1 Bft) O 80 ° 0 min 19 W/m² 5,0 °C 5,7 °C 8,0 km/h (2 Bft)
12.11.2024 08:58 21,2 °C 5,7 °C 58 % 95 % 1031,4 hPa 0,0 l/m² 5,8 km/h (2 Bft) O-NO 57 ° 0 min 21 W/m² 5,0 °C 5,7 °C 11,3 km/h (2 Bft)
12.11.2024 09:00 21,2 °C 5,7 °C 58 % 95 % 1031,4 hPa 0,0 l/m² 3,6 km/h (1 Bft) O-NO 57 ° 0 min 25 W/m² 5,0 °C 5,7 °C 6,4 km/h (2 Bft)
12.11.2024 09:01 21,2 °C 5,7 °C 58 % 95 % 1031,5 hPa 0,0 l/m² 5,9 km/h (2 Bft) NO 45 ° 0 min 26 W/m² 5,0 °C 5,7 °C 9,7 km/h (2 Bft)
12.11.2024 09:02 21,2 °C 5,7 °C 58 % 95 % 1031,5 hPa 0,0 l/m² 5,2 km/h (1 Bft) N-NO 26 ° 0 min 30 W/m² 5,0 °C 5,7 °C 9,7 km/h (2 Bft)
12.11.2024 09:04 21,2 °C 5,7 °C 58 % 95 % 1031,5 hPa 0,0 l/m² 3,3 km/h (1 Bft) NO 43 ° 0 min 33 W/m² 5,0 °C 5,7 °C 9,7 km/h (2 Bft)
12.11.2024 09:06 21,2 °C 5,7 °C 58 % 95 % 1031,4 hPa 0,0 l/m² 7,9 km/h (2 Bft) O-NO 71 ° 0 min 33 W/m² 5,0 °C 4,4 °C 16,1 km/h (3 Bft)
12.11.2024 09:08 21,2 °C 5,7 °C 58 % 95 % 1031,5 hPa 0,0 l/m² 7,6 km/h (2 Bft) O-NO 60 ° 0 min 33 W/m² 5,0 °C 4,7 °C 14,5 km/h (3 Bft)
12.11.2024 09:10 21,2 °C 5,7 °C 58 % 95 % 1031,5 hPa 0,0 l/m² 5,3 km/h (1 Bft) O-NO 77 ° 0 min 33 W/m² 5,0 °C 5,7 °C 11,3 km/h (2 Bft)
12.11.2024 09:11 21,2 °C 5,7 °C 58 % 95 % 1031,6 hPa 0,0 l/m² 6,9 km/h (2 Bft) O-NO 57 ° 0 min 33 W/m² 5,0 °C 5,3 °C 11,3 km/h (2 Bft)
12.11.2024 09:12 21,2 °C 5,7 °C 58 % 95 % 1031,6 hPa 0,0 l/m² 7,6 km/h (2 Bft) N 5 ° 0 min 32 W/m² 5,0 °C 4,7 °C 12,9 km/h (3 Bft)
12.11.2024 09:13 21,2 °C 5,7 °C 58 % 95 % 1031,6 hPa 0,0 l/m² 5,2 km/h (1 Bft) O-NO 63 ° 0 min 30 W/m² 5,0 °C 5,7 °C 8,0 km/h (2 Bft)
12.11.2024 09:15 21,2 °C 5,7 °C 58 % 95 % 1031,6 hPa 0,0 l/m² 6,2 km/h (2 Bft) NO 43 ° 0 min 30 W/m² 5,0 °C 5,7 °C 12,9 km/h (3 Bft)
12.11.2024 09:17 21,2 °C 5,7 °C 58 % 95 % 1031,6 hPa 0,0 l/m² 5,2 km/h (1 Bft) NO 43 ° 0 min 30 W/m² 5,0 °C 5,7 °C 9,7 km/h (2 Bft)
12.11.2024 09:19 21,2 °C 5,7 °C 58 % 95 % 1031,6 hPa 0,0 l/m² 4,8 km/h (1 Bft) NO 39 ° 0 min 33 W/m² 5,0 °C 5,7 °C 11,3 km/h (2 Bft)
12.11.2024 09:21 21,2 °C 5,7 °C 58 % 95 % 1031,6 hPa 0,0 l/m² 6,3 km/h (2 Bft) O-NO 61 ° 0 min 37 W/m² 5,0 °C 5,7 °C 9,7 km/h (2 Bft)
12.11.2024 09:23 21,2 °C 5,7 °C 58 % 95 % 1031,6 hPa 0,0 l/m² 2,4 km/h (1 Bft) NO 39 ° 0 min 39 W/m² 5,0 °C 5,7 °C 8,0 km/h (2 Bft)
12.11.2024 09:25 21,2 °C 5,7 °C 58 % 95 % 1031,7 hPa 0,0 l/m² 5,9 km/h (2 Bft) O 83 ° 0 min 37 W/m² 5,0 °C 5,7 °C 14,5 km/h (3 Bft)
12.11.2024 09:27 21,2 °C 5,7 °C 58 % 95 % 1031,7 hPa 0,0 l/m² 6,6 km/h (2 Bft) NO 35 ° 0 min 37 W/m² 5,0 °C 5,6 °C 11,3 km/h (2 Bft)
12.11.2024 09:29 21,2 °C 5,7 °C 58 % 95 % 1031,8 hPa 0,0 l/m² 5,5 km/h (2 Bft) N-NO 26 ° 0 min 40 W/m² 5,0 °C 5,7 °C 14,5 km/h (3 Bft)
12.11.2024 09:31 21,2 °C 5,7 °C 58 % 95 % 1031,8 hPa 0,0 l/m² 6,5 km/h (2 Bft) N-NO 24 ° 0 min 46 W/m² 5,0 °C 5,6 °C 12,9 km/h (3 Bft)
12.11.2024 09:33 21,2 °C 5,7 °C 58 % 95 % 1031,8 hPa 0,0 l/m² 5,2 km/h (1 Bft) O-NO 67 ° 0 min 47 W/m² 5,0 °C 5,7 °C 9,7 km/h (2 Bft)
12.11.2024 09:35 21,2 °C 5,7 °C 58 % 95 % 1031,9 hPa 0,0 l/m² 6,2 km/h (2 Bft) NO 54 ° 0 min 47 W/m² 5,0 °C 5,7 °C 14,5 km/h (3 Bft)
12.11.2024 09:37 21,2 °C 5,7 °C 58 % 95 % 1031,8 hPa 0,0 l/m² 6,5 km/h (2 Bft) NO 51 ° 0 min 46 W/m² 5,0 °C 5,6 °C 11,3 km/h (2 Bft)
12.11.2024 09:39 21,2 °C 5,7 °C 58 % 95 % 1031,9 hPa 0,0 l/m² 4,1 km/h (1 Bft) NO 42 ° 0 min 47 W/m² 5,0 °C 5,7 °C 9,7 km/h (2 Bft)
12.11.2024 09:41 21,2 °C 5,7 °C 58 % 95 % 1031,9 hPa 0,0 l/m² 7,6 km/h (2 Bft) NO 36 ° 0 min 51 W/m² 5,0 °C 4,7 °C 16,1 km/h (3 Bft)
12.11.2024 09:43 21,2 °C 5,8 °C 58 % 95 % 1031,9 hPa 0,0 l/m² 4,2 km/h (1 Bft) NO 52 ° 0 min 49 W/m² 5,1 °C 5,8 °C 9,7 km/h (2 Bft)
12.11.2024 09:44 21,2 °C 5,8 °C 58 % 95 % 1031,9 hPa 0,0 l/m² 3,2 km/h (1 Bft) NO 40 ° 0 min 51 W/m² 5,1 °C 5,8 °C 6,4 km/h (2 Bft)
12.11.2024 09:45 21,2 °C 5,8 °C 58 % 95 % 1031,9 hPa 0,0 l/m² 3,7 km/h (1 Bft) N-NO 19 ° 0 min 51 W/m² 5,1 °C 5,8 °C 6,4 km/h (2 Bft)
12.11.2024 09:46 21,2 °C 5,8 °C 58 % 95 % 1031,9 hPa 0,0 l/m² 11,3 km/h (2 Bft) NO 44 ° 0 min 47 W/m² 5,1 °C 2,1 °C 16,1 km/h (3 Bft)
12.11.2024 09:48 21,2 °C 5,8 °C 58 % 95 % 1032,0 hPa 0,0 l/m² 5,2 km/h (1 Bft) N-NO 19 ° 0 min 39 W/m² 5,1 °C 5,8 °C 14,5 km/h (3 Bft)
12.11.2024 09:50 21,2 °C 5,8 °C 58 % 95 % 1032,0 hPa 0,0 l/m² 6,2 km/h (2 Bft) NO 48 ° 0 min 39 W/m² 5,1 °C 5,8 °C 12,9 km/h (3 Bft)
12.11.2024 09:52 21,2 °C 5,8 °C 58 % 95 % 1032,0 hPa 0,0 l/m² 5,5 km/h (2 Bft) N-NO 32 ° 0 min 44 W/m² 5,1 °C 5,8 °C 9,7 km/h (2 Bft)
12.11.2024 09:54 21,2 °C 5,8 °C 58 % 95 % 1031,9 hPa 0,0 l/m² 4,5 km/h (1 Bft) NO 38 ° 2 min 53 W/m² 5,1 °C 5,8 °C 12,9 km/h (3 Bft)
12.11.2024 09:56 21,2 °C 5,8 °C 58 % 95 % 1032,0 hPa 0,0 l/m² 5,0 km/h (1 Bft) NO 37 ° 0 min 49 W/m² 5,1 °C 5,8 °C 11,3 km/h (2 Bft)
12.11.2024 09:58 21,2 °C 5,8 °C 58 % 95 % 1032,0 hPa 0,0 l/m² 5,1 km/h (1 Bft) O-NO 60 ° 0 min 44 W/m² 5,1 °C 5,8 °C 9,7 km/h (2 Bft)
12.11.2024 10:00 21,2 °C 5,8 °C 58 % 95 % 1032,0 hPa 0,0 l/m² 2,9 km/h (1 Bft) NO 55 ° 0 min 37 W/m² 5,1 °C 5,8 °C 8,0 km/h (2 Bft)
12.11.2024 10:02 21,2 °C 5,8 °C 58 % 95 % 1032,1 hPa 0,0 l/m² 5,8 km/h (2 Bft) O 82 ° 0 min 35 W/m² 5,1 °C 5,8 °C 11,3 km/h (2 Bft)
12.11.2024 10:04 21,2 °C 5,8 °C 58 % 95 % 1032,1 hPa 0,0 l/m² 6,4 km/h (2 Bft) O-NO 60 ° 0 min 35 W/m² 5,1 °C 5,8 °C 11,3 km/h (2 Bft)
12.11.2024 10:06 21,2 °C 5,8 °C 58 % 95 % 1032,0 hPa 0,0 l/m² 4,6 km/h (1 Bft) O-NO 61 ° 0 min 33 W/m² 5,1 °C 5,8 °C 9,7 km/h (2 Bft)
12.11.2024 10:08 21,2 °C 5,8 °C 58 % 95 % 1032,0 hPa 0,0 l/m² 5,3 km/h (1 Bft) NO 54 ° 0 min 37 W/m² 5,1 °C 5,8 °C 9,7 km/h (2 Bft)
12.11.2024 10:10 21,2 °C 5,8 °C 58 % 95 % 1032,0 hPa 0,0 l/m² 3,8 km/h (1 Bft) NO 44 ° 0 min 32 W/m² 5,1 °C 5,8 °C 9,7 km/h (2 Bft)
12.11.2024 10:12 21,2 °C 5,8 °C 58 % 95 % 1032,5 hPa 0,0 l/m² 3,9 km/h (1 Bft) N-NO 32 ° 0 min 30 W/m² 5,1 °C 5,8 °C 9,7 km/h (2 Bft)
12.11.2024 10:14 21,2 °C 5,8 °C 58 % 95 % 1032,0 hPa 0,0 l/m² 4,8 km/h (1 Bft) NO 34 ° 0 min 33 W/m² 5,1 °C 5,8 °C 9,7 km/h (2 Bft)
12.11.2024 10:16 21,2 °C 5,8 °C 58 % 95 % 1032,1 hPa 0,0 l/m² 5,1 km/h (1 Bft) O-NO 59 ° 0 min 35 W/m² 5,1 °C 5,8 °C 11,3 km/h (2 Bft)
12.11.2024 10:18 21,2 °C 5,8 °C 58 % 95 % 1032,2 hPa 0,0 l/m² 5,8 km/h (2 Bft) O-NO 59 ° 0 min 37 W/m² 5,1 °C 5,8 °C 12,9 km/h (3 Bft)
12.11.2024 10:20 21,2 °C 5,8 °C 58 % 95 % 1032,2 hPa 0,0 l/m² 5,1 km/h (1 Bft) O-NO 63 ° 0 min 39 W/m² 5,1 °C 5,8 °C 11,3 km/h (2 Bft)
12.11.2024 10:22 21,2 °C 5,8 °C 58 % 95 % 1032,2 hPa 0,0 l/m² 5,6 km/h (2 Bft) O-NO 62 ° 0 min 40 W/m² 5,1 °C 5,8 °C 9,7 km/h (2 Bft)
12.11.2024 10:24 21,2 °C 5,8 °C 58 % 95 % 1032,2 hPa 0,0 l/m² 3,4 km/h (1 Bft) O-NO 67 ° 0 min 40 W/m² 5,1 °C 5,8 °C 6,4 km/h (2 Bft)
12.11.2024 10:26 21,2 °C 5,8 °C 58 % 95 % 1032,2 hPa 0,0 l/m² 4,2 km/h (1 Bft) O-NO 63 ° 0 min 44 W/m² 5,1 °C 5,8 °C 8,0 km/h (2 Bft)
12.11.2024 10:27 21,2 °C 5,9 °C 58 % 95 % 1032,2 hPa 0,0 l/m² 6,2 km/h (2 Bft) O-NO 78 ° 0 min 47 W/m² 5,2 °C 5,9 °C 8,0 km/h (2 Bft)
12.11.2024 10:28 21,2 °C 5,9 °C 58 % 95 % 1032,3 hPa 0,0 l/m² 5,1 km/h (1 Bft) O-NO 76 ° 1 min 56 W/m² 5,2 °C 5,9 °C 8,0 km/h (2 Bft)
12.11.2024 10:30 21,2 °C 5,8 °C 58 % 95 % 1032,2 hPa 0,0 l/m² 4,0 km/h (1 Bft) O-NO 59 ° 2 min 54 W/m² 5,1 °C 5,8 °C 8,0 km/h (2 Bft)
12.11.2024 10:32 21,2 °C 5,8 °C 58 % 95 % 1032,3 hPa 0,0 l/m² 3,5 km/h (1 Bft) O-NO 62 ° 2 min 58 W/m² 5,1 °C 5,8 °C 6,4 km/h (2 Bft)
12.11.2024 10:34 21,2 °C 5,9 °C 58 % 95 % 1032,2 hPa 0,0 l/m² 1,9 km/h (1 Bft) O-NO 70 ° 2 min 67 W/m² 5,2 °C 5,9 °C 4,8 km/h (1 Bft)
12.11.2024 10:36 21,2 °C 5,9 °C 58 % 95 % 1032,2 hPa 0,0 l/m² 3,2 km/h (1 Bft) O-NO 75 ° 2 min 74 W/m² 5,2 °C 5,9 °C 6,4 km/h (2 Bft)
12.11.2024 10:38 21,2 °C 5,9 °C 58 % 95 % 1032,3 hPa 0,0 l/m² 5,2 km/h (1 Bft) O-NO 77 ° 2 min 77 W/m² 5,2 °C 5,9 °C 11,3 km/h (2 Bft)
12.11.2024 10:40 21,2 °C 5,9 °C 58 % 95 % 1032,3 hPa 0,0 l/m² 4,5 km/h (1 Bft) O-NO 61 ° 2 min 100 W/m² 5,2 °C 5,9 °C 8,0 km/h (2 Bft)
12.11.2024 10:42 21,2 °C 5,9 °C 58 % 95 % 1032,3 hPa 0,0 l/m² 3,9 km/h (1 Bft) NO 56 ° 2 min 83 W/m² 5,2 °C 5,9 °C 6,4 km/h (2 Bft)
12.11.2024 10:43 21,2 °C 5,9 °C 58 % 95 % 1032,3 hPa 0,0 l/m² 0,9 km/h (0 Bft) NO 56 ° 1 min 76 W/m² 5,2 °C 5,9 °C 4,8 km/h (1 Bft)
12.11.2024 10:44 21,2 °C 5,9 °C 58 % 95 % 1032,3 hPa 0,0 l/m² 0,0 km/h (0 Bft) NO 56 ° 1 min 67 W/m² 5,2 °C 5,9 °C 0,0 km/h (0 Bft)
12.11.2024 10:46 21,2 °C 6,0 °C 58 % 95 % 1032,3 hPa 0,0 l/m² 0,1 km/h (0 Bft) NO 56 ° 2 min 54 W/m² 5,3 °C 6,0 °C 1,6 km/h (1 Bft)
12.11.2024 10:48 21,2 °C 6,1 °C 58 % 95 % 1032,3 hPa 0,0 l/m² 1,6 km/h (1 Bft) NO 55 ° 2 min 54 W/m² 5,4 °C 6,1 °C 4,8 km/h (1 Bft)
12.11.2024 10:50 21,2 °C 6,1 °C 58 % 95 % 1032,4 hPa 0,0 l/m² 2,9 km/h (1 Bft) NO 55 ° 0 min 49 W/m² 5,4 °C 6,1 °C 6,4 km/h (2 Bft)
12.11.2024 10:52 21,2 °C 6,0 °C 58 % 95 % 1032,3 hPa 0,0 l/m² 3,7 km/h (1 Bft) O-NO 69 ° 0 min 46 W/m² 5,3 °C 6,0 °C 8,0 km/h (2 Bft)
12.11.2024 10:54 21,2 °C 6,1 °C 58 % 95 % 1032,4 hPa 0,0 l/m² 3,1 km/h (1 Bft) NO 38 ° 0 min 42 W/m² 5,4 °C 6,1 °C 4,8 km/h (1 Bft)
12.11.2024 10:56 21,2 °C 6,0 °C 58 % 95 % 1032,4 hPa 0,0 l/m² 1,7 km/h (1 Bft) NO 53 ° 0 min 44 W/m² 5,3 °C 6,0 °C 6,4 km/h (2 Bft)
12.11.2024 10:58 21,2 °C 6,0 °C 58 % 95 % 1032,4 hPa 0,0 l/m² 3,9 km/h (1 Bft) O-NO 59 ° 0 min 49 W/m² 5,3 °C 6,0 °C 8,0 km/h (2 Bft)
12.11.2024 11:00 21,2 °C 6,1 °C 58 % 95 % 1032,4 hPa 0,0 l/m² 3,5 km/h (1 Bft) N 5 ° 0 min 47 W/m² 5,4 °C 6,1 °C 6,4 km/h (2 Bft)
12.11.2024 11:02 21,2 °C 6,0 °C 58 % 95 % 1032,4 hPa 0,0 l/m² 3,0 km/h (1 Bft) N-NO 26 ° 0 min 46 W/m² 5,3 °C 6,0 °C 4,8 km/h (1 Bft)
12.11.2024 11:04 21,2 °C 6,0 °C 58 % 95 % 1032,4 hPa 0,0 l/m² 2,9 km/h (1 Bft) N-NO 30 ° 0 min 40 W/m² 5,3 °C 6,0 °C 6,4 km/h (2 Bft)
12.11.2024 11:06 21,2 °C 6,0 °C 58 % 95 % 1032,4 hPa 0,0 l/m² 1,4 km/h (1 Bft) N-NO 29 ° 0 min 37 W/m² 5,3 °C 6,0 °C 4,8 km/h (1 Bft)
12.11.2024 11:08 21,2 °C 6,0 °C 58 % 95 % 1032,5 hPa 0,0 l/m² 1,3 km/h (1 Bft) O-NO 75 ° 0 min 32 W/m² 5,3 °C 6,0 °C 4,8 km/h (1 Bft)
12.11.2024 11:10 21,2 °C 6,0 °C 58 % 95 % 1032,4 hPa 0,0 l/m² 1,3 km/h (1 Bft) O-NO 65 ° 0 min 35 W/m² 5,3 °C 6,0 °C 6,4 km/h (2 Bft)
12.11.2024 11:12 21,2 °C 6,0 °C 58 % 95 % 1032,4 hPa 0,0 l/m² 3,0 km/h (1 Bft) NO 50 ° 0 min 44 W/m² 5,3 °C 6,0 °C 6,4 km/h (2 Bft)
12.11.2024 11:14 21,2 °C 6,1 °C 58 % 95 % 1032,4 hPa 0,0 l/m² 2,4 km/h (1 Bft) NO 54 ° 0 min 51 W/m² 5,4 °C 6,1 °C 8,0 km/h (2 Bft)
12.11.2024 11:16 21,2 °C 6,0 °C 58 % 95 % 1032,5 hPa 0,0 l/m² 4,3 km/h (1 Bft) O-NO 69 ° 2 min 54 W/m² 5,3 °C 6,0 °C 8,0 km/h (2 Bft)
12.11.2024 11:18 21,2 °C 6,0 °C 58 % 95 % 1032,5 hPa 0,0 l/m² 4,2 km/h (1 Bft) NO 41 ° 2 min 53 W/m² 5,3 °C 6,0 °C 9,7 km/h (2 Bft)
12.11.2024 11:20 21,2 °C 6,0 °C 58 % 95 % 1032,5 hPa 0,0 l/m² 2,7 km/h (1 Bft) O-NO 61 ° 2 min 53 W/m² 5,3 °C 6,0 °C 8,0 km/h (2 Bft)
12.11.2024 11:22 21,2 °C 6,0 °C 58 % 95 % 1032,5 hPa 0,0 l/m² 3,4 km/h (1 Bft) O-NO 57 ° 0 min 51 W/m² 5,3 °C 6,0 °C 6,4 km/h (2 Bft)
12.11.2024 11:24 21,2 °C 6,1 °C 58 % 95 % 1032,5 hPa 0,0 l/m² 6,1 km/h (2 Bft) O-NO 69 ° 0 min 51 W/m² 5,4 °C 6,1 °C 9,7 km/h (2 Bft)
12.11.2024 11:26 21,2 °C 6,1 °C 58 % 95 % 1032,5 hPa 0,0 l/m² 4,9 km/h (1 Bft) NO 53 ° 2 min 53 W/m² 5,4 °C 6,1 °C 8,0 km/h (2 Bft)
12.11.2024 11:28 21,2 °C 6,0 °C 58 % 95 % 1032,4 hPa 0,0 l/m² 3,4 km/h (1 Bft) O-NO 58 ° 2 min 54 W/m² 5,3 °C 6,0 °C 6,4 km/h (2 Bft)
12.11.2024 11:30 21,2 °C 6,1 °C 58 % 95 % 1032,5 hPa 0,0 l/m² 2,8 km/h (1 Bft) NO 40 ° 2 min 58 W/m² 5,4 °C 6,1 °C 9,7 km/h (2 Bft)
12.11.2024 11:31 21,2 °C 6,0 °C 58 % 95 % 1032,4 hPa 0,0 l/m² 6,9 km/h (2 Bft) N-NO 29 ° 1 min 62 W/m² 5,3 °C 5,6 °C 9,7 km/h (2 Bft)
12.11.2024 11:32 21,2 °C 6,0 °C 58 % 95 % 1032,4 hPa 0,0 l/m² 3,7 km/h (1 Bft) N-NO 19 ° 1 min 65 W/m² 5,3 °C 6,0 °C 8,0 km/h (2 Bft)
12.11.2024 11:34 21,2 °C 6,0 °C 58 % 95 % 1032,4 hPa 0,0 l/m² 2,9 km/h (1 Bft) N-NO 32 ° 2 min 76 W/m² 5,3 °C 6,0 °C 6,4 km/h (2 Bft)
12.11.2024 11:36 21,2 °C 6,0 °C 58 % 95 % 1032,4 hPa 0,0 l/m² 3,7 km/h (1 Bft) N-NO 25 ° 2 min 77 W/m² 5,3 °C 6,0 °C 8,0 km/h (2 Bft)
12.11.2024 11:38 21,2 °C 6,0 °C 58 % 95 % 1032,4 hPa 0,0 l/m² 2,0 km/h (1 Bft) N-NO 23 ° 2 min 76 W/m² 5,3 °C 6,0 °C 4,8 km/h (1 Bft)
12.11.2024 11:40 21,2 °C 6,0 °C 58 % 95 % 1032,4 hPa 0,0 l/m² 1,6 km/h (1 Bft) N-NO 20 ° 2 min 69 W/m² 5,3 °C 6,0 °C 4,8 km/h (1 Bft)
12.11.2024 11:42 21,2 °C 6,0 °C 58 % 95 % 1032,5 hPa 0,0 l/m² 1,6 km/h (1 Bft) N-NO 16 ° 2 min 65 W/m² 5,3 °C 6,0 °C 4,8 km/h (1 Bft)
12.11.2024 11:44 21,2 °C 6,1 °C 58 % 95 % 1032,4 hPa 0,0 l/m² 2,7 km/h (1 Bft) N-NO 23 ° 2 min 67 W/m² 5,4 °C 6,1 °C 8,0 km/h (2 Bft)
12.11.2024 11:46 21,2 °C 6,1 °C 58 % 95 % 1032,5 hPa 0,0 l/m² 2,1 km/h (1 Bft) N-NO 17 ° 2 min 74 W/m² 5,4 °C 6,1 °C 4,8 km/h (1 Bft)
12.11.2024 11:48 21,2 °C 6,1 °C 58 % 95 % 1032,4 hPa 0,0 l/m² 1,8 km/h (1 Bft) NO 42 ° 2 min 77 W/m² 5,4 °C 6,1 °C 4,8 km/h (1 Bft)
12.11.2024 11:50 21,2 °C 6,1 °C 58 % 95 % 1032,4 hPa 0,0 l/m² 1,8 km/h (1 Bft) NO 40 ° 2 min 79 W/m² 5,4 °C 6,1 °C 6,4 km/h (2 Bft)
12.11.2024 11:52 21,3 °C 6,1 °C 58 % 95 % 1032,4 hPa 0,0 l/m² 5,3 km/h (1 Bft) O-NO 61 ° 2 min 77 W/m² 5,4 °C 6,1 °C 8,0 km/h (2 Bft)
12.11.2024 11:54 21,3 °C 6,1 °C 58 % 95 % 1032,4 hPa 0,0 l/m² 3,2 km/h (1 Bft) N-NO 28 ° 2 min 74 W/m² 5,4 °C 6,1 °C 9,7 km/h (2 Bft)
12.11.2024 11:56 21,2 °C 6,1 °C 58 % 95 % 1032,5 hPa 0,0 l/m² 4,0 km/h (1 Bft) NO 43 ° 2 min 67 W/m² 5,4 °C 6,1 °C 6,4 km/h (2 Bft)
12.11.2024 11:58 21,3 °C 6,1 °C 58 % 95 % 1032,5 hPa 0,0 l/m² 2,2 km/h (1 Bft) O-NO 73 ° 2 min 62 W/m² 5,4 °C 6,1 °C 6,4 km/h (2 Bft)
12.11.2024 12:00 21,2 °C 6,1 °C 58 % 95 % 1032,4 hPa 0,0 l/m² 6,0 km/h (2 Bft) NO 44 ° 2 min 58 W/m² 5,4 °C 6,1 °C 9,7 km/h (2 Bft)
12.11.2024 12:02 21,3 °C 6,1 °C 58 % 95 % 1032,4 hPa 0,0 l/m² 2,1 km/h (1 Bft) NO 44 ° 2 min 54 W/m² 5,4 °C 6,1 °C 4,8 km/h (1 Bft)
12.11.2024 12:03 21,3 °C 6,1 °C 58 % 95 % 1032,4 hPa 0,0 l/m² 1,5 km/h (1 Bft) N 5 ° 1 min 54 W/m² 5,4 °C 6,1 °C 6,4 km/h (2 Bft)
12.11.2024 12:04 21,3 °C 6,1 °C 58 % 95 % 1032,4 hPa 0,0 l/m² 0,7 km/h (0 Bft) N 5 ° 1 min 56 W/m² 5,4 °C 6,1 °C 3,2 km/h (1 Bft)
12.11.2024 12:06 21,2 °C 6,1 °C 58 % 95 % 1032,4 hPa 0,0 l/m² 4,5 km/h (1 Bft) O-NO 58 ° 2 min 56 W/m² 5,4 °C 6,1 °C 6,4 km/h (2 Bft)
12.11.2024 12:07 21,2 °C 6,1 °C 58 % 95 % 1032,4 hPa 0,0 l/m² 1,9 km/h (1 Bft) O-NO 58 ° 1 min 58 W/m² 5,4 °C 6,1 °C 3,2 km/h (1 Bft)
12.11.2024 12:08 21,2 °C 6,1 °C 58 % 95 % 1032,4 hPa 0,0 l/m² 0,2 km/h (0 Bft) NO 55 ° 1 min 67 W/m² 5,4 °C 6,1 °C 1,6 km/h (1 Bft)
12.11.2024 12:10 21,2 °C 6,2 °C 58 % 95 % 1032,4 hPa 0,0 l/m² 1,4 km/h (1 Bft) NO 47 ° 2 min 74 W/m² 5,5 °C 6,2 °C 4,8 km/h (1 Bft)
12.11.2024 12:12 21,2 °C 6,2 °C 58 % 95 % 1032,4 hPa 0,0 l/m² 1,9 km/h (1 Bft) N 5 ° 2 min 70 W/m² 5,5 °C 6,2 °C 6,4 km/h (2 Bft)
12.11.2024 12:14 21,2 °C 6,2 °C 58 % 95 % 1032,4 hPa 0,0 l/m² 4,3 km/h (1 Bft) NO 49 ° 2 min 65 W/m² 5,5 °C 6,2 °C 8,0 km/h (2 Bft)
12.11.2024 12:16 21,3 °C 6,1 °C 58 % 95 % 1032,3 hPa 0,0 l/m² 2,5 km/h (1 Bft) N-NO 27 ° 2 min 63 W/m² 5,4 °C 6,1 °C 6,4 km/h (2 Bft)
12.11.2024 12:18 21,2 °C 6,2 °C 58 % 95 % 1032,3 hPa 0,0 l/m² 4,9 km/h (1 Bft) N-NO 30 ° 2 min 70 W/m² 5,5 °C 6,2 °C 8,0 km/h (2 Bft)
12.11.2024 12:20 21,3 °C 6,2 °C 58 % 95 % 1032,3 hPa 0,0 l/m² 3,4 km/h (1 Bft) NO 54 ° 2 min 69 W/m² 5,5 °C 6,2 °C 6,4 km/h (2 Bft)
12.11.2024 12:22 21,2 °C 6,2 °C 58 % 94 % 1032,3 hPa 0,0 l/m² 4,1 km/h (1 Bft) O-NO 58 ° 2 min 69 W/m² 5,3 °C 6,2 °C 6,4 km/h (2 Bft)
12.11.2024 12:24 21,2 °C 6,2 °C 58 % 94 % 1032,4 hPa 0,0 l/m² 4,4 km/h (1 Bft) O-NO 57 ° 2 min 63 W/m² 5,3 °C 6,2 °C 8,0 km/h (2 Bft)
12.11.2024 12:26 21,2 °C 6,2 °C 58 % 94 % 1032,4 hPa 0,0 l/m² 4,3 km/h (1 Bft) O-NO 72 ° 2 min 58 W/m² 5,3 °C 6,2 °C 6,4 km/h (2 Bft)
12.11.2024 12:28 21,3 °C 6,2 °C 58 % 94 % 1032,3 hPa 0,0 l/m² 2,1 km/h (1 Bft) O-NO 72 ° 2 min 56 W/m² 5,3 °C 6,2 °C 6,4 km/h (2 Bft)
12.11.2024 12:30 21,3 °C 6,2 °C 58 % 94 % 1032,3 hPa 0,0 l/m² 3,0 km/h (1 Bft) N-NO 32 ° 2 min 54 W/m² 5,3 °C 6,2 °C 8,0 km/h (2 Bft)
12.11.2024 12:32 21,2 °C 6,2 °C 58 % 94 % 1032,3 hPa 0,0 l/m² 3,9 km/h (1 Bft) O 80 ° 2 min 60 W/m² 5,3 °C 6,2 °C 8,0 km/h (2 Bft)
12.11.2024 12:34 21,3 °C 6,2 °C 58 % 94 % 1032,4 hPa 0,0 l/m² 5,9 km/h (2 Bft) O-NO 67 ° 2 min 63 W/m² 5,3 °C 6,2 °C 11,3 km/h (2 Bft)
12.11.2024 12:36 21,2 °C 6,2 °C 58 % 95 % 1032,4 hPa 0,0 l/m² 1,9 km/h (1 Bft) NO 55 ° 2 min 62 W/m² 5,5 °C 6,2 °C 8,0 km/h (2 Bft)
12.11.2024 12:38 21,2 °C 6,1 °C 58 % 94 % 1032,3 hPa 0,0 l/m² 4,7 km/h (1 Bft) O-NO 62 ° 2 min 58 W/m² 5,2 °C 6,1 °C 9,7 km/h (2 Bft)
12.11.2024 12:40 21,2 °C 6,2 °C 58 % 94 % 1032,3 hPa 0,0 l/m² 2,5 km/h (1 Bft) O-NO 71 ° 2 min 65 W/m² 5,3 °C 6,2 °C 11,3 km/h (2 Bft)
12.11.2024 12:42 21,2 °C 6,1 °C 58 % 94 % 1032,4 hPa 0,0 l/m² 5,2 km/h (1 Bft) O-NO 67 ° 2 min 84 W/m² 5,2 °C 6,1 °C 12,9 km/h (3 Bft)
12.11.2024 12:44 21,2 °C 6,1 °C 58 % 94 % 1032,4 hPa 0,0 l/m² 3,8 km/h (1 Bft) O-NO 69 ° 2 min 95 W/m² 5,2 °C 6,1 °C 6,4 km/h (2 Bft)
12.11.2024 12:45 21,3 °C 6,2 °C 58 % 94 % 1032,3 hPa 0,0 l/m² 3,2 km/h (1 Bft) O-NO 70 ° 1 min 91 W/m² 5,3 °C 6,2 °C 4,8 km/h (1 Bft)
12.11.2024 12:46 21,3 °C 6,2 °C 58 % 94 % 1032,4 hPa 0,0 l/m² 2,1 km/h (1 Bft) O-NO 70 ° 1 min 90 W/m² 5,3 °C 6,2 °C 4,8 km/h (1 Bft)
12.11.2024 12:47 21,3 °C 6,2 °C 58 % 94 % 1032,4 hPa 0,0 l/m² 5,4 km/h (2 Bft) O-NO 71 ° 1 min 77 W/m² 5,3 °C 6,2 °C 6,4 km/h (2 Bft)
12.11.2024 12:49 21,2 °C 6,2 °C 58 % 94 % 1032,3 hPa 0,0 l/m² 1,4 km/h (1 Bft) O-NO 71 ° 2 min 69 W/m² 5,3 °C 6,2 °C 6,4 km/h (2 Bft)
12.11.2024 12:51 21,2 °C 6,2 °C 58 % 94 % 1032,3 hPa 0,0 l/m² 1,5 km/h (1 Bft) O-NO 71 ° 2 min 63 W/m² 5,3 °C 6,2 °C 6,4 km/h (2 Bft)
12.11.2024 12:53 21,3 °C 6,2 °C 58 % 94 % 1032,3 hPa 0,0 l/m² 3,7 km/h (1 Bft) O-NO 70 ° 2 min 86 W/m² 5,3 °C 6,2 °C 6,4 km/h (2 Bft)
12.11.2024 12:55 21,2 °C 6,2 °C 58 % 94 % 1032,2 hPa 0,0 l/m² 3,5 km/h (1 Bft) O-NO 75 ° 2 min 62 W/m² 5,3 °C 6,2 °C 6,4 km/h (2 Bft)
12.11.2024 12:57 21,2 °C 6,2 °C 58 % 94 % 1032,3 hPa 0,0 l/m² 4,4 km/h (1 Bft) O-NO 75 ° 2 min 77 W/m² 5,3 °C 6,2 °C 6,4 km/h (2 Bft)
12.11.2024 12:59 21,2 °C 6,2 °C 58 % 94 % 1032,3 hPa 0,0 l/m² 3,3 km/h (1 Bft) O-NO 75 ° 2 min 63 W/m² 5,3 °C 6,2 °C 4,8 km/h (1 Bft)
12.11.2024 13:01 21,2 °C 6,2 °C 58 % 94 % 1032,3 hPa 0,0 l/m² 3,2 km/h (1 Bft) O-NO 75 ° 2 min 67 W/m² 5,3 °C 6,2 °C 4,8 km/h (1 Bft)
12.11.2024 13:03 21,2 °C 6,2 °C 58 % 94 % 1032,3 hPa 0,0 l/m² 3,6 km/h (1 Bft) O-NO 59 ° 2 min 54 W/m² 5,3 °C 6,2 °C 6,4 km/h (2 Bft)
12.11.2024 13:05 21,3 °C 6,2 °C 58 % 94 % 1032,4 hPa 0,0 l/m² 2,8 km/h (1 Bft) O-NO 64 ° 2 min 63 W/m² 5,3 °C 6,2 °C 6,4 km/h (2 Bft)
12.11.2024 13:07 21,2 °C 6,3 °C 58 % 94 % 1032,3 hPa 0,0 l/m² 1,0 km/h (0 Bft) O-NO 75 ° 2 min 53 W/m² 5,4 °C 6,3 °C 6,4 km/h (2 Bft)
12.11.2024 13:09 21,2 °C 6,3 °C 58 % 94 % 1032,3 hPa 0,0 l/m² 4,0 km/h (1 Bft) O-NO 71 ° 2 min 70 W/m² 5,4 °C 6,3 °C 9,7 km/h (2 Bft)
12.11.2024 13:11 21,3 °C 6,3 °C 58 % 94 % 1032,3 hPa 0,0 l/m² 5,1 km/h (1 Bft) O-NO 76 ° 2 min 58 W/m² 5,4 °C 6,3 °C 8,0 km/h (2 Bft)
12.11.2024 13:13 21,2 °C 6,3 °C 58 % 94 % 1032,4 hPa 0,0 l/m² 2,2 km/h (1 Bft) O-NO 73 ° 2 min 60 W/m² 5,4 °C 6,3 °C 4,8 km/h (1 Bft)
12.11.2024 13:15 21,2 °C 6,3 °C 57 % 94 % 1032,3 hPa 0,0 l/m² 1,5 km/h (1 Bft) O-NO 67 ° 2 min 74 W/m² 5,4 °C 6,3 °C 8,0 km/h (2 Bft)
12.11.2024 13:17 21,2 °C 6,3 °C 57 % 94 % 1032,3 hPa 0,0 l/m² 6,0 km/h (2 Bft) O-NO 73 ° 2 min 74 W/m² 5,4 °C 6,3 °C 9,7 km/h (2 Bft)
12.11.2024 13:19 21,2 °C 6,3 °C 58 % 93 % 1032,2 hPa 0,0 l/m² 6,9 km/h (2 Bft) O 89 ° 2 min 79 W/m² 5,3 °C 5,9 °C 9,7 km/h (2 Bft)
12.11.2024 13:21 21,2 °C 6,3 °C 58 % 93 % 1032,3 hPa 0,0 l/m² 6,2 km/h (2 Bft) O 88 ° 2 min 98 W/m² 5,3 °C 6,3 °C 9,7 km/h (2 Bft)
12.11.2024 13:23 21,2 °C 6,3 °C 58 % 93 % 1032,2 hPa 0,0 l/m² 3,8 km/h (1 Bft) O 88 ° 2 min 120 W/m² 5,3 °C 6,3 °C 6,4 km/h (2 Bft)
12.11.2024 13:25 21,2 °C 6,3 °C 57 % 93 % 1032,2 hPa 0,0 l/m² 6,2 km/h (2 Bft) O 93 ° 2 min 111 W/m² 5,3 °C 6,3 °C 9,7 km/h (2 Bft)
12.11.2024 13:27 21,2 °C 6,3 °C 57 % 93 % 1032,2 hPa 0,0 l/m² 8,6 km/h (2 Bft) O 82 ° 2 min 98 W/m² 5,3 °C 4,5 °C 11,3 km/h (2 Bft)
12.11.2024 13:29 21,3 °C 6,3 °C 58 % 93 % 1032,2 hPa 0,0 l/m² 5,6 km/h (2 Bft) O-NO 77 ° 2 min 93 W/m² 5,3 °C 6,3 °C 11,3 km/h (2 Bft)
12.11.2024 13:31 21,2 °C 6,4 °C 57 % 93 % 1032,2 hPa 0,0 l/m² 4,2 km/h (1 Bft) O-NO 66 ° 2 min 88 W/m² 5,4 °C 6,4 °C 6,4 km/h (2 Bft)
12.11.2024 13:33 21,2 °C 6,4 °C 57 % 93 % 1032,1 hPa 0,0 l/m² 2,6 km/h (1 Bft) O-NO 66 ° 2 min 79 W/m² 5,4 °C 6,4 °C 4,8 km/h (1 Bft)
12.11.2024 13:35 21,2 °C 6,4 °C 57 % 93 % 1032,1 hPa 0,0 l/m² 2,3 km/h (1 Bft) O-NO 66 ° 2 min 65 W/m² 5,4 °C 6,4 °C 4,8 km/h (1 Bft)
12.11.2024 13:37 21,2 °C 6,4 °C 58 % 93 % 1032,2 hPa 0,0 l/m² 4,1 km/h (1 Bft) O 86 ° 2 min 56 W/m² 5,4 °C 6,4 °C 8,0 km/h (2 Bft)
12.11.2024 13:39 21,2 °C 6,4 °C 57 % 93 % 1032,2 hPa 0,0 l/m² 3,8 km/h (1 Bft) O 79 ° 0 min 49 W/m² 5,4 °C 6,4 °C 6,4 km/h (2 Bft)
12.11.2024 13:40 21,2 °C 6,4 °C 57 % 93 % 1032,2 hPa 0,0 l/m² 3,8 km/h (1 Bft) O-NO 78 ° 0 min 51 W/m² 5,4 °C 6,4 °C 6,4 km/h (2 Bft)
12.11.2024 13:41 21,2 °C 6,4 °C 57 % 93 % 1032,2 hPa 0,0 l/m² 1,7 km/h (1 Bft) O-NO 78 ° 1 min 56 W/m² 5,4 °C 6,4 °C 4,8 km/h (1 Bft)
12.11.2024 13:43 21,2 °C 6,4 °C 57 % 93 % 1032,1 hPa 0,0 l/m² 1,4 km/h (1 Bft) O-NO 78 ° 2 min 67 W/m² 5,4 °C 6,4 °C 4,8 km/h (1 Bft)
12.11.2024 13:45 21,2 °C 6,5 °C 58 % 93 % 1032,2 hPa 0,0 l/m² 3,0 km/h (1 Bft) O-NO 76 ° 2 min 56 W/m² 5,5 °C 6,5 °C 4,8 km/h (1 Bft)
12.11.2024 13:47 21,2 °C 6,5 °C 57 % 93 % 1032,2 hPa 0,0 l/m² 2,0 km/h (1 Bft) O-NO 75 ° 2 min 74 W/m² 5,5 °C 6,5 °C 4,8 km/h (1 Bft)
12.11.2024 13:49 21,2 °C 6,6 °C 57 % 92 % 1032,2 hPa 0,0 l/m² 3,8 km/h (1 Bft) O-NO 62 ° 2 min 72 W/m² 5,4 °C 6,6 °C 8,0 km/h (2 Bft)
12.11.2024 13:51 21,2 °C 6,6 °C 57 % 92 % 1032,1 hPa 0,0 l/m² 3,0 km/h (1 Bft) N-NO 25 ° 2 min 62 W/m² 5,4 °C 6,6 °C 6,4 km/h (2 Bft)
12.11.2024 13:53 21,2 °C 6,6 °C 57 % 92 % 1032,1 hPa 0,0 l/m² 3,7 km/h (1 Bft) O-NO 59 ° 0 min 49 W/m² 5,4 °C 6,6 °C 8,0 km/h (2 Bft)
12.11.2024 13:55 21,2 °C 6,6 °C 57 % 92 % 1032,1 hPa 0,0 l/m² 5,4 km/h (2 Bft) NO 56 ° 0 min 49 W/m² 5,4 °C 6,6 °C 8,0 km/h (2 Bft)
12.11.2024 13:57 21,2 °C 6,6 °C 57 % 92 % 1032,2 hPa 0,0 l/m² 0,7 km/h (0 Bft) NO 55 ° 2 min 56 W/m² 5,4 °C 6,6 °C 3,2 km/h (1 Bft)
12.11.2024 13:59 21,2 °C 6,6 °C 57 % 92 % 1032,2 hPa 0,0 l/m² 0,7 km/h (0 Bft) NO 55 ° 2 min 54 W/m² 5,4 °C 6,6 °C 3,2 km/h (1 Bft)
12.11.2024 14:01 21,2 °C 6,6 °C 58 % 92 % 1032,1 hPa 0,0 l/m² 0,5 km/h (0 Bft) NO 55 ° 2 min 54 W/m² 5,4 °C 6,6 °C 3,2 km/h (1 Bft)
12.11.2024 14:03 21,2 °C 6,6 °C 58 % 92 % 1032,2 hPa 0,0 l/m² 2,3 km/h (1 Bft) NO 55 ° 2 min 70 W/m² 5,4 °C 6,6 °C 6,4 km/h (2 Bft)
12.11.2024 14:05 21,2 °C 6,6 °C 57 % 92 % 1032,3 hPa 0,0 l/m² 4,7 km/h (1 Bft) NO 45 ° 2 min 56 W/m² 5,4 °C 6,6 °C 8,0 km/h (2 Bft)
12.11.2024 14:07 21,2 °C 6,6 °C 57 % 92 % 1032,2 hPa 0,0 l/m² 5,8 km/h (2 Bft) NO 48 ° 2 min 58 W/m² 5,4 °C 6,6 °C 9,7 km/h (2 Bft)
12.11.2024 14:09 21,2 °C 6,6 °C 58 % 92 % 1032,3 hPa 0,0 l/m² 4,2 km/h (1 Bft) NO 36 ° 0 min 47 W/m² 5,4 °C 6,6 °C 8,0 km/h (2 Bft)
12.11.2024 14:11 21,2 °C 6,6 °C 57 % 92 % 1032,2 hPa 0,0 l/m² 1,3 km/h (1 Bft) O-NO 69 ° 0 min 51 W/m² 5,4 °C 6,6 °C 4,8 km/h (1 Bft)
12.11.2024 14:13 21,2 °C 6,6 °C 57 % 92 % 1032,1 hPa 0,0 l/m² 4,9 km/h (1 Bft) O 101 ° 2 min 53 W/m² 5,4 °C 6,6 °C 6,4 km/h (2 Bft)
12.11.2024 14:15 21,2 °C 6,6 °C 58 % 92 % 1032,1 hPa 0,0 l/m² 4,8 km/h (1 Bft) O 99 ° 2 min 58 W/m² 5,4 °C 6,6 °C 6,4 km/h (2 Bft)
12.11.2024 14:17 21,2 °C 6,6 °C 57 % 92 % 1032,1 hPa 0,0 l/m² 3,2 km/h (1 Bft) O 99 ° 2 min 79 W/m² 5,4 °C 6,6 °C 6,4 km/h (2 Bft)
12.11.2024 14:19 21,2 °C 6,4 °C 58 % 91 % 1032,1 hPa 0,0 l/m² 3,4 km/h (1 Bft) O 101 ° 2 min 169 W/m² 5,0 °C 6,4 °C 6,4 km/h (2 Bft)
12.11.2024 14:21 21,2 °C 6,4 °C 58 % 91 % 1032,1 hPa 0,0 l/m² 3,7 km/h (1 Bft) O 101 ° 2 min 193 W/m² 5,0 °C 6,4 °C 6,4 km/h (2 Bft)
12.11.2024 14:23 21,2 °C 6,6 °C 57 % 91 % 1032,1 hPa 0,0 l/m² 1,7 km/h (1 Bft) O 101 ° 2 min 179 W/m² 5,2 °C 6,6 °C 4,8 km/h (1 Bft)
12.11.2024 14:25 21,3 °C 6,7 °C 57 % 91 % 1032,1 hPa 0,0 l/m² 2,7 km/h (1 Bft) O 101 ° 2 min 174 W/m² 5,3 °C 6,7 °C 4,8 km/h (1 Bft)
12.11.2024 14:27 21,2 °C 6,7 °C 57 % 90 % 1032,1 hPa 0,0 l/m² 3,6 km/h (1 Bft) O 101 ° 2 min 105 W/m² 5,2 °C 6,7 °C 4,8 km/h (1 Bft)
12.11.2024 14:29 21,2 °C 6,7 °C 57 % 90 % 1032,1 hPa 0,0 l/m² 3,1 km/h (1 Bft) O 101 ° 2 min 211 W/m² 5,2 °C 6,7 °C 4,8 km/h (1 Bft)
12.11.2024 14:31 21,3 °C 6,7 °C 57 % 90 % 1032,1 hPa 0,0 l/m² 4,2 km/h (1 Bft) O 101 ° 2 min 209 W/m² 5,2 °C 6,7 °C 4,8 km/h (1 Bft)
12.11.2024 14:33 21,3 °C 6,8 °C 57 % 90 % 1032,1 hPa 0,0 l/m² 4,5 km/h (1 Bft) O 98 ° 2 min 149 W/m² 5,3 °C 6,8 °C 6,4 km/h (2 Bft)
12.11.2024 14:35 21,3 °C 6,8 °C 57 % 90 % 1032,1 hPa 0,0 l/m² 4,3 km/h (1 Bft) O 99 ° 2 min 172 W/m² 5,3 °C 6,8 °C 6,4 km/h (2 Bft)
12.11.2024 14:37 21,3 °C 6,8 °C 57 % 89 % 1032,1 hPa 0,0 l/m² 5,2 km/h (1 Bft) O 98 ° 2 min 102 W/m² 5,1 °C 6,8 °C 6,4 km/h (2 Bft)
12.11.2024 14:39 21,3 °C 6,7 °C 57 % 89 % 1032,1 hPa 0,0 l/m² 5,1 km/h (1 Bft) O 98 ° 2 min 107 W/m² 5,0 °C 6,7 °C 6,4 km/h (2 Bft)
12.11.2024 14:41 21,3 °C 6,7 °C 57 % 89 % 1032,1 hPa 0,0 l/m² 3,7 km/h (1 Bft) O 98 ° 2 min 111 W/m² 5,0 °C 6,7 °C 4,8 km/h (1 Bft)
12.11.2024 14:43 21,3 °C 6,7 °C 57 % 89 % 1032,0 hPa 0,0 l/m² 3,4 km/h (1 Bft) O 98 ° 2 min 91 W/m² 5,0 °C 6,7 °C 4,8 km/h (1 Bft)
12.11.2024 14:45 21,3 °C 6,7 °C 57 % 89 % 1032,0 hPa 0,0 l/m² 3,0 km/h (1 Bft) O 98 ° 2 min 88 W/m² 5,0 °C 6,7 °C 4,8 km/h (1 Bft)
12.11.2024 14:47 21,3 °C 6,7 °C 57 % 89 % 1032,0 hPa 0,0 l/m² 2,2 km/h (1 Bft) O 98 ° 2 min 83 W/m² 5,0 °C 6,7 °C 3,2 km/h (1 Bft)
12.11.2024 14:49 21,3 °C 6,7 °C 57 % 89 % 1032,0 hPa 0,0 l/m² 3,0 km/h (1 Bft) O 98 ° 2 min 83 W/m² 5,0 °C 6,7 °C 4,8 km/h (1 Bft)
12.11.2024 14:51 21,3 °C 6,7 °C 57 % 89 % 1032,0 hPa 0,0 l/m² 5,3 km/h (1 Bft) O 97 ° 2 min 79 W/m² 5,0 °C 6,7 °C 6,4 km/h (2 Bft)
12.11.2024 14:53 21,3 °C 6,7 °C 57 % 89 % 1032,0 hPa 0,0 l/m² 5,4 km/h (2 Bft) O 96 ° 2 min 67 W/m² 5,0 °C 6,7 °C 9,7 km/h (2 Bft)
12.11.2024 14:55 21,3 °C 6,7 °C 57 % 89 % 1032,0 hPa 0,0 l/m² 4,9 km/h (1 Bft) O 96 ° 2 min 65 W/m² 5,0 °C 6,7 °C 6,4 km/h (2 Bft)
12.11.2024 14:57 21,3 °C 6,7 °C 57 % 89 % 1032,0 hPa 0,0 l/m² 3,5 km/h (1 Bft) O 96 ° 2 min 62 W/m² 5,0 °C 6,7 °C 4,8 km/h (1 Bft)
12.11.2024 14:59 21,3 °C 6,7 °C 57 % 89 % 1032,0 hPa 0,0 l/m² 1,8 km/h (1 Bft) O 96 ° 2 min 54 W/m² 5,0 °C 6,7 °C 4,8 km/h (1 Bft)
12.11.2024 15:01 21,3 °C 6,7 °C 57 % 89 % 1032,0 hPa 0,0 l/m² 2,7 km/h (1 Bft) O 96 ° 2 min 53 W/m² 5,0 °C 6,7 °C 4,8 km/h (1 Bft)
12.11.2024 15:03 21,3 °C 6,7 °C 57 % 89 % 1032,0 hPa 0,0 l/m² 3,0 km/h (1 Bft) O 96 ° 2 min 53 W/m² 5,0 °C 6,7 °C 6,4 km/h (2 Bft)
12.11.2024 15:05 21,3 °C 6,7 °C 57 % 89 % 1032,1 hPa 0,0 l/m² 3,2 km/h (1 Bft) O 96 ° 0 min 51 W/m² 5,0 °C 6,7 °C 4,8 km/h (1 Bft)
12.11.2024 15:07 21,3 °C 6,7 °C 57 % 89 % 1032,0 hPa 0,0 l/m² 4,5 km/h (1 Bft) O 96 ° 2 min 53 W/m² 5,0 °C 6,7 °C 6,4 km/h (2 Bft)
12.11.2024 15:09 21,3 °C 6,7 °C 57 % 89 % 1032,1 hPa 0,0 l/m² 4,6 km/h (1 Bft) O 92 ° 2 min 54 W/m² 5,0 °C 6,7 °C 6,4 km/h (2 Bft)
12.11.2024 15:10 21,3 °C 6,7 °C 57 % 89 % 1032,1 hPa 0,0 l/m² 4,2 km/h (1 Bft) O 85 ° 1 min 56 W/m² 5,0 °C 6,7 °C 6,4 km/h (2 Bft)
12.11.2024 15:11 21,3 °C 6,7 °C 57 % 89 % 1032,1 hPa 0,0 l/m² 2,0 km/h (1 Bft) O 85 ° 1 min 58 W/m² 5,0 °C 6,7 °C 4,8 km/h (1 Bft)
12.11.2024 15:13 21,3 °C 6,7 °C 57 % 89 % 1032,0 hPa 0,0 l/m² 0,7 km/h (0 Bft) O 85 ° 0 min 49 W/m² 5,0 °C 6,7 °C 3,2 km/h (1 Bft)
12.11.2024 15:15 21,3 °C 6,7 °C 57 % 89 % 1032,1 hPa 0,0 l/m² 1,4 km/h (1 Bft) O 85 ° 0 min 47 W/m² 5,0 °C 6,7 °C 3,2 km/h (1 Bft)
12.11.2024 15:17 21,3 °C 6,7 °C 57 % 89 % 1032,0 hPa 0,0 l/m² 1,7 km/h (1 Bft) O 85 ° 0 min 51 W/m² 5,0 °C 6,7 °C 3,2 km/h (1 Bft)
12.11.2024 15:19 21,3 °C 6,7 °C 57 % 89 % 1032,1 hPa 0,0 l/m² 1,6 km/h (1 Bft) O 85 ° 0 min 44 W/m² 5,0 °C 6,7 °C 3,2 km/h (1 Bft)
12.11.2024 15:21 21,3 °C 6,7 °C 57 % 89 % 1032,1 hPa 0,0 l/m² 2,9 km/h (1 Bft) O 85 ° 0 min 44 W/m² 5,0 °C 6,7 °C 6,4 km/h (2 Bft)
12.11.2024 15:23 21,3 °C 6,7 °C 57 % 89 % 1032,2 hPa 0,0 l/m² 2,8 km/h (1 Bft) O 85 ° 0 min 40 W/m² 5,0 °C 6,7 °C 4,8 km/h (1 Bft)
12.11.2024 15:25 21,3 °C 6,7 °C 57 % 89 % 1032,1 hPa 0,0 l/m² 1,1 km/h (1 Bft) O 85 ° 0 min 40 W/m² 5,0 °C 6,7 °C 3,2 km/h (1 Bft)
12.11.2024 15:27 21,3 °C 6,7 °C 57 % 89 % 1032,1 hPa 0,0 l/m² 1,3 km/h (1 Bft) O 85 ° 0 min 40 W/m² 5,0 °C 6,7 °C 3,2 km/h (1 Bft)
12.11.2024 15:29 21,3 °C 6,7 °C 57 % 89 % 1032,1 hPa 0,0 l/m² 0,9 km/h (0 Bft) O 85 ° 0 min 39 W/m² 5,0 °C 6,7 °C 3,2 km/h (1 Bft)
12.11.2024 15:31 21,3 °C 6,7 °C 57 % 89 % 1032,2 hPa 0,0 l/m² 0,1 km/h (0 Bft) O 85 ° 0 min 37 W/m² 5,0 °C 6,7 °C 1,6 km/h (1 Bft)
12.11.2024 15:33 21,3 °C 6,7 °C 57 % 89 % 1032,1 hPa 0,0 l/m² 0,7 km/h (0 Bft) O 85 ° 0 min 30 W/m² 5,0 °C 6,7 °C 4,8 km/h (1 Bft)
12.11.2024 15:35 21,3 °C 6,7 °C 57 % 89 % 1032,1 hPa 0,0 l/m² 1,7 km/h (1 Bft) O 85 ° 0 min 25 W/m² 5,0 °C 6,7 °C 4,8 km/h (1 Bft)
12.11.2024 15:37 21,4 °C 6,7 °C 57 % 89 % 1032,1 hPa 0,0 l/m² 2,4 km/h (1 Bft) O 85 ° 0 min 21 W/m² 5,0 °C 6,7 °C 3,2 km/h (1 Bft)
12.11.2024 15:39 21,3 °C 6,7 °C 57 % 89 % 1032,1 hPa 0,0 l/m² 1,7 km/h (1 Bft) O 85 ° 0 min 23 W/m² 5,0 °C 6,7 °C 3,2 km/h (1 Bft)
12.11.2024 15:41 21,3 °C 6,7 °C 57 % 89 % 1032,1 hPa 0,0 l/m² 1,1 km/h (1 Bft) O 85 ° 0 min 21 W/m² 5,0 °C 6,7 °C 3,2 km/h (1 Bft)
12.11.2024 15:43 21,3 °C 6,7 °C 57 % 89 % 1032,1 hPa 0,0 l/m² 0,8 km/h (0 Bft) O 85 ° 0 min 23 W/m² 5,0 °C 6,7 °C 3,2 km/h (1 Bft)
12.11.2024 15:45 21,3 °C 6,7 °C 57 % 89 % 1032,1 hPa 0,0 l/m² 0,0 km/h (0 Bft) O 85 ° 0 min 23 W/m² 5,0 °C 6,7 °C 0,0 km/h (0 Bft)
12.11.2024 15:47 21,3 °C 6,7 °C 57 % 89 % 1032,1 hPa 0,0 l/m² 0,0 km/h (0 Bft) O 85 ° 0 min 26 W/m² 5,0 °C 6,7 °C 0,0 km/h (0 Bft)
12.11.2024 15:48 21,3 °C 6,6 °C 57 % 89 % 1032,1 hPa 0,0 l/m² 0,0 km/h (0 Bft) O 85 ° 0 min 28 W/m² 4,9 °C 6,6 °C 0,0 km/h (0 Bft)
12.11.2024 15:50 21,3 °C 6,6 °C 57 % 89 % 1032,1 hPa 0,0 l/m² 0,0 km/h (0 Bft) O 85 ° 0 min 30 W/m² 4,9 °C 6,6 °C 0,0 km/h (0 Bft)
12.11.2024 15:52 21,3 °C 6,6 °C 57 % 89 % 1032,1 hPa 0,0 l/m² 0,0 km/h (0 Bft) O 85 ° 0 min 30 W/m² 4,9 °C 6,6 °C 0,0 km/h (0 Bft)
12.11.2024 15:54 21,3 °C 6,7 °C 57 % 89 % 1032,1 hPa 0,0 l/m² 0,0 km/h (0 Bft) O 85 ° 0 min 32 W/m² 5,0 °C 6,7 °C 0,0 km/h (0 Bft)
12.11.2024 15:56 21,3 °C 6,6 °C 57 % 89 % 1032,1 hPa 0,0 l/m² 0,0 km/h (0 Bft) O 85 ° 0 min 32 W/m² 4,9 °C 6,6 °C 0,0 km/h (0 Bft)
12.11.2024 15:58 21,3 °C 6,6 °C 57 % 89 % 1032,2 hPa 0,0 l/m² 0,0 km/h (0 Bft) O 85 ° 0 min 28 W/m² 4,9 °C 6,6 °C 0,0 km/h (0 Bft)
12.11.2024 16:00 21,3 °C 6,6 °C 57 % 89 % 1032,2 hPa 0,0 l/m² 0,0 km/h (0 Bft) O 85 ° 0 min 23 W/m² 4,9 °C 6,6 °C 0,0 km/h (0 Bft)
12.11.2024 16:01 21,3 °C 6,6 °C 57 % 89 % 1032,1 hPa 0,0 l/m² 0,0 km/h (0 Bft) O 85 ° 0 min 19 W/m² 4,9 °C 6,6 °C 0,0 km/h (0 Bft)
12.11.2024 16:03 21,3 °C 6,6 °C 57 % 89 % 1032,1 hPa 0,0 l/m² 0,0 km/h (0 Bft) O 85 ° 0 min 14 W/m² 4,9 °C 6,6 °C 0,0 km/h (0 Bft)
12.11.2024 16:05 21,3 °C 6,6 °C 57 % 89 % 1032,1 hPa 0,0 l/m² 0,0 km/h (0 Bft) O 85 ° 0 min 11 W/m² 4,9 °C 6,6 °C 0,0 km/h (0 Bft)
12.11.2024 16:07 21,3 °C 6,6 °C 57 % 89 % 1032,2 hPa 0,0 l/m² 0,0 km/h (0 Bft) O 85 ° 0 min 9 W/m² 4,9 °C 6,6 °C 0,0 km/h (0 Bft)
12.11.2024 16:09 21,3 °C 6,6 °C 57 % 89 % 1032,1 hPa 0,0 l/m² 0,0 km/h (0 Bft) O 85 ° 0 min 5 W/m² 4,9 °C 6,6 °C 0,0 km/h (0 Bft)
12.11.2024 16:11 21,3 °C 6,6 °C 57 % 89 % 1032,1 hPa 0,0 l/m² 0,0 km/h (0 Bft) O 85 ° 0 min 5 W/m² 4,9 °C 6,6 °C 0,0 km/h (0 Bft)
12.11.2024 16:12 21,3 °C 6,5 °C 57 % 89 % 1032,1 hPa 0,0 l/m² 0,0 km/h (0 Bft) O 85 ° 0 min 5 W/m² 4,8 °C 6,5 °C 0,0 km/h (0 Bft)
12.11.2024 16:13 21,3 °C 6,5 °C 57 % 89 % 1032,1 hPa 0,0 l/m² 0,0 km/h (0 Bft) O 85 ° 0 min 5 W/m² 4,8 °C 6,5 °C 0,0 km/h (0 Bft)
12.11.2024 16:15 21,3 °C 6,5 °C 57 % 89 % 1032,1 hPa 0,0 l/m² 0,0 km/h (0 Bft) O 85 ° 0 min 5 W/m² 4,8 °C 6,5 °C 0,0 km/h (0 Bft)
12.11.2024 16:17 21,3 °C 6,6 °C 57 % 89 % 1032,1 hPa 0,0 l/m² 0,0 km/h (0 Bft) O 85 ° 0 min 0 W/m² 4,9 °C 6,6 °C 0,0 km/h (0 Bft)
12.11.2024 16:19 21,3 °C 6,5 °C 57 % 89 % 1032,1 hPa 0,0 l/m² 0,0 km/h (0 Bft) O 85 ° 0 min 0 W/m² 4,8 °C 6,5 °C 0,0 km/h (0 Bft)
12.11.2024 16:21 21,3 °C 6,5 °C 57 % 89 % 1032,1 hPa 0,0 l/m² 0,0 km/h (0 Bft) O 85 ° 0 min 0 W/m² 4,8 °C 6,5 °C 0,0 km/h (0 Bft)
12.11.2024 16:22 21,3 °C 6,5 °C 57 % 89 % 1032,2 hPa 0,0 l/m² 0,0 km/h (0 Bft) O 85 ° 0 min 0 W/m² 4,8 °C 6,5 °C 0,0 km/h (0 Bft)
12.11.2024 16:23 21,3 °C 6,5 °C 57 % 89 % 1032,2 hPa 0,0 l/m² 0,0 km/h (0 Bft) O 85 ° 0 min 0 W/m² 4,8 °C 6,5 °C 0,0 km/h (0 Bft)
12.11.2024 16:25 21,3 °C 6,5 °C 57 % 89 % 1032,1 hPa 0,0 l/m² 0,0 km/h (0 Bft) O 85 ° 0 min 0 W/m² 4,8 °C 6,5 °C 0,0 km/h (0 Bft)
12.11.2024 16:27 21,3 °C 6,4 °C 57 % 89 % 1032,2 hPa 0,0 l/m² 0,0 km/h (0 Bft) O 85 ° 0 min 0 W/m² 4,7 °C 6,4 °C 0,0 km/h (0 Bft)
12.11.2024 16:29 21,3 °C 6,4 °C 57 % 89 % 1032,1 hPa 0,0 l/m² 0,0 km/h (0 Bft) O 85 ° 0 min 0 W/m² 4,7 °C 6,4 °C 0,0 km/h (0 Bft)
12.11.2024 16:31 21,3 °C 6,4 °C 57 % 89 % 1032,1 hPa 0,0 l/m² 0,0 km/h (0 Bft) O 85 ° 0 min 0 W/m² 4,7 °C 6,4 °C 0,0 km/h (0 Bft)
12.11.2024 16:33 21,3 °C 6,4 °C 57 % 89 % 1032,1 hPa 0,0 l/m² 0,0 km/h (0 Bft) O 85 ° 0 min 0 W/m² 4,7 °C 6,4 °C 0,0 km/h (0 Bft)
12.11.2024 16:35 21,3 °C 6,4 °C 57 % 89 % 1032,2 hPa 0,0 l/m² 0,0 km/h (0 Bft) O 85 ° 0 min 0 W/m² 4,7 °C 6,4 °C 0,0 km/h (0 Bft)
12.11.2024 16:37 21,3 °C 6,4 °C 57 % 89 % 1032,1 hPa 0,0 l/m² 0,0 km/h (0 Bft) O 85 ° 0 min 0 W/m² 4,7 °C 6,4 °C 0,0 km/h (0 Bft)
12.11.2024 16:39 21,3 °C 6,4 °C 57 % 89 % 1032,2 hPa 0,0 l/m² 0,0 km/h (0 Bft) O 85 ° 0 min 0 W/m² 4,7 °C 6,4 °C 0,0 km/h (0 Bft)
12.11.2024 16:41 21,2 °C 6,4 °C 57 % 89 % 1032,2 hPa 0,0 l/m² 0,0 km/h (0 Bft) O 85 ° 0 min 0 W/m² 4,7 °C 6,4 °C 0,0 km/h (0 Bft)
12.11.2024 16:43 21,3 °C 6,4 °C 57 % 89 % 1032,2 hPa 0,0 l/m² 0,0 km/h (0 Bft) O 85 ° 0 min 0 W/m² 4,7 °C 6,4 °C 0,0 km/h (0 Bft)
12.11.2024 16:45 21,3 °C 6,4 °C 57 % 89 % 1032,3 hPa 0,0 l/m² 0,0 km/h (0 Bft) O 85 ° 0 min 0 W/m² 4,7 °C 6,4 °C 0,0 km/h (0 Bft)
12.11.2024 16:47 21,3 °C 6,3 °C 57 % 89 % 1032,3 hPa 0,0 l/m² 0,0 km/h (0 Bft) O 85 ° 0 min 0 W/m² 4,6 °C 6,3 °C 0,0 km/h (0 Bft)
12.11.2024 16:49 21,2 °C 6,3 °C 57 % 89 % 1032,2 hPa 0,0 l/m² 0,0 km/h (0 Bft) O 85 ° 0 min 0 W/m² 4,6 °C 6,3 °C 0,0 km/h (0 Bft)
12.11.2024 16:51 21,3 °C 6,3 °C 57 % 89 % 1032,2 hPa 0,0 l/m² 0,0 km/h (0 Bft) O 85 ° 0 min 0 W/m² 4,6 °C 6,3 °C 0,0 km/h (0 Bft)
12.11.2024 16:53 21,3 °C 6,3 °C 57 % 90 % 1032,2 hPa 0,0 l/m² 0,0 km/h (0 Bft) O 85 ° 0 min 0 W/m² 4,8 °C 6,3 °C 0,0 km/h (0 Bft)
12.11.2024 16:55 21,3 °C 6,3 °C 57 % 90 % 1032,2 hPa 0,0 l/m² 0,1 km/h (0 Bft) O 85 ° 0 min 0 W/m² 4,8 °C 6,3 °C 1,6 km/h (1 Bft)
12.11.2024 16:57 21,3 °C 6,3 °C 57 % 90 % 1032,3 hPa 0,0 l/m² 0,1 km/h (0 Bft) O 85 ° 0 min 0 W/m² 4,8 °C 6,3 °C 1,6 km/h (1 Bft)
12.11.2024 16:59 21,2 °C 6,3 °C 57 % 90 % 1032,2 hPa 0,0 l/m² 0,7 km/h (0 Bft) O 85 ° 0 min 0 W/m² 4,8 °C 6,3 °C 3,2 km/h (1 Bft)
12.11.2024 17:01 21,2 °C 6,3 °C 57 % 90 % 1032,3 hPa 0,0 l/m² 0,0 km/h (0 Bft) O 85 ° 0 min 0 W/m² 4,8 °C 6,3 °C 0,0 km/h (0 Bft)
12.11.2024 17:03 21,2 °C 6,3 °C 57 % 90 % 1032,3 hPa 0,0 l/m² 0,0 km/h (0 Bft) O 85 ° 0 min 0 W/m² 4,8 °C 6,3 °C 0,0 km/h (0 Bft)
12.11.2024 17:05 21,2 °C 6,3 °C 57 % 90 % 1032,3 hPa 0,0 l/m² 0,8 km/h (0 Bft) O 85 ° 0 min 0 W/m² 4,8 °C 6,3 °C 3,2 km/h (1 Bft)
12.11.2024 17:07 21,2 °C 6,3 °C 56 % 90 % 1032,3 hPa 0,0 l/m² 2,7 km/h (1 Bft) O 85 ° 0 min 0 W/m² 4,8 °C 6,3 °C 4,8 km/h (1 Bft)
12.11.2024 17:09 21,2 °C 6,3 °C 56 % 90 % 1032,3 hPa 0,0 l/m² 1,8 km/h (1 Bft) O 85 ° 0 min 0 W/m² 4,8 °C 6,3 °C 4,8 km/h (1 Bft)
12.11.2024 17:11 21,2 °C 6,3 °C 56 % 90 % 1032,3 hPa 0,0 l/m² 0,0 km/h (0 Bft) O 85 ° 0 min 0 W/m² 4,8 °C 6,3 °C 0,0 km/h (0 Bft)
12.11.2024 17:13 21,2 °C 6,3 °C 56 % 90 % 1032,2 hPa 0,0 l/m² 0,0 km/h (0 Bft) O 85 ° 0 min 0 W/m² 4,8 °C 6,3 °C 0,0 km/h (0 Bft)
12.11.2024 17:15 21,2 °C 6,3 °C 56 % 90 % 1032,3 hPa 0,0 l/m² 0,0 km/h (0 Bft) O 85 ° 0 min 0 W/m² 4,8 °C 6,3 °C 0,0 km/h (0 Bft)
12.11.2024 17:17 21,2 °C 6,3 °C 56 % 90 % 1032,2 hPa 0,0 l/m² 0,0 km/h (0 Bft) O 85 ° 0 min 0 W/m² 4,8 °C 6,3 °C 0,0 km/h (0 Bft)
12.11.2024 17:19 21,2 °C 6,3 °C 56 % 90 % 1032,2 hPa 0,0 l/m² 0,0 km/h (0 Bft) O 85 ° 0 min 0 W/m² 4,8 °C 6,3 °C 0,0 km/h (0 Bft)
12.11.2024 17:21 21,2 °C 6,3 °C 56 % 90 % 1032,2 hPa 0,0 l/m² 0,0 km/h (0 Bft) O 85 ° 0 min 0 W/m² 4,8 °C 6,3 °C 0,0 km/h (0 Bft)
12.11.2024 17:23 21,2 °C 6,3 °C 56 % 90 % 1032,2 hPa 0,0 l/m² 0,0 km/h (0 Bft) O 85 ° 0 min 0 W/m² 4,8 °C 6,3 °C 0,0 km/h (0 Bft)
12.11.2024 17:25 21,2 °C 6,3 °C 56 % 90 % 1032,2 hPa 0,0 l/m² 0,6 km/h (0 Bft) O 85 ° 0 min 0 W/m² 4,8 °C 6,3 °C 3,2 km/h (1 Bft)
12.11.2024 17:27 21,2 °C 6,3 °C 56 % 90 % 1032,2 hPa 0,0 l/m² 0,0 km/h (0 Bft) O 85 ° 0 min 0 W/m² 4,8 °C 6,3 °C 0,0 km/h (0 Bft)
12.11.2024 17:29 21,2 °C 6,3 °C 56 % 90 % 1032,2 hPa 0,0 l/m² 0,0 km/h (0 Bft) O 85 ° 0 min 0 W/m² 4,8 °C 6,3 °C 0,0 km/h (0 Bft)
12.11.2024 17:31 21,2 °C 6,3 °C 56 % 90 % 1032,3 hPa 0,0 l/m² 0,3 km/h (0 Bft) O 85 ° 0 min 0 W/m² 4,8 °C 6,3 °C 1,6 km/h (1 Bft)
12.11.2024 17:33 21,2 °C 6,3 °C 56 % 90 % 1032,3 hPa 0,0 l/m² 1,7 km/h (1 Bft) O 85 ° 0 min 0 W/m² 4,8 °C 6,3 °C 4,8 km/h (1 Bft)
12.11.2024 17:35 21,2 °C 6,3 °C 56 % 91 % 1032,3 hPa 0,0 l/m² 1,9 km/h (1 Bft) O 85 ° 0 min 0 W/m² 4,9 °C 6,3 °C 4,8 km/h (1 Bft)
12.11.2024 17:37 21,2 °C 6,3 °C 56 % 91 % 1032,3 hPa 0,0 l/m² 0,4 km/h (0 Bft) O 85 ° 0 min 0 W/m² 4,9 °C 6,3 °C 3,2 km/h (1 Bft)
12.11.2024 17:39 21,2 °C 6,3 °C 57 % 91 % 1032,3 hPa 0,0 l/m² 1,2 km/h (1 Bft) O-NO 69 ° 0 min 0 W/m² 4,9 °C 6,3 °C 6,4 km/h (2 Bft)
12.11.2024 17:41 21,2 °C 6,3 °C 57 % 91 % 1032,0 hPa 0,0 l/m² 3,9 km/h (1 Bft) N-NW 339 ° 0 min 0 W/m² 4,9 °C 6,3 °C 9,7 km/h (2 Bft)
12.11.2024 17:43 21,2 °C 6,3 °C 57 % 91 % 1032,1 hPa 0,0 l/m² 4,2 km/h (1 Bft) NO 40 ° 0 min 0 W/m² 4,9 °C 6,3 °C 9,7 km/h (2 Bft)
12.11.2024 17:45 21,2 °C 6,3 °C 57 % 91 % 1032,1 hPa 0,0 l/m² 1,3 km/h (1 Bft) NO 38 ° 0 min 0 W/m² 4,9 °C 6,3 °C 4,8 km/h (1 Bft)
12.11.2024 17:47 21,2 °C 6,3 °C 57 % 91 % 1032,1 hPa 0,0 l/m² 0,2 km/h (0 Bft) NO 39 ° 0 min 0 W/m² 4,9 °C 6,3 °C 1,6 km/h (1 Bft)
12.11.2024 17:49 21,2 °C 6,3 °C 57 % 91 % 1032,1 hPa 0,0 l/m² 0,8 km/h (0 Bft) N-NO 30 ° 0 min 0 W/m² 4,9 °C 6,3 °C 4,8 km/h (1 Bft)
12.11.2024 17:51 21,2 °C 6,3 °C 56 % 91 % 1032,1 hPa 0,0 l/m² 3,5 km/h (1 Bft) N 5 ° 0 min 0 W/m² 4,9 °C 6,3 °C 9,7 km/h (2 Bft)
12.11.2024 17:53 21,2 °C 6,3 °C 56 % 91 % 1032,2 hPa 0,0 l/m² 3,4 km/h (1 Bft) N 5 ° 0 min 0 W/m² 4,9 °C 6,3 °C 6,4 km/h (2 Bft)
12.11.2024 17:55 21,2 °C 6,3 °C 56 % 91 % 1032,2 hPa 0,0 l/m² 3,8 km/h (1 Bft) N-NO 24 ° 0 min 0 W/m² 4,9 °C 6,3 °C 6,4 km/h (2 Bft)
12.11.2024 17:57 21,2 °C 6,3 °C 57 % 91 % 1032,3 hPa 0,0 l/m² 1,8 km/h (1 Bft) N-NO 13 ° 0 min 0 W/m² 4,9 °C 6,3 °C 6,4 km/h (2 Bft)
12.11.2024 17:59 21,2 °C 6,3 °C 57 % 91 % 1032,2 hPa 0,0 l/m² 4,0 km/h (1 Bft) N-NO 25 ° 0 min 0 W/m² 4,9 °C 6,3 °C 12,9 km/h (3 Bft)
12.11.2024 18:01 21,2 °C 6,3 °C 57 % 91 % 1032,3 hPa 0,0 l/m² 2,7 km/h (1 Bft) N 9 ° 0 min 0 W/m² 4,9 °C 6,3 °C 4,8 km/h (1 Bft)
12.11.2024 18:03 21,2 °C 6,3 °C 57 % 91 % 1032,2 hPa 0,0 l/m² 2,1 km/h (1 Bft) N 5 ° 0 min 0 W/m² 4,9 °C 6,3 °C 4,8 km/h (1 Bft)
12.11.2024 18:05 21,3 °C 6,3 °C 57 % 91 % 1032,4 hPa 0,0 l/m² 0,8 km/h (0 Bft) N 5 ° 0 min 0 W/m² 4,9 °C 6,3 °C 4,8 km/h (1 Bft)
12.11.2024 18:07 21,2 °C 6,2 °C 57 % 91 % 1032,3 hPa 0,0 l/m² 1,6 km/h (1 Bft) N 5 ° 0 min 0 W/m² 4,8 °C 6,2 °C 6,4 km/h (2 Bft)
12.11.2024 18:09 21,2 °C 6,2 °C 57 % 91 % 1032,3 hPa 0,0 l/m² 4,0 km/h (1 Bft) N-NO 17 ° 0 min 0 W/m² 4,8 °C 6,2 °C 8,0 km/h (2 Bft)
12.11.2024 18:11 21,2 °C 6,2 °C 57 % 91 % 1032,3 hPa 0,0 l/m² 5,0 km/h (1 Bft) N-NO 17 ° 0 min 0 W/m² 4,8 °C 6,2 °C 8,0 km/h (2 Bft)
12.11.2024 18:13 21,3 °C 6,2 °C 57 % 91 % 1032,3 hPa 0,0 l/m² 4,2 km/h (1 Bft) N 351 ° 0 min 0 W/m² 4,8 °C 6,2 °C 9,7 km/h (2 Bft)
12.11.2024 18:15 21,3 °C 6,2 °C 57 % 91 % 1032,4 hPa 0,0 l/m² 5,1 km/h (1 Bft) N-NW 344 ° 0 min 0 W/m² 4,8 °C 6,2 °C 8,0 km/h (2 Bft)
12.11.2024 18:17 21,2 °C 6,2 °C 57 % 91 % 1032,4 hPa 0,0 l/m² 5,3 km/h (1 Bft) N-NW 344 ° 0 min 0 W/m² 4,8 °C 6,2 °C 9,7 km/h (2 Bft)
12.11.2024 18:19 21,3 °C 6,2 °C 57 % 91 % 1032,3 hPa 0,0 l/m² 6,9 km/h (2 Bft) N 349 ° 0 min 0 W/m² 4,8 °C 5,8 °C 12,9 km/h (3 Bft)
12.11.2024 18:21 21,3 °C 6,2 °C 57 % 91 % 1032,3 hPa 0,0 l/m² 8,0 km/h (2 Bft) N 355 ° 0 min 0 W/m² 4,8 °C 4,9 °C 17,7 km/h (3 Bft)
12.11.2024 18:23 21,3 °C 6,1 °C 57 % 91 % 1032,4 hPa 0,0 l/m² 7,7 km/h (2 Bft) N 11 ° 0 min 0 W/m² 4,7 °C 5,0 °C 12,9 km/h (3 Bft)
12.11.2024 18:25 21,3 °C 6,1 °C 57 % 91 % 1032,4 hPa 0,0 l/m² 6,0 km/h (2 Bft) N-NO 32 ° 0 min 0 W/m² 4,7 °C 6,1 °C 9,7 km/h (2 Bft)
12.11.2024 18:27 21,3 °C 6,1 °C 57 % 90 % 1032,4 hPa 0,0 l/m² 5,5 km/h (2 Bft) N 355 ° 0 min 0 W/m² 4,6 °C 6,1 °C 12,9 km/h (3 Bft)
12.11.2024 18:29 21,3 °C 6,0 °C 57 % 90 % 1032,4 hPa 0,0 l/m² 3,1 km/h (1 Bft) N 9 ° 0 min 0 W/m² 4,5 °C 6,0 °C 8,0 km/h (2 Bft)
12.11.2024 18:31 21,3 °C 6,0 °C 57 % 90 % 1032,4 hPa 0,0 l/m² 2,5 km/h (1 Bft) N 10 ° 0 min 0 W/m² 4,5 °C 6,0 °C 6,4 km/h (2 Bft)
12.11.2024 18:33 21,3 °C 6,0 °C 57 % 90 % 1032,4 hPa 0,0 l/m² 4,1 km/h (1 Bft) N 5 ° 0 min 0 W/m² 4,5 °C 6,0 °C 9,7 km/h (2 Bft)
12.11.2024 18:35 21,3 °C 5,9 °C 57 % 90 % 1032,4 hPa 0,0 l/m² 3,6 km/h (1 Bft) N-NW 345 ° 0 min 0 W/m² 4,4 °C 5,9 °C 11,3 km/h (2 Bft)
12.11.2024 18:37 21,3 °C 5,9 °C 57 % 90 % 1032,4 hPa 0,0 l/m² 2,6 km/h (1 Bft) NO 35 ° 0 min 0 W/m² 4,4 °C 5,9 °C 6,4 km/h (2 Bft)
12.11.2024 18:39 21,3 °C 5,9 °C 57 % 90 % 1032,4 hPa 0,0 l/m² 4,6 km/h (1 Bft) N-NO 33 ° 0 min 0 W/m² 4,4 °C 5,9 °C 9,7 km/h (2 Bft)
12.11.2024 18:41 21,3 °C 5,9 °C 57 % 90 % 1032,4 hPa 0,0 l/m² 4,7 km/h (1 Bft) N-NO 25 ° 0 min 0 W/m² 4,4 °C 5,9 °C 12,9 km/h (3 Bft)
12.11.2024 18:42 21,3 °C 5,9 °C 58 % 90 % 1032,4 hPa 0,0 l/m² 7,6 km/h (2 Bft) N 355 ° 0 min 0 W/m² 4,4 °C 4,9 °C 14,5 km/h (3 Bft)
12.11.2024 18:43 21,3 °C 5,9 °C 58 % 90 % 1032,4 hPa 0,0 l/m² 5,4 km/h (2 Bft) N-NO 12 ° 0 min 0 W/m² 4,4 °C 5,9 °C 8,0 km/h (2 Bft)
12.11.2024 18:45 21,3 °C 5,9 °C 58 % 90 % 1032,4 hPa 0,0 l/m² 2,5 km/h (1 Bft) N 355 ° 0 min 0 W/m² 4,4 °C 5,9 °C 6,4 km/h (2 Bft)
12.11.2024 18:46 21,3 °C 5,9 °C 58 % 90 % 1032,5 hPa 0,0 l/m² 8,0 km/h (2 Bft) N-NO 26 ° 0 min 0 W/m² 4,4 °C 4,5 °C 8,0 km/h (2 Bft)
12.11.2024 18:47 21,3 °C 5,9 °C 58 % 90 % 1032,4 hPa 0,0 l/m² 4,2 km/h (1 Bft) N-NO 15 ° 0 min 0 W/m² 4,4 °C 5,9 °C 9,7 km/h (2 Bft)
12.11.2024 18:48 21,3 °C 5,8 °C 58 % 90 % 1032,4 hPa 0,0 l/m² 1,3 km/h (1 Bft) N-NO 15 ° 0 min 0 W/m² 4,3 °C 5,8 °C 6,4 km/h (2 Bft)
12.11.2024 18:50 21,3 °C 5,9 °C 58 % 90 % 1032,4 hPa 0,0 l/m² 4,8 km/h (1 Bft) N-NO 22 ° 0 min 0 W/m² 4,4 °C 5,9 °C 6,4 km/h (2 Bft)
12.11.2024 18:52 21,3 °C 5,8 °C 58 % 89 % 1032,4 hPa 0,0 l/m² 0,7 km/h (0 Bft) N-NO 25 ° 0 min 0 W/m² 4,1 °C 5,8 °C 4,8 km/h (1 Bft)
12.11.2024 18:54 21,3 °C 5,9 °C 58 % 89 % 1032,4 hPa 0,0 l/m² 0,6 km/h (0 Bft) N-NO 26 ° 0 min 0 W/m² 4,2 °C 5,9 °C 1,6 km/h (1 Bft)
12.11.2024 18:56 21,2 °C 5,9 °C 58 % 89 % 1032,4 hPa 0,0 l/m² 1,2 km/h (1 Bft) N-NO 28 ° 0 min 0 W/m² 4,2 °C 5,9 °C 6,4 km/h (2 Bft)
12.11.2024 18:58 21,2 °C 5,8 °C 58 % 89 % 1032,4 hPa 0,0 l/m² 0,0 km/h (0 Bft) N-NO 28 ° 0 min 0 W/m² 4,1 °C 5,8 °C 0,0 km/h (0 Bft)
12.11.2024 19:00 21,2 °C 5,8 °C 58 % 89 % 1032,4 hPa 0,0 l/m² 0,0 km/h (0 Bft) N-NO 28 ° 0 min 0 W/m² 4,1 °C 5,8 °C 0,0 km/h (0 Bft)
12.11.2024 19:02 21,2 °C 5,8 °C 58 % 89 % 1032,4 hPa 0,0 l/m² 0,0 km/h (0 Bft) N-NO 28 ° 0 min 0 W/m² 4,1 °C 5,8 °C 0,0 km/h (0 Bft)
12.11.2024 19:04 21,2 °C 5,8 °C 58 % 89 % 1032,5 hPa 0,0 l/m² 4,0 km/h (1 Bft) NO 40 ° 0 min 0 W/m² 4,1 °C 5,8 °C 11,3 km/h (2 Bft)
12.11.2024 19:06 21,2 °C 5,8 °C 58 % 89 % 1032,4 hPa 0,0 l/m² 5,8 km/h (2 Bft) NO 38 ° 0 min 0 W/m² 4,1 °C 5,8 °C 9,7 km/h (2 Bft)
12.11.2024 19:08 21,2 °C 5,8 °C 58 % 89 % 1032,4 hPa 0,0 l/m² 5,0 km/h (1 Bft) NO 45 ° 0 min 0 W/m² 4,1 °C 5,8 °C 8,0 km/h (2 Bft)
12.11.2024 19:10 21,2 °C 5,8 °C 58 % 89 % 1032,4 hPa 0,0 l/m² 5,7 km/h (2 Bft) NO 44 ° 0 min 0 W/m² 4,1 °C 5,8 °C 12,9 km/h (3 Bft)
12.11.2024 19:12 21,2 °C 5,7 °C 58 % 89 % 1032,5 hPa 0,0 l/m² 7,9 km/h (2 Bft) N-NO 26 ° 0 min 0 W/m² 4,0 °C 4,4 °C 12,9 km/h (3 Bft)
12.11.2024 19:14 21,2 °C 5,7 °C 58 % 89 % 1032,4 hPa 0,0 l/m² 5,3 km/h (1 Bft) NO 49 ° 0 min 0 W/m² 4,0 °C 5,7 °C 11,3 km/h (2 Bft)
12.11.2024 19:16 21,2 °C 5,7 °C 58 % 88 % 1032,5 hPa 0,0 l/m² 4,6 km/h (1 Bft) N-NO 32 ° 0 min 0 W/m² 3,9 °C 5,7 °C 8,0 km/h (2 Bft)
12.11.2024 19:18 21,2 °C 5,6 °C 58 % 88 % 1032,4 hPa 0,0 l/m² 6,0 km/h (2 Bft) O-NO 69 ° 0 min 0 W/m² 3,8 °C 5,6 °C 12,9 km/h (3 Bft)
12.11.2024 19:20 21,2 °C 5,6 °C 58 % 88 % 1032,4 hPa 0,0 l/m² 7,5 km/h (2 Bft) N-NO 26 ° 0 min 0 W/m² 3,8 °C 4,6 °C 14,5 km/h (3 Bft)
12.11.2024 19:22 21,2 °C 5,5 °C 58 % 88 % 1032,4 hPa 0,0 l/m² 9,6 km/h (2 Bft) N-NO 33 ° 0 min 0 W/m² 3,7 °C 2,9 °C 16,1 km/h (3 Bft)
12.11.2024 19:24 21,2 °C 5,4 °C 58 % 87 % 1032,4 hPa 0,0 l/m² 8,0 km/h (2 Bft) N-NO 21 ° 0 min 0 W/m² 3,4 °C 4,0 °C 16,1 km/h (3 Bft)
12.11.2024 19:26 21,2 °C 5,4 °C 58 % 87 % 1032,4 hPa 0,0 l/m² 6,5 km/h (2 Bft) N-NO 12 ° 0 min 0 W/m² 3,4 °C 5,3 °C 12,9 km/h (3 Bft)
12.11.2024 19:28 21,2 °C 5,3 °C 58 % 87 % 1032,5 hPa 0,0 l/m² 7,6 km/h (2 Bft) N 355 ° 0 min 0 W/m² 3,3 °C 4,3 °C 16,1 km/h (3 Bft)
12.11.2024 19:30 21,2 °C 5,3 °C 58 % 87 % 1032,4 hPa 0,0 l/m² 7,5 km/h (2 Bft) N 5 ° 0 min 0 W/m² 3,3 °C 4,3 °C 16,1 km/h (3 Bft)
12.11.2024 19:32 21,2 °C 5,3 °C 57 % 87 % 1032,4 hPa 0,0 l/m² 5,5 km/h (2 Bft) N-NW 346 ° 0 min 0 W/m² 3,3 °C 5,3 °C 12,9 km/h (3 Bft)
12.11.2024 19:34 21,2 °C 5,3 °C 57 % 87 % 1032,4 hPa 0,0 l/m² 5,9 km/h (2 Bft) N-NO 13 ° 0 min 0 W/m² 3,3 °C 5,3 °C 9,7 km/h (2 Bft)
12.11.2024 19:36 21,2 °C 5,3 °C 57 % 87 % 1032,4 hPa 0,0 l/m² 4,5 km/h (1 Bft) N 350 ° 0 min 0 W/m² 3,3 °C 5,3 °C 9,7 km/h (2 Bft)
12.11.2024 19:38 21,2 °C 5,2 °C 57 % 87 % 1032,4 hPa 0,0 l/m² 6,0 km/h (2 Bft) N-NO 24 ° 0 min 0 W/m² 3,2 °C 5,2 °C 14,5 km/h (3 Bft)
12.11.2024 19:40 21,2 °C 5,2 °C 57 % 87 % 1032,4 hPa 0,0 l/m² 6,2 km/h (2 Bft) N 5 ° 0 min 0 W/m² 3,2 °C 5,2 °C 14,5 km/h (3 Bft)
12.11.2024 19:42 21,2 °C 5,2 °C 57 % 86 % 1032,4 hPa 0,0 l/m² 3,6 km/h (1 Bft) N-NO 13 ° 0 min 0 W/m² 3,1 °C 5,2 °C 8,0 km/h (2 Bft)
12.11.2024 19:44 21,2 °C 5,2 °C 57 % 86 % 1032,4 hPa 0,0 l/m² 6,2 km/h (2 Bft) N 355 ° 0 min 0 W/m² 3,1 °C 5,2 °C 12,9 km/h (3 Bft)
12.11.2024 19:46 21,2 °C 5,2 °C 57 % 86 % 1032,4 hPa 0,0 l/m² 7,5 km/h (2 Bft) N-NW 345 ° 0 min 0 W/m² 3,1 °C 4,2 °C 12,9 km/h (3 Bft)
12.11.2024 19:48 21,3 °C 5,2 °C 57 % 86 % 1032,5 hPa 0,0 l/m² 9,8 km/h (2 Bft) N 5 ° 0 min 0 W/m² 3,1 °C 2,4 °C 16,1 km/h (3 Bft)
12.11.2024 19:50 21,2 °C 5,1 °C 57 % 87 % 1032,5 hPa 0,0 l/m² 8,0 km/h (2 Bft) N 349 ° 0 min 0 W/m² 3,1 °C 3,7 °C 14,5 km/h (3 Bft)
12.11.2024 19:52 21,3 °C 5,1 °C 57 % 86 % 1032,5 hPa 0,0 l/m² 8,5 km/h (2 Bft) N 350 ° 0 min 0 W/m² 3,0 °C 3,3 °C 14,5 km/h (3 Bft)
12.11.2024 19:54 21,3 °C 5,1 °C 58 % 87 % 1032,5 hPa 0,0 l/m² 8,7 km/h (2 Bft) N 5 ° 0 min 0 W/m² 3,1 °C 3,1 °C 14,5 km/h (3 Bft)
12.11.2024 19:56 21,3 °C 5,0 °C 58 % 87 % 1032,5 hPa 0,0 l/m² 5,6 km/h (2 Bft) N-NO 22 ° 0 min 0 W/m² 3,0 °C 5,0 °C 12,9 km/h (3 Bft)
12.11.2024 19:58 21,3 °C 5,0 °C 58 % 87 % 1032,4 hPa 0,0 l/m² 8,1 km/h (2 Bft) N-NO 22 ° 0 min 0 W/m² 3,0 °C 3,5 °C 14,5 km/h (3 Bft)
12.11.2024 20:00 21,3 °C 4,9 °C 58 % 87 % 1032,5 hPa 0,0 l/m² 7,9 km/h (2 Bft) N 355 ° 0 min 0 W/m² 2,9 °C 3,6 °C 16,1 km/h (3 Bft)
12.11.2024 20:01 21,3 °C 4,9 °C 58 % 87 % 1032,5 hPa 0,0 l/m² 6,7 km/h (2 Bft) N 5 ° 0 min 0 W/m² 2,9 °C 4,7 °C 14,5 km/h (3 Bft)
12.11.2024 20:02 21,3 °C 4,9 °C 58 % 87 % 1032,5 hPa 0,0 l/m² 6,4 km/h (2 Bft) N 360 ° 0 min 0 W/m² 2,9 °C 4,9 °C 9,7 km/h (2 Bft)
12.11.2024 20:03 21,3 °C 4,9 °C 58 % 87 % 1032,5 hPa 0,0 l/m² 5,2 km/h (1 Bft) N-NO 18 ° 0 min 0 W/m² 2,9 °C 4,9 °C 8,0 km/h (2 Bft)
12.11.2024 20:04 21,3 °C 4,9 °C 58 % 87 % 1032,6 hPa 0,0 l/m² 8,7 km/h (2 Bft) N-NO 16 ° 0 min 0 W/m² 2,9 °C 2,9 °C 12,9 km/h (3 Bft)
12.11.2024 20:05 21,4 °C 4,9 °C 58 % 87 % 1032,6 hPa 0,0 l/m² 7,7 km/h (2 Bft) N-NO 30 ° 0 min 0 W/m² 2,9 °C 3,8 °C 12,9 km/h (3 Bft)
12.11.2024 20:06 21,4 °C 4,9 °C 58 % 87 % 1032,6 hPa 0,0 l/m² 6,8 km/h (2 Bft) N-NO 25 ° 0 min 0 W/m² 2,9 °C 4,6 °C 11,3 km/h (2 Bft)
12.11.2024 20:07 21,4 °C 4,8 °C 58 % 87 % 1032,6 hPa 0,0 l/m² 5,8 km/h (2 Bft) N 5 ° 0 min 0 W/m² 2,8 °C 4,8 °C 12,9 km/h (3 Bft)
12.11.2024 20:08 21,4 °C 4,9 °C 58 % 88 % 1032,6 hPa 0,0 l/m² 5,6 km/h (2 Bft) NO 44 ° 0 min 0 W/m² 3,1 °C 4,9 °C 9,7 km/h (2 Bft)
12.11.2024 20:09 21,4 °C 4,8 °C 58 % 88 % 1032,6 hPa 0,0 l/m² 6,2 km/h (2 Bft) N-NO 22 ° 0 min 0 W/m² 3,0 °C 4,8 °C 9,7 km/h (2 Bft)
12.11.2024 20:10 21,4 °C 4,8 °C 58 % 88 % 1032,7 hPa 0,0 l/m² 4,6 km/h (1 Bft) N 5 ° 0 min 0 W/m² 3,0 °C 4,8 °C 8,0 km/h (2 Bft)
12.11.2024 20:11 21,4 °C 4,8 °C 58 % 88 % 1032,6 hPa 0,0 l/m² 2,4 km/h (1 Bft) N-NO 33 ° 0 min 0 W/m² 3,0 °C 4,8 °C 4,8 km/h (1 Bft)
12.11.2024 20:12 21,4 °C 4,8 °C 58 % 88 % 1032,6 hPa 0,0 l/m² 4,5 km/h (1 Bft) N-NO 30 ° 0 min 0 W/m² 3,0 °C 4,8 °C 6,4 km/h (2 Bft)
12.11.2024 20:13 21,4 °C 4,8 °C 58 % 88 % 1032,6 hPa 0,0 l/m² 3,1 km/h (1 Bft) N 11 ° 0 min 0 W/m² 3,0 °C 4,8 °C 6,4 km/h (2 Bft)
12.11.2024 20:14 21,4 °C 4,8 °C 58 % 88 % 1032,6 hPa 0,0 l/m² 3,4 km/h (1 Bft) N-NO 13 ° 0 min 0 W/m² 3,0 °C 4,8 °C 4,8 km/h (1 Bft)
12.11.2024 20:15 21,4 °C 4,8 °C 58 % 88 % 1032,6 hPa 0,0 l/m² 5,3 km/h (1 Bft) N-NO 28 ° 0 min 0 W/m² 3,0 °C 4,8 °C 8,0 km/h (2 Bft)
12.11.2024 20:16 21,4 °C 4,8 °C 58 % 88 % 1032,5 hPa 0,0 l/m² 5,3 km/h (1 Bft) NO 41 ° 0 min 0 W/m² 3,0 °C 4,8 °C 9,7 km/h (2 Bft)
12.11.2024 20:17 21,4 °C 4,8 °C 58 % 88 % 1032,5 hPa 0,0 l/m² 3,8 km/h (1 Bft) N-NO 17 ° 0 min 0 W/m² 3,0 °C 4,8 °C 8,0 km/h (2 Bft)
12.11.2024 20:18 21,4 °C 4,8 °C 58 % 88 % 1032,5 hPa 0,0 l/m² 2,7 km/h (1 Bft) NO 36 ° 0 min 0 W/m² 3,0 °C 4,8 °C 4,8 km/h (1 Bft)
12.11.2024 20:19 21,5 °C 4,7 °C 58 % 88 % 1032,5 hPa 0,0 l/m² 2,3 km/h (1 Bft) N 355 ° 0 min 0 W/m² 2,9 °C 4,7 °C 4,8 km/h (1 Bft)
12.11.2024 20:20 21,5 °C 4,7 °C 58 % 88 % 1032,4 hPa 0,0 l/m² 4,7 km/h (1 Bft) N 360 ° 0 min 0 W/m² 2,9 °C 4,7 °C 8,0 km/h (2 Bft)
12.11.2024 20:21 21,5 °C 4,7 °C 58 % 88 % 1032,5 hPa 0,0 l/m² 5,0 km/h (1 Bft) NO 37 ° 0 min 0 W/m² 2,9 °C 4,7 °C 9,7 km/h (2 Bft)
12.11.2024 20:22 21,4 °C 4,7 °C 58 % 88 % 1032,4 hPa 0,0 l/m² 7,7 km/h (2 Bft) N-NO 22 ° 0 min 0 W/m² 2,9 °C 3,5 °C 14,5 km/h (3 Bft)
12.11.2024 20:23 21,5 °C 4,7 °C 58 % 88 % 1032,5 hPa 0,0 l/m² 7,5 km/h (2 Bft) N-NO 22 ° 0 min 0 W/m² 2,9 °C 3,7 °C 12,9 km/h (3 Bft)
12.11.2024 20:24 21,6 °C 4,7 °C 58 % 88 % 1032,5 hPa 0,0 l/m² 4,8 km/h (1 Bft) N 5 ° 0 min 0 W/m² 2,9 °C 4,7 °C 8,0 km/h (2 Bft)
12.11.2024 20:25 21,5 °C 4,7 °C 58 % 89 % 1032,5 hPa 0,0 l/m² 5,4 km/h (2 Bft) N 349 ° 0 min 0 W/m² 3,0 °C 4,7 °C 9,7 km/h (2 Bft)
12.11.2024 20:26 21,6 °C 4,7 °C 58 % 89 % 1032,5 hPa 0,0 l/m² 4,5 km/h (1 Bft) N 5 ° 0 min 0 W/m² 3,0 °C 4,7 °C 6,4 km/h (2 Bft)
12.11.2024 20:27 21,6 °C 4,7 °C 58 % 89 % 1032,5 hPa 0,0 l/m² 4,5 km/h (1 Bft) NO 39 ° 0 min 0 W/m² 3,0 °C 4,7 °C 6,4 km/h (2 Bft)
12.11.2024 20:28 21,6 °C 4,7 °C 58 % 89 % 1032,6 hPa 0,0 l/m² 4,2 km/h (1 Bft) NO 34 ° 0 min 0 W/m² 3,0 °C 4,7 °C 8,0 km/h (2 Bft)
12.11.2024 20:29 21,5 °C 4,6 °C 58 % 89 % 1032,5 hPa 0,0 l/m² 4,2 km/h (1 Bft) N 350 ° 0 min 0 W/m² 2,9 °C 4,6 °C 6,4 km/h (2 Bft)
12.11.2024 20:30 21,6 °C 4,6 °C 58 % 89 % 1032,5 hPa 0,0 l/m² 5,0 km/h (1 Bft) N 355 ° 0 min 0 W/m² 2,9 °C 4,6 °C 6,4 km/h (2 Bft)
12.11.2024 20:31 21,6 °C 4,6 °C 58 % 89 % 1032,6 hPa 0,0 l/m² 3,8 km/h (1 Bft) N 350 ° 0 min 0 W/m² 2,9 °C 4,6 °C 6,4 km/h (2 Bft)
12.11.2024 20:32 21,6 °C 4,6 °C 58 % 89 % 1032,6 hPa 0,0 l/m² 5,6 km/h (2 Bft) N-NO 32 ° 0 min 0 W/m² 2,9 °C 4,6 °C 9,7 km/h (2 Bft)
12.11.2024 20:33 21,5 °C 4,6 °C 58 % 89 % 1032,5 hPa 0,0 l/m² 7,4 km/h (2 Bft) N-NO 28 ° 0 min 0 W/m² 2,9 °C 3,7 °C 12,9 km/h (3 Bft)
12.11.2024 20:34 21,6 °C 4,6 °C 58 % 89 % 1032,6 hPa 0,0 l/m² 10,6 km/h (2 Bft) N-NO 24 ° 0 min 0 W/m² 2,9 °C 1,2 °C 16,1 km/h (3 Bft)
12.11.2024 20:35 21,6 °C 4,6 °C 58 % 89 % 1032,6 hPa 0,0 l/m² 6,8 km/h (2 Bft) N-NO 30 ° 0 min 0 W/m² 2,9 °C 4,3 °C 11,3 km/h (2 Bft)
12.11.2024 20:36 21,6 °C 4,6 °C 58 % 89 % 1032,6 hPa 0,0 l/m² 5,0 km/h (1 Bft) N-NW 344 ° 0 min 0 W/m² 2,9 °C 4,6 °C 8,0 km/h (2 Bft)
12.11.2024 20:37 21,6 °C 4,6 °C 58 % 89 % 1032,7 hPa 0,0 l/m² 6,2 km/h (2 Bft) N-NW 339 ° 0 min 0 W/m² 2,9 °C 4,6 °C 11,3 km/h (2 Bft)
12.11.2024 20:38 21,6 °C 4,5 °C 58 % 89 % 1032,6 hPa 0,0 l/m² 6,5 km/h (2 Bft) N-NW 344 ° 0 min 0 W/m² 2,8 °C 4,4 °C 9,7 km/h (2 Bft)
12.11.2024 20:39 21,6 °C 4,6 °C 58 % 89 % 1032,6 hPa 0,0 l/m² 6,5 km/h (2 Bft) N 10 ° 0 min 0 W/m² 2,9 °C 4,5 °C 11,3 km/h (2 Bft)
12.11.2024 20:40 21,6 °C 4,5 °C 58 % 89 % 1032,6 hPa 0,0 l/m² 5,3 km/h (1 Bft) N-NO 30 ° 0 min 0 W/m² 2,8 °C 4,5 °C 11,3 km/h (2 Bft)
12.11.2024 20:41 21,6 °C 4,5 °C 58 % 89 % 1032,6 hPa 0,0 l/m² 3,4 km/h (1 Bft) NO 38 ° 0 min 0 W/m² 2,8 °C 4,5 °C 4,8 km/h (1 Bft)
12.11.2024 20:42 21,6 °C 4,5 °C 58 % 90 % 1032,6 hPa 0,0 l/m² 3,9 km/h (1 Bft) N-NO 27 ° 0 min 0 W/m² 3,0 °C 4,5 °C 8,0 km/h (2 Bft)
12.11.2024 20:43 21,6 °C 4,5 °C 58 % 89 % 1032,6 hPa 0,0 l/m² 3,9 km/h (1 Bft) O-NO 63 ° 0 min 0 W/m² 2,8 °C 4,5 °C 9,7 km/h (2 Bft)
12.11.2024 20:44 21,6 °C 4,4 °C 58 % 89 % 1032,5 hPa 0,0 l/m² 5,0 km/h (1 Bft) O-NO 57 ° 0 min 0 W/m² 2,7 °C 4,4 °C 8,0 km/h (2 Bft)
12.11.2024 20:45 21,6 °C 4,4 °C 58 % 89 % 1032,5 hPa 0,0 l/m² 4,0 km/h (1 Bft) NO 44 ° 0 min 0 W/m² 2,7 °C 4,4 °C 8,0 km/h (2 Bft)
12.11.2024 20:46 21,6 °C 4,4 °C 58 % 89 % 1032,6 hPa 0,0 l/m² 3,4 km/h (1 Bft) N-NO 28 ° 0 min 0 W/m² 2,7 °C 4,4 °C 6,4 km/h (2 Bft)
12.11.2024 20:47 21,6 °C 4,4 °C 58 % 90 % 1032,5 hPa 0,0 l/m² 3,0 km/h (1 Bft) N 355 ° 0 min 0 W/m² 2,9 °C 4,4 °C 6,4 km/h (2 Bft)
12.11.2024 20:48 21,6 °C 4,4 °C 58 % 90 % 1032,5 hPa 0,0 l/m² 5,4 km/h (2 Bft) N 5 ° 0 min 0 W/m² 2,9 °C 4,4 °C 8,0 km/h (2 Bft)
12.11.2024 20:49 21,6 °C 4,4 °C 58 % 90 % 1032,5 hPa 0,0 l/m² 3,1 km/h (1 Bft) N-NO 29 ° 0 min 0 W/m² 2,9 °C 4,4 °C 6,4 km/h (2 Bft)
12.11.2024 20:50 21,6 °C 4,4 °C 58 % 90 % 1032,5 hPa 0,0 l/m² 4,8 km/h (1 Bft) NO 37 ° 0 min 0 W/m² 2,9 °C 4,4 °C 8,0 km/h (2 Bft)
12.11.2024 20:51 21,6 °C 4,4 °C 58 % 90 % 1032,5 hPa 0,0 l/m² 4,9 km/h (1 Bft) N-NO 28 ° 0 min 0 W/m² 2,9 °C 4,4 °C 8,0 km/h (2 Bft)
12.11.2024 20:52 21,6 °C 4,4 °C 58 % 90 % 1032,5 hPa 0,0 l/m² 4,3 km/h (1 Bft) NO 46 ° 0 min 0 W/m² 2,9 °C 4,4 °C 8,0 km/h (2 Bft)
12.11.2024 20:53 21,6 °C 4,4 °C 58 % 90 % 1032,5 hPa 0,0 l/m² 2,3 km/h (1 Bft) NO 39 ° 0 min 0 W/m² 2,9 °C 4,4 °C 6,4 km/h (2 Bft)
12.11.2024 20:54 21,6 °C 4,4 °C 58 % 90 % 1032,5 hPa 0,0 l/m² 7,6 km/h (2 Bft) N 360 ° 0 min 0 W/m² 2,9 °C 3,3 °C 14,5 km/h (3 Bft)
12.11.2024 20:55 21,6 °C 4,4 °C 58 % 90 % 1032,5 hPa 0,0 l/m² 4,4 km/h (1 Bft) NO 43 ° 0 min 0 W/m² 2,9 °C 4,4 °C 8,0 km/h (2 Bft)
12.11.2024 20:56 21,6 °C 4,4 °C 58 % 90 % 1032,5 hPa 0,0 l/m² 3,7 km/h (1 Bft) N 355 ° 0 min 0 W/m² 2,9 °C 4,4 °C 11,3 km/h (2 Bft)
12.11.2024 20:57 21,6 °C 4,4 °C 58 % 90 % 1032,5 hPa 0,0 l/m² 4,0 km/h (1 Bft) NO 41 ° 0 min 0 W/m² 2,9 °C 4,4 °C 8,0 km/h (2 Bft)
12.11.2024 20:58 21,6 °C 4,4 °C 58 % 90 % 1032,6 hPa 0,0 l/m² 5,1 km/h (1 Bft) NO 44 ° 0 min 0 W/m² 2,9 °C 4,4 °C 9,7 km/h (2 Bft)
12.11.2024 20:59 21,6 °C 4,4 °C 58 % 90 % 1032,6 hPa 0,0 l/m² 5,6 km/h (2 Bft) NO 34 ° 0 min 0 W/m² 2,9 °C 4,4 °C 8,0 km/h (2 Bft)
12.11.2024 21:00 21,6 °C 4,4 °C 58 % 90 % 1032,6 hPa 0,0 l/m² 8,2 km/h (2 Bft) N-NO 29 ° 0 min 0 W/m² 2,9 °C 2,8 °C 14,5 km/h (3 Bft)
12.11.2024 21:01 21,6 °C 4,3 °C 58 % 90 % 1032,5 hPa 0,0 l/m² 6,8 km/h (2 Bft) NO 49 ° 0 min 0 W/m² 2,8 °C 3,9 °C 8,0 km/h (2 Bft)
12.11.2024 21:02 21,6 °C 4,4 °C 58 % 90 % 1032,6 hPa 0,0 l/m² 4,5 km/h (1 Bft) N-NO 21 ° 0 min 0 W/m² 2,9 °C 4,4 °C 8,0 km/h (2 Bft)
12.11.2024 21:03 21,6 °C 4,3 °C 58 % 90 % 1032,5 hPa 0,0 l/m² 7,0 km/h (2 Bft) N 355 ° 0 min 0 W/m² 2,8 °C 3,8 °C 14,5 km/h (3 Bft)
12.11.2024 21:04 21,6 °C 4,3 °C 58 % 90 % 1032,5 hPa 0,0 l/m² 8,0 km/h (2 Bft) N-NO 27 ° 0 min 0 W/m² 2,8 °C 2,9 °C 14,5 km/h (3 Bft)
12.11.2024 21:05 21,6 °C 4,3 °C 58 % 90 % 1032,6 hPa 0,0 l/m² 7,8 km/h (2 Bft) N 350 ° 0 min 0 W/m² 2,8 °C 3,0 °C 14,5 km/h (3 Bft)
12.11.2024 21:06 21,6 °C 4,3 °C 58 % 90 % 1032,6 hPa 0,0 l/m² 3,7 km/h (1 Bft) NO 42 ° 0 min 0 W/m² 2,8 °C 4,3 °C 6,4 km/h (2 Bft)
12.11.2024 21:07 21,6 °C 4,3 °C 58 % 90 % 1032,6 hPa 0,0 l/m² 5,2 km/h (1 Bft) N 360 ° 0 min 0 W/m² 2,8 °C 4,3 °C 9,7 km/h (2 Bft)
12.11.2024 21:08 21,6 °C 4,3 °C 58 % 90 % 1032,6 hPa 0,0 l/m² 7,6 km/h (2 Bft) N 355 ° 0 min 0 W/m² 2,8 °C 3,2 °C 12,9 km/h (3 Bft)
12.11.2024 21:09 21,6 °C 4,3 °C 58 % 90 % 1032,6 hPa 0,0 l/m² 3,8 km/h (1 Bft) NO 35 ° 0 min 0 W/m² 2,8 °C 4,3 °C 6,4 km/h (2 Bft)
12.11.2024 21:10 21,6 °C 4,3 °C 58 % 90 % 1032,6 hPa 0,0 l/m² 7,0 km/h (2 Bft) NO 53 ° 0 min 0 W/m² 2,8 °C 3,8 °C 12,9 km/h (3 Bft)
12.11.2024 21:11 21,6 °C 4,3 °C 58 % 90 % 1032,6 hPa 0,0 l/m² 7,6 km/h (2 Bft) NO 37 ° 0 min 0 W/m² 2,8 °C 3,2 °C 14,5 km/h (3 Bft)
12.11.2024 21:12 21,6 °C 4,3 °C 58 % 90 % 1032,6 hPa 0,0 l/m² 4,9 km/h (1 Bft) N 5 ° 0 min 0 W/m² 2,8 °C 4,3 °C 8,0 km/h (2 Bft)
12.11.2024 21:13 21,6 °C 4,3 °C 58 % 90 % 1032,6 hPa 0,0 l/m² 4,0 km/h (1 Bft) NO 40 ° 0 min 0 W/m² 2,8 °C 4,3 °C 6,4 km/h (2 Bft)
12.11.2024 21:14 21,6 °C 4,3 °C 58 % 90 % 1032,6 hPa 0,0 l/m² 3,9 km/h (1 Bft) N-NO 22 ° 0 min 0 W/m² 2,8 °C 4,3 °C 6,4 km/h (2 Bft)
12.11.2024 21:15 21,6 °C 4,3 °C 58 % 91 % 1032,5 hPa 0,0 l/m² 3,8 km/h (1 Bft) O-NO 62 ° 0 min 0 W/m² 3,0 °C 4,3 °C 8,0 km/h (2 Bft)
12.11.2024 21:16 21,6 °C 4,3 °C 58 % 91 % 1032,6 hPa 0,0 l/m² 8,4 km/h (2 Bft) NO 34 ° 0 min 0 W/m² 3,0 °C 2,5 °C 16,1 km/h (3 Bft)
12.11.2024 21:17 21,6 °C 4,3 °C 58 % 91 % 1032,5 hPa 0,0 l/m² 2,4 km/h (1 Bft) N-NO 26 ° 0 min 0 W/m² 3,0 °C 4,3 °C 8,0 km/h (2 Bft)
12.11.2024 21:18 21,6 °C 4,3 °C 58 % 91 % 1032,5 hPa 0,0 l/m² 6,0 km/h (2 Bft) O-NO 69 ° 0 min 0 W/m² 3,0 °C 4,3 °C 9,7 km/h (2 Bft)
12.11.2024 21:19 21,6 °C 4,3 °C 58 % 91 % 1032,5 hPa 0,0 l/m² 7,0 km/h (2 Bft) O-NO 65 ° 0 min 0 W/m² 3,0 °C 3,8 °C 8,0 km/h (2 Bft)
12.11.2024 21:20 21,6 °C 4,3 °C 58 % 91 % 1032,5 hPa 0,0 l/m² 6,0 km/h (2 Bft) O-NO 70 ° 0 min 0 W/m² 3,0 °C 4,3 °C 14,5 km/h (3 Bft)
12.11.2024 21:21 21,6 °C 4,2 °C 58 % 91 % 1032,5 hPa 0,0 l/m² 6,2 km/h (2 Bft) N-NO 32 ° 0 min 0 W/m² 2,9 °C 4,2 °C 9,7 km/h (2 Bft)
12.11.2024 21:22 21,6 °C 4,2 °C 58 % 91 % 1032,5 hPa 0,0 l/m² 5,5 km/h (2 Bft) N-NO 33 ° 0 min 0 W/m² 2,9 °C 4,2 °C 9,7 km/h (2 Bft)
12.11.2024 21:23 21,6 °C 4,2 °C 58 % 91 % 1032,5 hPa 0,0 l/m² 8,3 km/h (2 Bft) NO 46 ° 0 min 0 W/m² 2,9 °C 2,5 °C 12,9 km/h (3 Bft)
12.11.2024 21:24 21,6 °C 4,3 °C 58 % 91 % 1032,5 hPa 0,0 l/m² 3,9 km/h (1 Bft) N-NO 15 ° 0 min 0 W/m² 3,0 °C 4,3 °C 6,4 km/h (2 Bft)
12.11.2024 21:25 21,6 °C 4,2 °C 58 % 91 % 1032,5 hPa 0,0 l/m² 6,6 km/h (2 Bft) N 5 ° 0 min 0 W/m² 2,9 °C 4,0 °C 11,3 km/h (2 Bft)
12.11.2024 21:26 21,6 °C 4,2 °C 58 % 91 % 1032,4 hPa 0,0 l/m² 6,5 km/h (2 Bft) N-NO 21 ° 0 min 0 W/m² 2,9 °C 4,1 °C 11,3 km/h (2 Bft)
12.11.2024 21:27 21,6 °C 4,2 °C 58 % 91 % 1032,5 hPa 0,0 l/m² 4,4 km/h (1 Bft) N 5 ° 0 min 0 W/m² 2,9 °C 4,2 °C 9,7 km/h (2 Bft)
12.11.2024 21:28 21,7 °C 4,2 °C 58 % 91 % 1032,5 hPa 0,0 l/m² 4,4 km/h (1 Bft) N 5 ° 0 min 0 W/m² 2,9 °C 4,2 °C 6,4 km/h (2 Bft)
12.11.2024 21:29 21,7 °C 4,2 °C 58 % 91 % 1032,5 hPa 0,0 l/m² 4,7 km/h (1 Bft) NO 54 ° 0 min 0 W/m² 2,9 °C 4,2 °C 8,0 km/h (2 Bft)
12.11.2024 21:30 21,6 °C 4,2 °C 58 % 91 % 1032,5 hPa 0,0 l/m² 3,4 km/h (1 Bft) N-NO 18 ° 0 min 0 W/m² 2,9 °C 4,2 °C 6,4 km/h (2 Bft)
12.11.2024 21:31 21,6 °C 4,2 °C 58 % 91 % 1032,5 hPa 0,0 l/m² 3,4 km/h (1 Bft) NO 36 ° 0 min 0 W/m² 2,9 °C 4,2 °C 4,8 km/h (1 Bft)
12.11.2024 21:32 21,7 °C 4,2 °C 58 % 91 % 1032,6 hPa 0,0 l/m² 5,8 km/h (2 Bft) N-NO 25 ° 0 min 0 W/m² 2,9 °C 4,2 °C 11,3 km/h (2 Bft)
12.11.2024 21:33 21,7 °C 4,2 °C 58 % 91 % 1032,4 hPa 0,0 l/m² 5,7 km/h (2 Bft) N-NO 22 ° 0 min 0 W/m² 2,9 °C 4,2 °C 8,0 km/h (2 Bft)
12.11.2024 21:34 21,7 °C 4,2 °C 58 % 91 % 1032,5 hPa 0,0 l/m² 4,0 km/h (1 Bft) NO 42 ° 0 min 0 W/m² 2,9 °C 4,2 °C 6,4 km/h (2 Bft)
12.11.2024 21:35 21,7 °C 4,2 °C 58 % 91 % 1032,5 hPa 0,0 l/m² 4,0 km/h (1 Bft) O-NO 59 ° 0 min 0 W/m² 2,9 °C 4,2 °C 6,4 km/h (2 Bft)
12.11.2024 21:36 21,7 °C 4,2 °C 58 % 91 % 1032,5 hPa 0,0 l/m² 4,5 km/h (1 Bft) N-NO 32 ° 0 min 0 W/m² 2,9 °C 4,2 °C 6,4 km/h (2 Bft)
12.11.2024 21:37 21,6 °C 4,2 °C 58 % 91 % 1032,5 hPa 0,0 l/m² 4,0 km/h (1 Bft) NO 44 ° 0 min 0 W/m² 2,9 °C 4,2 °C 8,0 km/h (2 Bft)
12.11.2024 21:38 21,6 °C 4,2 °C 58 % 91 % 1032,5 hPa 0,0 l/m² 4,8 km/h (1 Bft) NO 38 ° 0 min 0 W/m² 2,9 °C 4,2 °C 8,0 km/h (2 Bft)
12.11.2024 21:39 21,7 °C 4,2 °C 58 % 91 % 1032,5 hPa 0,0 l/m² 2,7 km/h (1 Bft) N-NO 31 ° 0 min 0 W/m² 2,9 °C 4,2 °C 4,8 km/h (1 Bft)
12.11.2024 21:40 21,6 °C 4,2 °C 58 % 91 % 1032,5 hPa 0,0 l/m² 6,0 km/h (2 Bft) NO 36 ° 0 min 0 W/m² 2,9 °C 4,2 °C 11,3 km/h (2 Bft)
12.11.2024 21:41 21,6 °C 4,2 °C 58 % 91 % 1032,5 hPa 0,0 l/m² 4,2 km/h (1 Bft) N-NO 24 ° 0 min 0 W/m² 2,9 °C 4,2 °C 9,7 km/h (2 Bft)
12.11.2024 21:42 21,6 °C 4,2 °C 57 % 91 % 1032,5 hPa 0,0 l/m² 5,8 km/h (2 Bft) NO 49 ° 0 min 0 W/m² 2,9 °C 4,2 °C 11,3 km/h (2 Bft)
12.11.2024 21:43 21,6 °C 4,2 °C 58 % 91 % 1032,5 hPa 0,0 l/m² 4,9 km/h (1 Bft) O-NO 66 ° 0 min 0 W/m² 2,9 °C 4,2 °C 6,4 km/h (2 Bft)
12.11.2024 21:44 21,6 °C 4,2 °C 58 % 91 % 1032,5 hPa 0,0 l/m² 3,6 km/h (1 Bft) N-NO 20 ° 0 min 0 W/m² 2,9 °C 4,2 °C 4,8 km/h (1 Bft)
12.11.2024 21:45 21,6 °C 4,2 °C 58 % 91 % 1032,5 hPa 0,0 l/m² 9,7 km/h (2 Bft) O-NO 58 ° 0 min 0 W/m² 2,9 °C 1,4 °C 9,7 km/h (2 Bft)
12.11.2024 21:46 21,6 °C 4,2 °C 58 % 91 % 1032,5 hPa 0,0 l/m² 4,5 km/h (1 Bft) NO 36 ° 0 min 0 W/m² 2,9 °C 4,2 °C 9,7 km/h (2 Bft)
12.11.2024 21:47 21,6 °C 4,2 °C 58 % 91 % 1032,5 hPa 0,0 l/m² 4,1 km/h (1 Bft) N-NO 32 ° 0 min 0 W/m² 2,9 °C 4,2 °C 9,7 km/h (2 Bft)
12.11.2024 21:48 21,6 °C 4,2 °C 57 % 91 % 1032,5 hPa 0,0 l/m² 5,5 km/h (2 Bft) NO 41 ° 0 min 0 W/m² 2,9 °C 4,2 °C 8,0 km/h (2 Bft)
12.11.2024 21:49 21,6 °C 4,2 °C 57 % 91 % 1032,5 hPa 0,0 l/m² 2,0 km/h (1 Bft) NO 41 ° 0 min 0 W/m² 2,9 °C 4,2 °C 3,2 km/h (1 Bft)
12.11.2024 21:50 21,6 °C 4,2 °C 57 % 91 % 1032,5 hPa 0,0 l/m² 7,0 km/h (2 Bft) O-NO 63 ° 0 min 0 W/m² 2,9 °C 3,7 °C 11,3 km/h (2 Bft)
12.11.2024 21:52 21,6 °C 4,2 °C 57 % 91 % 1032,5 hPa 0,0 l/m² 4,8 km/h (1 Bft) NO 49 ° 0 min 0 W/m² 2,9 °C 4,2 °C 8,0 km/h (2 Bft)
12.11.2024 21:53 21,6 °C 4,2 °C 57 % 91 % 1032,5 hPa 0,0 l/m² 2,4 km/h (1 Bft) NO 51 ° 0 min 0 W/m² 2,9 °C 4,2 °C 3,2 km/h (1 Bft)
12.11.2024 21:54 21,6 °C 4,2 °C 57 % 91 % 1032,5 hPa 0,0 l/m² 6,8 km/h (2 Bft) O-NO 61 ° 0 min 0 W/m² 2,9 °C 3,8 °C 9,7 km/h (2 Bft)
12.11.2024 21:55 21,6 °C 4,2 °C 58 % 91 % 1032,5 hPa 0,0 l/m² 6,5 km/h (2 Bft) NO 54 ° 0 min 0 W/m² 2,9 °C 4,1 °C 11,3 km/h (2 Bft)
12.11.2024 21:56 21,6 °C 4,2 °C 57 % 91 % 1032,6 hPa 0,0 l/m² 6,4 km/h (2 Bft) NO 43 ° 0 min 0 W/m² 2,9 °C 4,2 °C 11,3 km/h (2 Bft)
12.11.2024 21:57 21,6 °C 4,2 °C 57 % 91 % 1032,6 hPa 0,0 l/m² 6,3 km/h (2 Bft) O-NO 67 ° 0 min 0 W/m² 2,9 °C 4,2 °C 11,3 km/h (2 Bft)
12.11.2024 21:58 21,6 °C 4,2 °C 57 % 91 % 1032,5 hPa 0,0 l/m² 4,4 km/h (1 Bft) NO 38 ° 0 min 0 W/m² 2,9 °C 4,2 °C 8,0 km/h (2 Bft)
12.11.2024 21:59 21,6 °C 4,2 °C 57 % 91 % 1032,6 hPa 0,0 l/m² 6,6 km/h (2 Bft) NO 53 ° 0 min 0 W/m² 2,9 °C 4,0 °C 9,7 km/h (2 Bft)
12.11.2024 22:00 21,6 °C 4,2 °C 58 % 91 % 1032,5 hPa 0,0 l/m² 6,6 km/h (2 Bft) N-NO 32 ° 0 min 0 W/m² 2,9 °C 4,0 °C 11,3 km/h (2 Bft)
12.11.2024 22:01 21,6 °C 4,2 °C 57 % 91 % 1032,6 hPa 0,0 l/m² 5,2 km/h (1 Bft) O-NO 67 ° 0 min 0 W/m² 2,9 °C 4,2 °C 8,0 km/h (2 Bft)
12.11.2024 22:02 21,6 °C 4,2 °C 57 % 91 % 1032,6 hPa 0,0 l/m² 2,5 km/h (1 Bft) O-NO 69 ° 0 min 0 W/m² 2,9 °C 4,2 °C 6,4 km/h (2 Bft)
12.11.2024 22:03 21,5 °C 4,2 °C 57 % 91 % 1032,6 hPa 0,0 l/m² 5,5 km/h (2 Bft) N-NO 24 ° 0 min 0 W/m² 2,9 °C 4,2 °C 14,5 km/h (3 Bft)
12.11.2024 22:04 21,5 °C 4,2 °C 58 % 91 % 1032,6 hPa 0,0 l/m² 7,9 km/h (2 Bft) NO 40 ° 0 min 0 W/m² 2,9 °C 2,8 °C 14,5 km/h (3 Bft)
12.11.2024 22:05 21,5 °C 4,2 °C 58 % 91 % 1032,6 hPa 0,0 l/m² 6,8 km/h (2 Bft) O-NO 57 ° 0 min 0 W/m² 2,9 °C 3,8 °C 9,7 km/h (2 Bft)
12.11.2024 22:07 21,5 °C 4,2 °C 58 % 91 % 1032,7 hPa 0,0 l/m² 5,4 km/h (2 Bft) NO 53 ° 0 min 0 W/m² 2,9 °C 4,2 °C 8,0 km/h (2 Bft)
12.11.2024 22:08 21,5 °C 4,2 °C 58 % 91 % 1032,7 hPa 0,0 l/m² 6,3 km/h (2 Bft) O-NO 59 ° 0 min 0 W/m² 2,9 °C 4,2 °C 8,0 km/h (2 Bft)
12.11.2024 22:09 21,4 °C 4,2 °C 58 % 91 % 1032,6 hPa 0,0 l/m² 5,2 km/h (1 Bft) O-NO 60 ° 0 min 0 W/m² 2,9 °C 4,2 °C 8,0 km/h (2 Bft)
12.11.2024 22:10 21,5 °C 4,2 °C 58 % 91 % 1032,7 hPa 0,0 l/m² 4,4 km/h (1 Bft) O-NO 58 ° 0 min 0 W/m² 2,9 °C 4,2 °C 9,7 km/h (2 Bft)
12.11.2024 22:11 21,5 °C 4,2 °C 58 % 91 % 1032,6 hPa 0,0 l/m² 5,8 km/h (2 Bft) NO 42 ° 0 min 0 W/m² 2,9 °C 4,2 °C 9,7 km/h (2 Bft)
12.11.2024 22:12 21,5 °C 4,2 °C 58 % 92 % 1032,7 hPa 0,0 l/m² 2,8 km/h (1 Bft) O-NO 57 ° 0 min 0 W/m² 3,0 °C 4,2 °C 6,4 km/h (2 Bft)
12.11.2024 22:13 21,4 °C 4,2 °C 58 % 92 % 1032,7 hPa 0,0 l/m² 3,5 km/h (1 Bft) O-NO 63 ° 0 min 0 W/m² 3,0 °C 4,2 °C 6,4 km/h (2 Bft)
12.11.2024 22:14 21,5 °C 4,2 °C 58 % 92 % 1032,7 hPa 0,0 l/m² 5,7 km/h (2 Bft) NO 55 ° 0 min 0 W/m² 3,0 °C 4,2 °C 9,7 km/h (2 Bft)
12.11.2024 22:15 21,5 °C 4,2 °C 58 % 92 % 1032,7 hPa 0,0 l/m² 4,2 km/h (1 Bft) N-NO 24 ° 0 min 0 W/m² 3,0 °C 4,2 °C 8,0 km/h (2 Bft)
12.11.2024 22:16 21,4 °C 4,2 °C 58 % 92 % 1032,7 hPa 0,0 l/m² 4,7 km/h (1 Bft) NO 46 ° 0 min 0 W/m² 3,0 °C 4,2 °C 9,7 km/h (2 Bft)
12.11.2024 22:17 21,4 °C 4,2 °C 58 % 92 % 1032,7 hPa 0,0 l/m² 5,3 km/h (1 Bft) NO 47 ° 0 min 0 W/m² 3,0 °C 4,2 °C 14,5 km/h (3 Bft)
12.11.2024 22:18 21,4 °C 4,2 °C 58 % 92 % 1032,7 hPa 0,0 l/m² 5,0 km/h (1 Bft) NO 42 ° 0 min 0 W/m² 3,0 °C 4,2 °C 8,0 km/h (2 Bft)
12.11.2024 22:19 21,4 °C 4,2 °C 58 % 92 % 1032,7 hPa 0,0 l/m² 2,5 km/h (1 Bft) O-NO 59 ° 0 min 0 W/m² 3,0 °C 4,2 °C 6,4 km/h (2 Bft)
12.11.2024 22:20 21,4 °C 4,2 °C 58 % 92 % 1032,7 hPa 0,0 l/m² 4,6 km/h (1 Bft) NO 56 ° 0 min 0 W/m² 3,0 °C 4,2 °C 6,4 km/h (2 Bft)
12.11.2024 22:21 21,4 °C 4,2 °C 58 % 92 % 1032,7 hPa 0,0 l/m² 5,5 km/h (2 Bft) NO 43 ° 0 min 0 W/m² 3,0 °C 4,2 °C 9,7 km/h (2 Bft)
12.11.2024 22:22 21,4 °C 4,2 °C 58 % 92 % 1032,6 hPa 0,0 l/m² 3,8 km/h (1 Bft) NO 39 ° 0 min 0 W/m² 3,0 °C 4,2 °C 9,7 km/h (2 Bft)
12.11.2024 22:23 21,4 °C 4,2 °C 58 % 92 % 1032,6 hPa 0,0 l/m² 6,4 km/h (2 Bft) NO 52 ° 0 min 0 W/m² 3,0 °C 4,2 °C 9,7 km/h (2 Bft)
12.11.2024 22:24 21,4 °C 4,2 °C 58 % 92 % 1032,7 hPa 0,0 l/m² 3,1 km/h (1 Bft) NO 49 ° 0 min 0 W/m² 3,0 °C 4,2 °C 4,8 km/h (1 Bft)
12.11.2024 22:25 21,4 °C 4,2 °C 58 % 92 % 1032,7 hPa 0,0 l/m² 4,0 km/h (1 Bft) NO 34 ° 0 min 0 W/m² 3,0 °C 4,2 °C 9,7 km/h (2 Bft)
12.11.2024 22:26 21,4 °C 4,2 °C 58 % 92 % 1032,7 hPa 0,0 l/m² 3,2 km/h (1 Bft) NO 34 ° 0 min 0 W/m² 3,0 °C 4,2 °C 4,8 km/h (1 Bft)
12.11.2024 22:27 21,4 °C 4,2 °C 58 % 92 % 1032,7 hPa 0,0 l/m² 2,3 km/h (1 Bft) NO 37 ° 0 min 0 W/m² 3,0 °C 4,2 °C 4,8 km/h (1 Bft)
12.11.2024 22:28 21,4 °C 4,2 °C 58 % 92 % 1032,7 hPa 0,0 l/m² 5,0 km/h (1 Bft) N-NO 29 ° 0 min 0 W/m² 3,0 °C 4,2 °C 9,7 km/h (2 Bft)
12.11.2024 22:29 21,4 °C 4,2 °C 58 % 92 % 1032,6 hPa 0,0 l/m² 3,0 km/h (1 Bft) O-NO 66 ° 0 min 0 W/m² 3,0 °C 4,2 °C 6,4 km/h (2 Bft)
12.11.2024 22:30 21,4 °C 4,2 °C 58 % 92 % 1032,6 hPa 0,0 l/m² 4,0 km/h (1 Bft) NO 38 ° 0 min 0 W/m² 3,0 °C 4,2 °C 6,4 km/h (2 Bft)
12.11.2024 22:31 21,4 °C 4,2 °C 58 % 92 % 1032,7 hPa 0,0 l/m² 0,7 km/h (0 Bft) NO 37 ° 0 min 0 W/m² 3,0 °C 4,2 °C 3,2 km/h (1 Bft)
12.11.2024 22:32 21,4 °C 4,2 °C 58 % 92 % 1032,6 hPa 0,0 l/m² 3,6 km/h (1 Bft) NO 48 ° 0 min 0 W/m² 3,0 °C 4,2 °C 6,4 km/h (2 Bft)
12.11.2024 22:33 21,4 °C 4,2 °C 58 % 92 % 1032,6 hPa 0,0 l/m² 5,3 km/h (1 Bft) O 80 ° 0 min 0 W/m² 3,0 °C 4,2 °C 8,0 km/h (2 Bft)
12.11.2024 22:34 21,4 °C 4,2 °C 58 % 92 % 1032,6 hPa 0,0 l/m² 5,0 km/h (1 Bft) NO 43 ° 0 min 0 W/m² 3,0 °C 4,2 °C 8,0 km/h (2 Bft)
12.11.2024 22:35 21,4 °C 4,2 °C 58 % 92 % 1032,6 hPa 0,0 l/m² 3,1 km/h (1 Bft) NO 44 ° 0 min 0 W/m² 3,0 °C 4,2 °C 4,8 km/h (1 Bft)
12.11.2024 22:36 21,4 °C 4,2 °C 58 % 92 % 1032,5 hPa 0,0 l/m² 4,4 km/h (1 Bft) NO 52 ° 0 min 0 W/m² 3,0 °C 4,2 °C 8,0 km/h (2 Bft)
12.11.2024 22:37 21,4 °C 4,2 °C 58 % 92 % 1032,6 hPa 0,0 l/m² 0,7 km/h (0 Bft) NO 52 ° 0 min 0 W/m² 3,0 °C 4,2 °C 1,6 km/h (1 Bft)
12.11.2024 22:38 21,4 °C 4,2 °C 58 % 92 % 1032,5 hPa 0,0 l/m² 0,9 km/h (0 Bft) NO 52 ° 0 min 0 W/m² 3,0 °C 4,2 °C 3,2 km/h (1 Bft)
12.11.2024 22:39 21,4 °C 4,2 °C 58 % 92 % 1032,6 hPa 0,0 l/m² 5,9 km/h (2 Bft) NO 54 ° 0 min 0 W/m² 3,0 °C 4,2 °C 8,0 km/h (2 Bft)
12.11.2024 22:40 21,3 °C 4,2 °C 58 % 92 % 1032,6 hPa 0,0 l/m² 4,5 km/h (1 Bft) NO 55 ° 0 min 0 W/m² 3,0 °C 4,2 °C 8,0 km/h (2 Bft)
12.11.2024 22:41 21,3 °C 4,2 °C 58 % 92 % 1032,6 hPa 0,0 l/m² 3,8 km/h (1 Bft) NO 39 ° 0 min 0 W/m² 3,0 °C 4,2 °C 6,4 km/h (2 Bft)
12.11.2024 22:42 21,3 °C 4,2 °C 58 % 92 % 1032,6 hPa 0,0 l/m² 3,2 km/h (1 Bft) NO 37 ° 0 min 0 W/m² 3,0 °C 4,2 °C 4,8 km/h (1 Bft)
12.11.2024 22:43 21,4 °C 4,2 °C 58 % 92 % 1032,6 hPa 0,0 l/m² 3,4 km/h (1 Bft) NO 40 ° 0 min 0 W/m² 3,0 °C 4,2 °C 6,4 km/h (2 Bft)
12.11.2024 22:44 21,4 °C 4,2 °C 58 % 92 % 1032,5 hPa 0,0 l/m² 1,3 km/h (1 Bft) NO 49 ° 0 min 0 W/m² 3,0 °C 4,2 °C 3,2 km/h (1 Bft)
12.11.2024 22:45 21,3 °C 4,2 °C 58 % 92 % 1032,5 hPa 0,0 l/m² 1,1 km/h (1 Bft) NO 48 ° 0 min 0 W/m² 3,0 °C 4,2 °C 3,2 km/h (1 Bft)
12.11.2024 22:46 21,4 °C 4,2 °C 58 % 92 % 1032,5 hPa 0,0 l/m² 0,1 km/h (0 Bft) O-NO 63 ° 0 min 0 W/m² 3,0 °C 4,2 °C 1,6 km/h (1 Bft)
12.11.2024 22:47 21,4 °C 4,2 °C 58 % 92 % 1032,4 hPa 0,0 l/m² 3,2 km/h (1 Bft) O 89 ° 0 min 0 W/m² 3,0 °C 4,2 °C 4,8 km/h (1 Bft)
12.11.2024 22:48 21,3 °C 4,2 °C 58 % 92 % 1032,4 hPa 0,0 l/m² 3,8 km/h (1 Bft) O 92 ° 0 min 0 W/m² 3,0 °C 4,2 °C 4,8 km/h (1 Bft)
12.11.2024 22:49 21,3 °C 4,2 °C 58 % 92 % 1032,3 hPa 0,0 l/m² 4,6 km/h (1 Bft) O-SO 113 ° 0 min 0 W/m² 3,0 °C 4,2 °C 6,4 km/h (2 Bft)
12.11.2024 22:50 21,3 °C 4,2 °C 58 % 92 % 1032,3 hPa 0,0 l/m² 3,6 km/h (1 Bft) O-SO 113 ° 0 min 0 W/m² 3,0 °C 4,2 °C 6,4 km/h (2 Bft)
12.11.2024 22:51 21,3 °C 4,2 °C 58 % 92 % 1032,4 hPa 0,0 l/m² 1,7 km/h (1 Bft) O-SO 113 ° 0 min 0 W/m² 3,0 °C 4,2 °C 3,2 km/h (1 Bft)
12.11.2024 22:52 21,3 °C 4,2 °C 58 % 92 % 1032,3 hPa 0,0 l/m² 0,8 km/h (0 Bft) O-SO 113 ° 0 min 0 W/m² 3,0 °C 4,2 °C 1,6 km/h (1 Bft)
12.11.2024 22:53 21,3 °C 4,2 °C 58 % 92 % 1032,4 hPa 0,0 l/m² 0,9 km/h (0 Bft) O-SO 113 ° 0 min 0 W/m² 3,0 °C 4,2 °C 1,6 km/h (1 Bft)
12.11.2024 22:54 21,3 °C 4,2 °C 58 % 92 % 1032,3 hPa 0,0 l/m² 0,2 km/h (0 Bft) O-SO 113 ° 0 min 0 W/m² 3,0 °C 4,2 °C 1,6 km/h (1 Bft)
12.11.2024 22:55 21,3 °C 4,2 °C 58 % 92 % 1032,4 hPa 0,0 l/m² 1,2 km/h (1 Bft) O-SO 113 ° 0 min 0 W/m² 3,0 °C 4,2 °C 3,2 km/h (1 Bft)
12.11.2024 22:56 21,3 °C 4,2 °C 58 % 92 % 1032,4 hPa 0,0 l/m² 1,7 km/h (1 Bft) O-SO 113 ° 0 min 0 W/m² 3,0 °C 4,2 °C 3,2 km/h (1 Bft)
12.11.2024 22:57 21,3 °C 4,2 °C 58 % 92 % 1032,3 hPa 0,0 l/m² 1,7 km/h (1 Bft) O-SO 113 ° 0 min 0 W/m² 3,0 °C 4,2 °C 3,2 km/h (1 Bft)
12.11.2024 22:58 21,3 °C 4,2 °C 58 % 92 % 1032,4 hPa 0,0 l/m² 1,0 km/h (0 Bft) O-SO 113 ° 0 min 0 W/m² 3,0 °C 4,2 °C 3,2 km/h (1 Bft)
12.11.2024 22:59 21,3 °C 4,2 °C 58 % 92 % 1032,3 hPa 0,0 l/m² 0,5 km/h (0 Bft) O-SO 113 ° 0 min 0 W/m² 3,0 °C 4,2 °C 1,6 km/h (1 Bft)
12.11.2024 23:00 21,3 °C 4,2 °C 58 % 92 % 1032,3 hPa 0,0 l/m² 1,5 km/h (1 Bft) O-SO 112 ° 0 min 0 W/m² 3,0 °C 4,2 °C 3,2 km/h (1 Bft)
12.11.2024 23:01 21,3 °C 4,2 °C 58 % 92 % 1032,3 hPa 0,0 l/m² 0,4 km/h (0 Bft) O-SO 112 ° 0 min 0 W/m² 3,0 °C 4,2 °C 1,6 km/h (1 Bft)
12.11.2024 23:02 21,3 °C 4,2 °C 58 % 92 % 1032,3 hPa 0,0 l/m² 0,0 km/h (0 Bft) O-SO 112 ° 0 min 0 W/m² 3,0 °C 4,2 °C 0,0 km/h (0 Bft)
12.11.2024 23:03 21,3 °C 4,2 °C 58 % 92 % 1032,2 hPa 0,0 l/m² 1,1 km/h (1 Bft) O-SO 112 ° 0 min 0 W/m² 3,0 °C 4,2 °C 3,2 km/h (1 Bft)
12.11.2024 23:04 21,3 °C 4,2 °C 58 % 92 % 1032,2 hPa 0,0 l/m² 1,5 km/h (1 Bft) O-SO 112 ° 0 min 0 W/m² 3,0 °C 4,2 °C 3,2 km/h (1 Bft)
12.11.2024 23:05 21,3 °C 4,2 °C 58 % 92 % 1032,1 hPa 0,0 l/m² 1,8 km/h (1 Bft) O-SO 112 ° 0 min 0 W/m² 3,0 °C 4,2 °C 3,2 km/h (1 Bft)
12.11.2024 23:06 21,3 °C 4,2 °C 58 % 92 % 1032,2 hPa 0,0 l/m² 2,9 km/h (1 Bft) O-SO 112 ° 0 min 0 W/m² 3,0 °C 4,2 °C 4,8 km/h (1 Bft)
12.11.2024 23:07 21,3 °C 4,2 °C 58 % 92 % 1032,1 hPa 0,0 l/m² 3,9 km/h (1 Bft) O-SO 112 ° 0 min 0 W/m² 3,0 °C 4,2 °C 4,8 km/h (1 Bft)
12.11.2024 23:08 21,3 °C 4,2 °C 58 % 92 % 1032,2 hPa 0,0 l/m² 4,1 km/h (1 Bft) O-SO 113 ° 0 min 0 W/m² 3,0 °C 4,2 °C 4,8 km/h (1 Bft)
12.11.2024 23:09 21,3 °C 4,2 °C 58 % 92 % 1032,1 hPa 0,0 l/m² 4,4 km/h (1 Bft) O-SO 112 ° 0 min 0 W/m² 3,0 °C 4,2 °C 6,4 km/h (2 Bft)
12.11.2024 23:10 21,3 °C 4,2 °C 58 % 92 % 1032,2 hPa 0,0 l/m² 3,8 km/h (1 Bft) O-SO 113 ° 0 min 0 W/m² 3,0 °C 4,2 °C 4,8 km/h (1 Bft)
12.11.2024 23:11 21,3 °C 4,2 °C 58 % 92 % 1032,2 hPa 0,0 l/m² 2,7 km/h (1 Bft) O-SO 113 ° 0 min 0 W/m² 3,0 °C 4,2 °C 3,2 km/h (1 Bft)
12.11.2024 23:12 21,3 °C 4,2 °C 58 % 92 % 1032,1 hPa 0,0 l/m² 3,8 km/h (1 Bft) O-SO 113 ° 0 min 0 W/m² 3,0 °C 4,2 °C 4,8 km/h (1 Bft)
12.11.2024 23:13 21,3 °C 4,2 °C 58 % 92 % 1032,1 hPa 0,0 l/m² 3,0 km/h (1 Bft) O-SO 113 ° 0 min 0 W/m² 3,0 °C 4,2 °C 4,8 km/h (1 Bft)
12.11.2024 23:14 21,3 °C 4,2 °C 58 % 92 % 1032,1 hPa 0,0 l/m² 1,9 km/h (1 Bft) O-SO 113 ° 0 min 0 W/m² 3,0 °C 4,2 °C 3,2 km/h (1 Bft)
12.11.2024 23:15 21,3 °C 4,2 °C 58 % 92 % 1032,2 hPa 0,0 l/m² 0,3 km/h (0 Bft) O-SO 113 ° 0 min 0 W/m² 3,0 °C 4,2 °C 1,6 km/h (1 Bft)
12.11.2024 23:16 21,3 °C 4,2 °C 58 % 92 % 1032,1 hPa 0,0 l/m² 0,0 km/h (0 Bft) N 0 ° 0 min 0 W/m² 3,0 °C 4,2 °C 0,0 km/h (0 Bft)
12.11.2024 23:17 21,3 °C 4,2 °C 58 % 92 % 1032,2 hPa 0,0 l/m² 1,6 km/h (1 Bft) O-SO 112 ° 0 min 0 W/m² 3,0 °C 4,2 °C 3,2 km/h (1 Bft)
12.11.2024 23:18 21,3 °C 4,2 °C 58 % 92 % 1032,2 hPa 0,0 l/m² 3,2 km/h (1 Bft) O-SO 112 ° 0 min 0 W/m² 3,0 °C 4,2 °C 4,8 km/h (1 Bft)
12.11.2024 23:19 21,3 °C 4,2 °C 58 % 92 % 1032,2 hPa 0,0 l/m² 3,2 km/h (1 Bft) O-NO 67 ° 0 min 0 W/m² 3,0 °C 4,2 °C 4,8 km/h (1 Bft)
12.11.2024 23:20 21,3 °C 4,2 °C 58 % 92 % 1032,3 hPa 0,0 l/m² 1,6 km/h (1 Bft) NO 45 ° 0 min 0 W/m² 3,0 °C 4,2 °C 1,6 km/h (1 Bft)
12.11.2024 23:26 21,3 °C 4,1 °C 58 % 92 % 1032,3 hPa 0,0 l/m² 3,2 km/h (1 Bft) NW 325 ° 0 min 0 W/m² 2,9 °C 4,1 °C 4,8 km/h (1 Bft)
12.11.2024 23:28 21,2 °C 4,1 °C 58 % 92 % 1032,2 hPa 0,0 l/m² 2,6 km/h (1 Bft) NW 317 ° 0 min 0 W/m² 2,9 °C 4,1 °C 4,8 km/h (1 Bft)
12.11.2024 23:29 21,2 °C 4,1 °C 58 % 92 % 1032,2 hPa 0,0 l/m² 1,8 km/h (1 Bft) NW 316 ° 0 min 0 W/m² 2,9 °C 4,1 °C 3,2 km/h (1 Bft)
12.11.2024 23:31 21,2 °C 4,1 °C 58 % 92 % 1032,3 hPa 0,0 l/m² 1,7 km/h (1 Bft) NW 317 ° 0 min 0 W/m² 2,9 °C 4,1 °C 4,8 km/h (1 Bft)
12.11.2024 23:32 21,2 °C 4,1 °C 58 % 92 % 1032,3 hPa 0,0 l/m² 0,7 km/h (0 Bft) NW 317 ° 0 min 0 W/m² 2,9 °C 4,1 °C 3,2 km/h (1 Bft)
12.11.2024 23:34 21,2 °C 4,0 °C 58 % 92 % 1032,2 hPa 0,0 l/m² 2,0 km/h (1 Bft) NW 315 ° 0 min 0 W/m² 2,8 °C 4,0 °C 3,2 km/h (1 Bft)
12.11.2024 23:36 21,3 °C 4,0 °C 58 % 92 % 1032,2 hPa 0,0 l/m² 3,0 km/h (1 Bft) NW 313 ° 0 min 0 W/m² 2,8 °C 4,0 °C 4,8 km/h (1 Bft)
12.11.2024 23:38 21,2 °C 4,0 °C 58 % 92 % 1032,1 hPa 0,0 l/m² 2,0 km/h (1 Bft) NW 312 ° 0 min 0 W/m² 2,8 °C 4,0 °C 4,8 km/h (1 Bft)
12.11.2024 23:40 21,2 °C 4,0 °C 58 % 92 % 1032,1 hPa 0,0 l/m² 0,6 km/h (0 Bft) NW 311 ° 0 min 0 W/m² 2,8 °C 4,0 °C 3,2 km/h (1 Bft)
12.11.2024 23:41 21,3 °C 4,0 °C 58 % 92 % 1032,1 hPa 0,0 l/m² 0,0 km/h (0 Bft) NW 311 ° 0 min 0 W/m² 2,8 °C 4,0 °C 0,0 km/h (0 Bft)
12.11.2024 23:42 21,3 °C 4,0 °C 58 % 92 % 1032,1 hPa 0,0 l/m² 0,6 km/h (0 Bft) NW 313 ° 0 min 0 W/m² 2,8 °C 4,0 °C 3,2 km/h (1 Bft)
12.11.2024 23:45 21,3 °C 3,9 °C 58 % 92 % 1032,2 hPa 0,0 l/m² 1,2 km/h (1 Bft) NW 315 ° 0 min 0 W/m² 2,7 °C 3,9 °C 4,8 km/h (1 Bft)
12.11.2024 23:47 21,3 °C 3,9 °C 58 % 92 % 1032,2 hPa 0,0 l/m² 2,6 km/h (1 Bft) NW 319 ° 0 min 0 W/m² 2,7 °C 3,9 °C 4,8 km/h (1 Bft)
12.11.2024 23:49 21,3 °C 3,9 °C 58 % 92 % 1032,2 hPa 0,0 l/m² 2,1 km/h (1 Bft) NW 319 ° 0 min 0 W/m² 2,7 °C 3,9 °C 3,2 km/h (1 Bft)
12.11.2024 23:50 21,3 °C 3,9 °C 58 % 92 % 1032,1 hPa 0,0 l/m² 0,3 km/h (0 Bft) NW 319 ° 0 min 0 W/m² 2,7 °C 3,9 °C 1,6 km/h (1 Bft)
12.11.2024 23:51 21,3 °C 3,9 °C 58 % 92 % 1032,1 hPa 0,0 l/m² 0,3 km/h (0 Bft) NW 319 ° 0 min 0 W/m² 2,7 °C 3,9 °C 1,6 km/h (1 Bft)
12.11.2024 23:52 21,3 °C 3,9 °C 58 % 92 % 1032,1 hPa 0,0 l/m² 0,0 km/h (0 Bft) NW 319 ° 0 min 0 W/m² 2,7 °C 3,9 °C 0,0 km/h (0 Bft)
12.11.2024 23:54 21,3 °C 3,9 °C 58 % 92 % 1032,1 hPa 0,0 l/m² 0,6 km/h (0 Bft) NW 319 ° 0 min 0 W/m² 2,7 °C 3,9 °C 3,2 km/h (1 Bft)
12.11.2024 23:56 21,3 °C 3,9 °C 58 % 92 % 1032,2 hPa 0,0 l/m² 1,9 km/h (1 Bft) NW 319 ° 0 min 0 W/m² 2,7 °C 3,9 °C 3,2 km/h (1 Bft)
12.11.2024 23:58 21,3 °C 3,9 °C 58 % 92 % 1032,2 hPa 0,0 l/m² 1,2 km/h (1 Bft) NW 319 ° 0 min 0 W/m² 2,7 °C 3,9 °C 3,2 km/h (1 Bft)
_ Min-Zeit 07:26 23:58 17:55 19:52 00:06 - 23:52 - - - - 23:58 20:34 23:52
Minimum _ 21,1 °C 3,9 °C 56 % 86 % 1026,8 hPa - 0,0 km/h (0 Bft) - - - - 2,7 °C 1,2 °C 0,0 km/h (0 Bft)
_ Max-Zeit 21:39 01:39 07:02 12:36 22:31 07:42 03:58 - - 15:09 14:29 01:39 01:39 04:00
Maximum _ 21,7 °C 7,1 °C 59 % 95 % 1032,7 hPa 0,2 l/m² 13,4 km/h
N-NO (3 Bft)
- - 2 min 211 W/m² 6,4 °C 7,1 °C 19,3 km/h
O-NO (3 Bft)
Durchschnitt _ 21,2 °C 5,9 °C 58 % 93 % 1031,0 hPa #0,8 l/m² 3,9 km/h (1 Bft) NO - #4:03 h 18 W/m² 4,9 °C 5,8 °C 7,7 km/h (2 Bft)
© 2009 Mathias Hoßbach